[[{"header":{"parameterUnit":"m.s-1","parameterCategory":1,"la1":30.6,"la2":29.2853,"lo1":-89.7004,"lo2":-87.6739,"dy":0.0162,"dx":0.0183,"nx":112,"ny":82,"refTime":"2023-08-17T06:00:00:Z","depth":0,"parameterNumber":2,"parameterNumberName":"U-component_of_WINDS"},"data":[0.0,0.0,0.0,0.0,0.0,0.0,0.0,0.0,0.0,0.0,0.0,0.0,0.0,0.0,0.0,0.0,0.0,0.0,0.0,0.0,0.0,0.0,0.0,0.0,0.0,0.0,0.0,0.0,0.0,0.0,0.0,0.0,0.0,0.0,0.0,0.0,0.0,0.0,0.0,0.0,0.0,0.0,0.0,0.0,0.0,0.0,0.0,0.0,0.0,0.0,0.0,0.0,0.0,0.0,0.0,0.0,0.0,0.0,0.0,0.0,0.0,0.0,0.0,0.0,0.0,0.0,0.0,0.0,0.0,0.0,0.0,0.0,0.0,0.0,0.0,0.0,0.0,0.0,0.0,0.0,0.0,0.0,0.0,0.0,0.0,0.0,0.0,0.0,0.0,0.0,-3.1817,-3.292,-3.616,-3.8696,-3.9861,-3.7386,-3.5021,-3.324,0.0,0.0,0.0,0.0,0.0,0.0,0.0,0.0,0.0,0.0,0.0,0.0,0.0,0.0,0.0,0.0,0.0,0.0,0.0,0.0,0.0,0.0,0.0,0.0,0.0,0.0,0.0,0.0,0.0,0.0,0.0,0.0,0.0,0.0,0.0,0.0,0.0,0.0,0.0,0.0,0.0,0.0,0.0,0.0,0.0,0.0,0.0,0.0,0.0,0.0,0.0,0.0,0.0,0.0,0.0,0.0,0.0,0.0,0.0,0.0,0.0,0.0,0.0,0.0,0.0,0.0,0.0,0.0,0.0,0.0,0.0,0.0,0.0,0.0,0.0,0.0,0.0,0.0,0.0,0.0,0.0,0.0,0.0,0.0,0.0,0.0,0.0,0.0,0.0,0.0,0.0,0.0,0.0,0.0,0.0,0.0,0.0,0.0,0.0,0.0,0.0,0.0,0.0,0.0,-3.1572,-3.4217,-3.6832,-3.852,-3.8849,-3.6831,-3.5,-3.3738,0.0,0.0,0.0,0.0,0.0,0.0,0.0,0.0,0.0,0.0,0.0,0.0,0.0,0.0,0.0,0.0,0.0,0.0,0.0,0.0,0.0,0.0,0.0,0.0,0.0,0.0,0.0,0.0,0.0,0.0,0.0,0.0,0.0,0.0,0.0,0.0,0.0,0.0,0.0,0.0,0.0,0.0,0.0,0.0,0.0,0.0,0.0,0.0,0.0,0.0,0.0,0.0,0.0,0.0,0.0,0.0,0.0,0.0,0.0,0.0,0.0,0.0,0.0,0.0,0.0,0.0,0.0,0.0,0.0,0.0,0.0,0.0,0.0,0.0,0.0,0.0,0.0,0.0,0.0,0.0,0.0,0.0,0.0,0.0,0.0,0.0,0.0,0.0,0.0,0.0,0.0,0.0,0.0,0.0,0.0,0.0,0.0,0.0,0.0,0.0,0.0,0.0,0.0,-3.1368,-3.2938,-3.473,-3.6567,-3.7697,-3.7737,-3.595,-3.4316,-3.294,-2.9814,0.0,0.0,0.0,0.0,0.0,0.0,0.0,0.0,0.0,0.0,0.0,0.0,0.0,0.0,0.0,0.0,0.0,0.0,0.0,0.0,0.0,0.0,0.0,0.0,0.0,0.0,0.0,0.0,0.0,0.0,0.0,0.0,0.0,0.0,0.0,0.0,0.0,0.0,0.0,0.0,0.0,0.0,0.0,0.0,0.0,0.0,0.0,0.0,0.0,0.0,0.0,0.0,0.0,0.0,0.0,0.0,0.0,0.0,0.0,0.0,0.0,0.0,0.0,0.0,0.0,0.0,0.0,0.0,0.0,0.0,0.0,0.0,0.0,0.0,0.0,0.0,0.0,0.0,0.0,0.0,0.0,0.0,0.0,0.0,0.0,0.0,0.0,0.0,0.0,0.0,0.0,0.0,0.0,0.0,0.0,0.0,0.0,0.0,0.0,0.0,0.0,0.0,-3.2802,-3.427,-3.4889,-3.6286,-3.7114,-3.7021,-3.5248,-3.3584,-3.2225,-2.9034,0.0,0.0,0.0,0.0,0.0,0.0,0.0,0.0,0.0,0.0,0.0,0.0,0.0,0.0,0.0,0.0,0.0,0.0,0.0,0.0,0.0,0.0,0.0,0.0,0.0,0.0,0.0,0.0,0.0,0.0,0.0,0.0,0.0,0.0,0.0,0.0,0.0,0.0,0.0,0.0,0.0,0.0,0.0,0.0,0.0,0.0,0.0,0.0,0.0,0.0,0.0,0.0,0.0,0.0,0.0,0.0,0.0,0.0,0.0,0.0,0.0,0.0,0.0,0.0,0.0,0.0,0.0,0.0,0.0,0.0,0.0,0.0,0.0,0.0,0.0,0.0,0.0,0.0,0.0,0.0,0.0,0.0,0.0,0.0,0.0,0.0,0.0,0.0,0.0,0.0,0.0,0.0,0.0,0.0,0.0,0.0,0.0,0.0,0.0,0.0,0.0,0.0,-3.291,-3.4783,-3.4889,-3.6341,-3.7211,-3.7021,-3.4997,-3.3317,-3.2376,-2.8419,0.0,0.0,0.0,0.0,0.0,0.0,0.0,0.0,0.0,0.0,0.0,0.0,0.0,0.0,0.0,0.0,0.0,0.0,0.0,0.0,0.0,0.0,0.0,0.0,0.0,0.0,0.0,0.0,0.0,0.0,0.0,0.0,0.0,0.0,0.0,0.0,0.0,0.0,0.0,0.0,0.0,0.0,0.0,0.0,0.0,0.0,0.0,0.0,0.0,0.0,0.0,0.0,0.0,0.0,0.0,0.0,0.0,0.0,0.0,0.0,0.0,0.0,0.0,0.0,0.0,0.0,0.0,0.0,0.0,0.0,0.0,0.0,0.0,0.0,0.0,0.0,0.0,0.0,0.0,0.0,0.0,0.0,0.0,0.0,0.0,0.0,0.0,0.0,0.0,0.0,0.0,0.0,0.0,0.0,0.0,0.0,0.0,0.0,0.0,0.0,0.0,0.0,-3.2995,-3.4978,-3.4618,-3.6136,-3.6742,-3.5589,-3.4667,-3.3291,-3.1369,0.0,0.0,0.0,0.0,0.0,0.0,0.0,0.0,0.0,0.0,0.0,0.0,0.0,0.0,0.0,0.0,0.0,0.0,0.0,0.0,0.0,0.0,0.0,0.0,0.0,0.0,0.0,0.0,0.0,0.0,0.0,0.0,0.0,0.0,0.0,0.0,0.0,0.0,0.0,0.0,0.0,0.0,0.0,0.0,0.0,0.0,0.0,0.0,0.0,0.0,0.0,0.0,0.0,0.0,0.0,0.0,0.0,0.0,0.0,0.0,0.0,0.0,0.0,0.0,0.0,0.0,0.0,0.0,0.0,0.0,0.0,0.0,0.0,0.0,0.0,0.0,0.0,0.0,0.0,0.0,0.0,0.0,0.0,0.0,0.0,0.0,0.0,0.0,0.0,0.0,0.0,0.0,0.0,0.0,0.0,0.0,0.0,0.0,0.0,0.0,0.0,0.0,-2.969,-3.2842,-3.4836,-3.4376,-3.5793,-3.6215,-3.4721,-3.4037,-3.274,-3.05,0.0,0.0,0.0,0.0,0.0,0.0,0.0,0.0,0.0,0.0,0.0,0.0,0.0,0.0,0.0,0.0,0.0,0.0,0.0,0.0,0.0,0.0,0.0,0.0,0.0,0.0,0.0,0.0,0.0,0.0,0.0,0.0,0.0,0.0,0.0,0.0,0.0,0.0,0.0,0.0,0.0,0.0,0.0,0.0,0.0,0.0,0.0,0.0,0.0,0.0,0.0,0.0,0.0,0.0,0.0,0.0,0.0,0.0,0.0,0.0,0.0,0.0,0.0,0.0,0.0,0.0,0.0,0.0,0.0,0.0,0.0,0.0,0.0,0.0,0.0,0.0,0.0,0.0,0.0,0.0,0.0,0.0,0.0,0.0,0.0,0.0,0.0,0.0,0.0,0.0,0.0,0.0,0.0,0.0,0.0,0.0,0.0,0.0,0.0,0.0,0.0,0.0,-2.9574,-3.2386,-3.4303,-3.4129,-3.5359,-3.5786,-3.4673,-3.3135,-3.1518,0.0,0.0,0.0,0.0,0.0,0.0,0.0,0.0,0.0,0.0,0.0,0.0,0.0,0.0,0.0,0.0,0.0,0.0,0.0,0.0,0.0,0.0,0.0,0.0,0.0,0.0,0.0,0.0,0.0,0.0,0.0,0.0,0.0,0.0,0.0,0.0,0.0,0.0,0.0,0.0,0.0,0.0,0.0,0.0,0.0,0.0,0.0,0.0,0.0,0.0,0.0,0.0,0.0,0.0,0.0,0.0,0.0,0.0,0.0,0.0,0.0,0.0,0.0,0.0,0.0,0.0,0.0,0.0,0.0,0.0,0.0,0.0,0.0,0.0,0.0,0.0,0.0,0.0,0.0,0.0,0.0,0.0,0.0,0.0,0.0,0.0,0.0,0.0,0.0,0.0,0.0,0.0,0.0,0.0,0.0,0.0,0.0,0.0,0.0,0.0,0.0,0.0,0.0,-2.9787,-3.2366,-3.4202,-3.4353,-3.5249,-3.5431,-3.4317,-3.3372,-3.2013,-3.0038,0.0,0.0,0.0,0.0,0.0,0.0,0.0,0.0,0.0,0.0,0.0,0.0,0.0,0.0,0.0,0.0,0.0,0.0,0.0,0.0,0.0,0.0,0.0,0.0,0.0,0.0,0.0,0.0,0.0,0.0,0.0,0.0,0.0,0.0,0.0,0.0,0.0,0.0,0.0,0.0,0.0,0.0,0.0,0.0,0.0,0.0,0.0,0.0,0.0,0.0,0.0,0.0,0.0,0.0,0.0,0.0,0.0,0.0,0.0,0.0,0.0,0.0,0.0,0.0,0.0,0.0,0.0,0.0,0.0,0.0,0.0,0.0,0.0,0.0,0.0,0.0,0.0,0.0,0.0,0.0,0.0,0.0,0.0,0.0,0.0,0.0,0.0,0.0,0.0,0.0,0.0,0.0,0.0,0.0,0.0,0.0,0.0,0.0,0.0,0.0,0.0,0.0,-3.0096,-3.2241,-3.3836,-3.4257,-3.4846,-3.4911,-3.4134,-3.2915,-3.136,-2.9433,0.0,0.0,0.0,0.0,0.0,0.0,0.0,0.0,0.0,0.0,0.0,0.0,0.0,0.0,0.0,0.0,0.0,0.0,0.0,0.0,0.0,0.0,0.0,0.0,0.0,0.0,0.0,0.0,0.0,0.0,0.0,0.0,0.0,0.0,0.0,0.0,0.0,0.0,0.0,0.0,0.0,0.0,0.0,0.0,0.0,0.0,0.0,0.0,0.0,0.0,0.0,0.0,0.0,0.0,0.0,0.0,0.0,0.0,0.0,0.0,0.0,0.0,0.0,0.0,0.0,0.0,0.0,0.0,0.0,0.0,0.0,0.0,0.0,0.0,0.0,0.0,0.0,0.0,0.0,0.0,0.0,0.0,0.0,0.0,0.0,0.0,0.0,0.0,0.0,0.0,0.0,0.0,0.0,0.0,0.0,0.0,0.0,0.0,0.0,0.0,0.0,0.0,-3.0551,-3.2185,-3.3493,-3.4039,-3.4312,-3.4399,-3.4034,-3.2114,-3.012,-2.8449,0.0,0.0,0.0,0.0,0.0,0.0,0.0,0.0,0.0,0.0,0.0,0.0,0.0,0.0,0.0,0.0,0.0,0.0,0.0,0.0,0.0,0.0,0.0,0.0,0.0,0.0,0.0,0.0,0.0,0.0,0.0,0.0,0.0,0.0,0.0,0.0,0.0,0.0,0.0,0.0,0.0,0.0,0.0,0.0,0.0,0.0,0.0,0.0,0.0,0.0,0.0,0.0,0.0,0.0,0.0,0.0,0.0,0.0,0.0,0.0,-4.0659,0.0,0.0,0.0,0.0,0.0,0.0,0.0,0.0,0.0,0.0,0.0,0.0,0.0,0.0,0.0,0.0,0.0,0.0,0.0,0.0,0.0,0.0,0.0,0.0,0.0,0.0,0.0,0.0,0.0,0.0,0.0,0.0,0.0,0.0,0.0,0.0,0.0,0.0,0.0,0.0,0.0,-3.0794,-3.2512,-3.3931,-3.4631,-3.4609,-3.4218,-3.3614,-3.2201,-3.0533,-2.8601,-2.644,0.0,0.0,0.0,0.0,0.0,0.0,0.0,0.0,0.0,0.0,0.0,0.0,0.0,0.0,0.0,0.0,0.0,0.0,0.0,0.0,0.0,0.0,0.0,0.0,0.0,0.0,0.0,0.0,0.0,0.0,0.0,0.0,0.0,0.0,0.0,0.0,0.0,0.0,0.0,0.0,0.0,0.0,0.0,0.0,0.0,0.0,0.0,0.0,0.0,0.0,0.0,0.0,0.0,0.0,0.0,0.0,0.0,0.0,0.0,0.0,-4.2178,0.0,0.0,0.0,0.0,0.0,0.0,0.0,0.0,0.0,0.0,0.0,0.0,0.0,0.0,0.0,0.0,0.0,0.0,0.0,0.0,0.0,0.0,0.0,0.0,0.0,0.0,0.0,0.0,0.0,0.0,0.0,0.0,0.0,0.0,0.0,0.0,0.0,0.0,0.0,0.0,-3.1692,-3.2753,-3.3694,-3.4431,-3.4068,-3.363,-3.3251,-3.1636,-2.9918,-2.8161,-2.6523,0.0,0.0,0.0,0.0,0.0,0.0,0.0,0.0,0.0,0.0,0.0,0.0,0.0,0.0,0.0,0.0,0.0,0.0,0.0,0.0,0.0,0.0,0.0,0.0,0.0,0.0,0.0,0.0,0.0,0.0,0.0,0.0,0.0,0.0,0.0,0.0,0.0,0.0,0.0,0.0,0.0,0.0,0.0,0.0,0.0,0.0,0.0,0.0,0.0,0.0,0.0,0.0,0.0,-4.7309,-4.8135,-4.9398,-4.9151,-4.9393,-4.9754,-4.6913,-4.5717,-4.5665,-4.363,0.0,0.0,0.0,0.0,0.0,0.0,0.0,0.0,0.0,0.0,0.0,0.0,0.0,0.0,0.0,0.0,0.0,0.0,0.0,0.0,0.0,0.0,0.0,0.0,-3.6784,-3.6596,-3.4754,0.0,0.0,0.0,0.0,0.0,0.0,0.0,0.0,0.0,0.0,0.0,-3.2624,-3.2998,-3.3387,-3.3919,-3.3371,-3.2933,-3.2703,-3.0893,-2.9087,-2.7636,-2.6678,-2.5238,0.0,0.0,0.0,0.0,0.0,0.0,0.0,0.0,0.0,0.0,0.0,0.0,0.0,0.0,0.0,0.0,0.0,0.0,0.0,0.0,0.0,0.0,0.0,0.0,0.0,0.0,0.0,0.0,0.0,0.0,0.0,0.0,-3.7248,-3.9208,0.0,0.0,0.0,0.0,0.0,0.0,0.0,0.0,0.0,0.0,0.0,0.0,0.0,-4.402,-4.5684,-4.7715,-4.9276,-5.0294,-5.1628,-5.2383,-5.2576,-5.2293,-5.2172,-5.2184,-5.1474,0.0,-4.7338,-4.6389,0.0,0.0,0.0,0.0,0.0,0.0,0.0,0.0,0.0,0.0,0.0,0.0,0.0,0.0,0.0,0.0,0.0,0.0,0.0,0.0,0.0,0.0,-3.7824,-3.8639,-3.8747,-3.8481,0.0,-3.5998,-3.4513,-3.3699,-3.254,0.0,0.0,0.0,0.0,0.0,0.0,0.0,-3.2704,-3.3433,-3.382,-3.3563,-3.3198,-3.2594,-3.1519,-3.0206,-2.8856,-2.7402,-2.629,-2.5271,-2.442,-2.4231,0.0,0.0,0.0,0.0,0.0,0.0,0.0,0.0,0.0,0.0,0.0,0.0,0.0,0.0,0.0,0.0,0.0,0.0,0.0,0.0,0.0,0.0,0.0,0.0,0.0,0.0,0.0,0.0,0.0,-3.6791,-3.9103,-3.9082,-3.966,-3.9422,0.0,0.0,0.0,0.0,0.0,0.0,0.0,0.0,0.0,-4.5286,-4.6049,-4.7417,-4.938,-5.0433,-5.1593,-5.2822,-5.3489,-5.405,-5.4472,-5.3742,-5.3356,-5.3338,-5.2529,-5.1021,-4.895,-4.7773,-4.5597,-4.2845,0.0,0.0,0.0,0.0,-3.8367,-3.8241,-3.9093,-3.9203,-3.8937,-3.862,0.0,0.0,0.0,0.0,0.0,0.0,0.0,0.0,0.0,0.0,-3.8091,-3.8823,-3.9144,-3.8967,-3.793,-3.7002,-3.6104,0.0,-3.4623,-3.381,-3.2692,0.0,0.0,0.0,0.0,-3.2938,-3.2699,-3.2688,-3.2573,-3.2104,-3.1549,-3.0994,-3.0439,-2.9387,-2.832,-2.7349,-2.6538,-2.5775,-2.5069,-2.4879,-2.4197,0.0,0.0,0.0,0.0,0.0,0.0,0.0,0.0,0.0,0.0,0.0,0.0,0.0,0.0,0.0,0.0,0.0,0.0,0.0,0.0,0.0,0.0,0.0,0.0,0.0,0.0,0.0,0.0,-3.8958,-4.0907,-3.9649,-4.1687,-4.2013,0.0,0.0,0.0,0.0,0.0,0.0,-4.4082,-4.5203,-4.6648,-4.8382,-4.9258,-5.0645,-5.2576,-5.2804,-5.3383,-5.4314,-5.4314,-5.4524,-5.4834,-5.3945,-5.3582,-5.3488,-5.2398,-5.1123,-4.9742,-4.8551,-4.6562,-4.4059,-4.2733,-4.1805,-4.1067,-4.0352,-4.0037,-4.0054,-4.081,-4.0825,-4.0438,-4.0173,-3.9191,-3.7793,-3.6415,0.0,0.0,0.0,0.0,-3.6088,-3.7607,-3.801,-3.8149,-3.8676,-3.904,-3.8939,-3.7754,-3.7507,-3.728,0.0,-3.6123,-3.5509,-3.3772,0.0,0.0,0.0,-3.2576,-3.2765,-3.2351,-3.1673,-3.1097,-3.0784,-3.0098,-2.9566,-2.9175,-2.8422,-2.769,-2.6937,-2.6492,-2.5942,-2.5382,-2.5203,-2.4693,-2.3629,0.0,0.0,0.0,0.0,0.0,0.0,0.0,0.0,0.0,0.0,0.0,0.0,0.0,0.0,0.0,0.0,0.0,0.0,0.0,0.0,0.0,0.0,0.0,0.0,0.0,0.0,0.0,0.0,0.0,-4.2996,-4.5278,0.0,0.0,0.0,0.0,-4.2934,-4.405,-4.5457,-4.7081,-4.7959,-4.9451,-5.1716,-5.2541,-5.3348,-5.4191,-5.4946,-5.4981,-5.4314,-5.4314,-5.387,-5.3032,-5.284,-5.2723,-5.2528,-5.1612,-5.0435,-4.9011,-4.8887,-4.7611,-4.5648,-4.4852,-4.3712,-4.2584,-4.2333,-4.181,-4.1229,-4.1138,-4.1086,-4.1055,-4.1055,-3.9987,-3.8583,-3.7679,-3.7384,0.0,0.0,-3.7496,-3.8629,-3.8691,-3.8738,-3.8753,-3.8769,-3.867,-3.8369,-3.7646,-3.7619,-3.7466,0.0,-3.5983,-3.5365,-3.4709,0.0,-3.3295,-3.2064,-3.1916,-3.1834,-3.1477,-3.0666,-3.0039,-2.9984,-2.9624,-2.8854,-2.7523,-2.7363,-2.6923,-2.5864,-2.5587,-2.5395,-2.5203,-2.5082,-2.4706,-2.4016,-2.239,0.0,0.0,0.0,0.0,0.0,0.0,0.0,0.0,0.0,0.0,0.0,0.0,0.0,0.0,0.0,0.0,0.0,0.0,0.0,0.0,0.0,0.0,0.0,0.0,0.0,0.0,0.0,0.0,-4.4429,-4.6845,0.0,-4.4489,-4.5014,-4.5369,-4.5135,-4.7345,-4.8785,-4.8872,-5.1031,-5.219,-5.2032,-5.3243,-5.3805,-5.3576,-5.3875,-5.38,-5.3387,-5.3387,-5.3172,-5.2776,-5.2114,-5.1772,-5.1696,-5.0798,-4.9824,-4.8879,-4.842,-4.7275,-4.5745,-4.4957,-4.4319,-4.367,-4.2567,-4.2013,-4.1794,-4.1496,-4.1202,-4.0805,-4.0235,-3.9689,-3.902,-3.7846,-3.7507,-3.7446,-3.7215,-3.7247,-3.7494,-3.8407,-3.8265,-3.7941,-3.799,-3.7587,-3.703,-3.6353,-3.5922,-3.5536,-3.5305,-3.5888,-3.6086,-3.4996,-3.4649,-3.3919,-3.217,-3.189,-3.1592,-3.0793,-2.9682,-2.8856,-2.8511,-2.7852,-2.7181,-2.6696,-2.6435,-2.6117,-2.5724,-2.5428,-2.5263,-2.5203,-2.5082,-2.478,-2.4325,-2.2553,-2.1404,0.0,0.0,0.0,0.0,0.0,0.0,0.0,0.0,0.0,0.0,0.0,0.0,0.0,0.0,0.0,0.0,0.0,0.0,0.0,0.0,0.0,0.0,0.0,0.0,0.0,-4.4869,-4.7151,-4.5011,-4.8039,-4.9004,-4.5787,-4.6878,-4.7801,-4.7801,-4.996,-5.1031,-5.0504,-5.2664,-5.3454,-5.2435,-5.3401,-5.3682,-5.3173,-5.3116,-5.2919,-5.2542,-5.2485,-5.223,-5.1836,-5.1217,-5.0934,-5.08,-4.999,-4.9239,-4.8509,-4.7737,-4.6629,-4.534,-4.4851,-4.4519,-4.4131,-4.2599,-4.2015,-4.1883,-4.1187,-4.0655,-4.0214,-3.94,-3.917,-3.897,-3.7846,-3.7661,-3.78,-3.7569,-3.7338,-3.7323,-3.8,-3.7677,-3.7107,-3.6876,-3.6307,-3.5691,-3.5245,-3.4664,-3.4149,-3.4149,-3.5243,-3.576,-3.4581,-3.4264,-3.3502,-3.1715,-3.1246,-3.0822,-2.9979,-2.8689,-2.7808,-2.7603,-2.671,-2.6038,-2.5832,-2.572,-2.5571,-2.5253,-2.5004,-2.4978,-2.5143,-2.4839,-2.4706,-2.4645,-2.2677,-2.1371,-2.1,0.0,0.0,0.0,0.0,0.0,0.0,0.0,0.0,0.0,0.0,0.0,0.0,0.0,0.0,0.0,0.0,0.0,0.0,0.0,0.0,0.0,0.0,0.0,-4.1403,-4.5765,-4.7961,-4.5063,-4.9023,-5.0803,-4.7801,-4.9556,-5.0891,-5.0891,-5.1593,-5.1997,-5.1979,-5.2751,-5.3155,-5.3102,-5.3138,-5.3138,-5.3102,-5.2914,-5.2472,-5.1756,-5.1603,-5.1089,-5.0154,-5.0154,-5.0097,-4.9866,-4.9154,-4.8505,-4.7802,-4.6867,-4.5681,-4.4448,-4.4479,-4.4319,-4.4003,-4.2388,-4.179,-4.1488,-4.0007,-3.9493,-3.9385,-3.8723,-3.8508,-3.8385,-3.7707,-3.7954,-3.8338,-3.7661,-3.7938,-3.8292,-3.7615,-3.6953,-3.6292,-3.5614,-3.4937,-3.4445,-3.4429,-3.3909,-3.3441,-3.338,-3.3954,-3.4125,-3.3464,-3.2879,-3.199,-3.0657,-2.9936,0.0,-2.9044,-2.7714,-2.693,-2.7248,-2.6417,-2.5598,-2.4859,-2.5329,-2.5279,-2.439,-2.4292,-2.4511,-2.5009,-2.4439,-2.44,-2.4962,-2.2775,-2.1323,-2.0828,0.0,0.0,0.0,0.0,0.0,0.0,0.0,0.0,0.0,0.0,0.0,0.0,0.0,0.0,0.0,0.0,0.0,0.0,0.0,0.0,0.0,-4.2014,-4.4765,-4.5558,-4.7814,-4.9258,-4.8942,-5.0259,-5.0873,-5.0013,-5.0504,-5.0891,-5.0891,-5.1593,-5.1786,-5.1224,-5.2453,-5.259,-5.1322,-5.1864,-5.1843,-5.1172,-5.1081,-5.0937,-5.0615,-5.0615,-5.0102,-4.9188,-4.9188,-4.8838,-4.8338,-4.8134,-4.7605,-4.6837,-4.6055,-4.5045,-4.4098,-4.4259,-4.3894,-4.3133,-4.2147,-4.1117,-4.0007,-3.9077,-3.8785,-3.8754,-3.8569,-3.8508,-3.8385,-3.7707,-3.7631,-3.7646,-3.6953,-3.6907,-3.6892,-3.6215,-3.5891,-3.5584,-3.4906,-3.4214,-3.3575,-3.3167,-3.2539,-3.1901,-3.141,-3.147,-3.1678,-3.1959,-3.1896,-3.1166,-2.948,-2.936,0.0,-2.7592,-2.6965,-2.6688,-2.6722,-2.6015,-2.548,-2.5261,-2.5276,-2.5057,-2.4332,-2.4203,-2.4419,-2.5009,-2.4818,-2.449,-2.3941,-2.2519,-2.1416,0.0,0.0,0.0,0.0,0.0,0.0,0.0,0.0,0.0,0.0,0.0,0.0,0.0,0.0,0.0,0.0,0.0,0.0,0.0,0.0,0.0,0.0,-4.399,-4.6697,-4.8257,-4.9585,-5.0404,-5.0492,-5.0934,-5.1077,-5.0745,-5.071,-5.071,-5.071,-5.1112,-5.1164,-5.0727,-5.1549,-5.1546,-5.0526,-5.0945,-5.098,-5.0415,-5.0046,-4.9833,-4.9721,-4.9336,-4.8843,-4.8355,-4.8355,-4.8131,-4.7717,-4.7662,-4.7009,-4.6035,-4.5461,-4.4316,0.0,0.0,0.0,0.0,0.0,-3.9838,-3.9,-3.8323,-3.7908,-3.7615,-3.7259,-3.6904,-3.6612,-3.6151,-3.6044,-3.5952,-3.5569,-3.5447,-3.537,-3.4972,-3.4666,-3.4344,-3.3962,-3.3334,-3.2715,-3.237,-3.1559,-3.0675,-3.0042,-2.97,0.0,-2.9341,-2.9889,-2.9854,-2.838,-2.8246,-2.7852,-2.6708,-2.629,-2.6069,-2.6056,-2.5474,-2.5055,-2.4938,-2.4879,0.0,0.0,0.0,-2.4314,-2.4827,-2.4584,0.0,0.0,0.0,-2.1621,-2.1831,0.0,0.0,0.0,-2.2412,-2.3199,0.0,0.0,0.0,0.0,0.0,0.0,0.0,0.0,0.0,0.0,0.0,0.0,0.0,0.0,0.0,0.0,-4.5819,-4.7826,-4.9487,-5.0553,-5.0967,-5.0411,-5.1041,-5.1181,-5.0467,-5.0415,-5.0415,-5.0415,-5.0415,-5.0363,-5.0293,0.0,0.0,0.0,0.0,-5.0098,-5.0098,-4.9326,-4.8941,-4.8941,-4.81,-4.7683,-4.7579,-4.7438,-4.7403,-4.7386,-4.712,-4.6261,-4.5036,-4.4638,-4.3211,-4.1411,-4.1488,-4.1032,-4.0139,-3.8862,-3.84,-3.8292,-3.7538,0.0,0.0,-3.537,-3.4682,-3.4149,-3.4045,-3.3985,-3.3985,-3.3985,-3.3985,-3.397,-3.3894,-3.3438,-3.2968,-3.2892,-3.2376,-3.1875,-3.1819,-3.0778,-2.976,-2.9215,-2.8521,-2.7612,-2.6478,-2.7528,-2.825,-2.7384,-2.6862,-2.6465,-2.6121,-2.5648,-2.5369,-2.5369,0.0,0.0,-2.4398,-2.434,-2.4255,-2.4067,-2.4119,-2.432,-2.4658,-2.4066,-2.4078,-2.4847,-2.2367,-2.1742,-2.3151,-2.1752,-2.159,-2.249,-2.308,-2.3547,0.0,0.0,0.0,0.0,0.0,0.0,0.0,0.0,0.0,0.0,0.0,0.0,0.0,0.0,0.0,-4.3746,-4.5764,-4.7449,-4.8058,-4.8342,-4.8882,-5.0124,-5.048,-5.0571,-5.0432,-5.0415,-5.0415,-5.0415,-5.0415,-5.0136,-4.9527,-4.951,-4.9159,-4.8407,-4.8372,-4.8335,-4.8204,-4.8048,-4.7997,-4.7997,0.0,0.0,-4.6803,-4.604,-4.5677,-4.5608,-4.4264,-4.3504,-4.3107,-4.1933,-4.0529,-3.9221,-3.976,-3.9493,-3.88,-3.8,-3.7692,-3.7523,-3.6307,-3.5723,-3.534,-3.4606,-3.4256,-3.4045,-3.3985,-3.3985,0.0,-3.3985,-3.3985,-3.3863,-3.3317,-3.3089,-3.2846,-3.2315,-3.1678,-3.1066,-3.0503,-2.9734,-2.8999,-2.844,-2.7771,-2.7175,-2.6394,-2.6968,-2.7102,-2.5967,-2.6123,-2.6022,-2.5074,-2.5097,-2.5263,-2.5263,-2.5037,-2.4912,-2.4852,-2.4719,-2.4403,-2.3975,-2.4245,-2.4468,-2.4523,-2.4114,-2.3932,-2.4108,-2.2332,-2.1691,-2.2319,-2.146,-2.159,-2.2501,-2.3303,-2.3966,0.0,0.0,0.0,0.0,0.0,0.0,0.0,0.0,0.0,0.0,0.0,-3.9876,-4.0824,0.0,-4.4598,-4.5341,-4.6593,-4.7593,-4.7813,-4.8083,-4.8432,-4.8903,-4.9007,-4.9201,-4.9565,-4.9458,-4.9425,-4.9582,-4.944,-4.9129,-4.8508,-4.8508,-4.8263,-4.781,-4.7793,-4.7755,-4.7717,-4.7248,-4.6814,-4.6436,-4.602,-4.54,-4.4679,-4.4214,-4.399,-4.3939,-4.3012,-4.2436,-4.1986,-4.0485,-3.9062,-3.7901,-3.8172,-3.8161,-3.7877,-3.6861,-3.6414,-3.6198,-3.5186,-3.4499,-3.4028,-3.3649,-3.3213,-3.2881,-3.2749,-3.2749,-3.2749,-3.2749,-3.2749,-3.2673,-3.2342,-3.2251,-3.2176,-3.1845,-3.1242,-3.0689,-3.0324,-2.951,-2.8521,-2.7655,-2.6946,-2.613,-2.4973,-2.5021,-2.5116,-2.4864,-2.511,-2.5084,-2.4411,-2.4537,-2.4662,-2.4662,-2.4603,-2.4543,-2.4484,-2.4033,-2.3502,-2.3005,-2.3379,-2.3744,-2.3917,-2.3417,-2.3365,-2.3845,-2.1867,-2.1228,-2.2186,-2.1239,-2.1248,-2.2149,-2.2678,-2.3398,0.0,0.0,0.0,0.0,0.0,0.0,0.0,-3.545,-3.66,-3.8829,-4.0268,-4.1599,-4.3105,-4.4529,-4.5747,-4.6533,-4.721,-4.768,-4.7718,-4.8096,-4.8131,-4.7576,-4.7729,-4.8144,-4.8734,-4.861,-4.8557,-4.8789,-4.8503,-4.8085,-4.7585,-4.742,-4.7296,-4.7159,-4.7159,-4.709,-4.6935,-4.6189,-4.5486,-4.4747,-4.4006,-4.3372,-4.2774,-4.2621,-4.2586,-4.2705,-4.2345,-4.1665,-4.0694,-3.9457,-3.8121,-3.6957,-3.6843,-3.6896,-3.6906,-3.5815,-3.5278,-3.5034,-3.4225,-3.3556,-3.291,-3.2687,-3.2221,-3.1727,-3.1539,-3.1482,-3.1482,-3.1482,-3.1482,-3.1437,-3.1317,-3.1345,-3.13,-3.118,-3.0627,-3.0078,-2.9952,-2.9046,-2.7891,-2.6693,-2.5896,-2.4929,-2.3411,-2.3057,-2.3165,-2.3817,-2.3905,-2.3861,-2.3785,-2.3785,-2.3772,-2.3715,-2.3715,-2.367,-2.3496,-2.2943,-2.2368,-2.192,-2.2316,-2.2706,-2.2989,-2.248,-2.2503,-2.3308,-2.1065,-2.0587,-2.1854,-2.0691,-2.0586,-2.1414,-2.1816,-2.2622,-2.1239,-2.3487,-2.6575,-2.9237,-3.1075,-3.3114,0.0,-3.7805,-3.9078,-4.1419,-4.2566,-4.3238,-4.3889,-4.4997,-4.575,-4.5522,-4.643,-4.7087,-4.68,-4.679,-4.679,-4.6742,-4.7894,-4.869,-4.8778,-4.8758,-4.8791,-4.8778,-4.833,-4.7735,-4.7021,-4.6522,-4.5973,-4.5306,-4.5289,-4.4981,-4.4331,-4.4228,-4.3818,-4.3082,-4.2945,-4.286,-4.2757,-4.1955,-4.192,-4.2499,-4.1593,-4.0109,-3.8343,-3.8104,-3.7259,-3.6143,-3.6143,-3.5793,-3.5246,-3.5094,-3.5033,-3.4851,-3.3589,-3.3001,-3.2732,-3.2101,-3.173,-3.1539,-3.1539,-3.1482,-3.1482,-3.1482,-3.1482,-3.1332,-3.0776,-3.0612,-3.0477,-2.9924,-2.9295,-2.8643,-2.8115,-2.7443,-2.6578,-2.5406,-2.4584,-2.3865,-2.3138,-2.2536,-2.225,-2.2585,-2.2625,-2.2596,-2.2596,-2.257,-2.2557,-2.2405,-2.2405,-2.2282,-2.1949,-2.1886,-2.1767,-2.1549,-2.1599,-2.1675,-2.1725,-2.147,-2.1356,-2.1475,-2.0132,-1.9693,-2.0226,-1.9575,-1.9489,-2.0076,-2.1125,-2.2157,-2.2329,-2.4466,-2.6762,-2.8996,-3.1285,-3.3633,-3.6069,-3.7281,-3.8527,-4.0807,-4.2446,-4.3654,-4.4047,-4.5145,-4.6003,0.0,-4.6343,-4.6347,-4.5769,-4.5946,-4.613,-4.613,-4.6791,-4.7493,-4.8112,-4.8016,-4.7992,-4.8165,-4.7807,-4.7029,-4.5697,-4.5407,-4.4802,-4.3731,-4.3714,-4.356,-4.3253,-4.3149,-4.25,-4.1358,-4.1291,-4.0798,-3.9982,-3.9935,-4.0256,-4.0828,-4.0421,-3.9541,-3.8463,-3.8278,-3.7292,-3.5784,-3.5723,-3.5018,-3.415,-3.4334,-3.4091,-3.3577,-3.2639,-3.2191,-3.203,-3.1702,-3.1597,-3.1482,-3.1482,-3.1482,-3.1482,-3.1482,-3.124,-3.0824,-3.0485,-3.0127,-2.9784,-2.9406,-2.8842,-2.8314,-2.8032,-2.6934,-2.5707,-2.4913,-2.371,-2.2616,-2.2023,-2.1354,-2.1003,-2.1095,-2.1783,-2.2278,-2.2169,-2.2211,-2.2211,-2.2102,-2.1992,-2.1741,-2.1288,-2.1167,-2.0961,-2.0526,-2.0514,-2.0665,-2.0991,-2.0897,-2.0758,-2.0699,-1.9454,-1.905,-1.9458,-1.8605,-1.8596,-1.9432,-1.9614,-2.0296,-2.2781,-2.4734,-2.6491,-2.8784,-3.1348,-3.383,-3.5664,-3.6785,-3.7992,-3.9854,-4.1635,-4.2907,-4.3239,-4.4502,-4.5583,-4.5889,-4.6114,-4.6002,-4.5276,-4.5524,-4.5811,-4.5811,-4.596,-4.6453,-4.7423,-4.7374,-4.7357,-4.7607,-4.7097,-4.6265,-4.5062,-4.4495,-4.38,-4.286,-4.2705,-4.2568,-4.2364,-4.2209,-4.1393,-3.9949,-3.9833,-3.9074,-3.7874,-3.8268,-3.869,-3.9075,-3.9058,-3.8626,-3.791,-3.7695,-3.66,-3.5077,-3.4941,-3.4197,-3.3215,-3.3532,-3.323,-3.2615,-3.1895,-3.1597,-3.1409,-3.1409,-3.1409,-3.1437,-3.1243,-3.1317,-3.1392,-3.1034,-3.0648,-3.0264,-2.9867,-2.9233,-2.8744,-2.8636,-2.788,-2.7202,-2.7219,-2.5893,-2.4483,-2.3753,-2.2602,-2.151,-2.0913,-2.0399,-2.0067,-2.0067,-2.0937,-2.1583,-2.1529,-2.1583,-2.1583,-2.1476,-2.1288,-2.1015,-2.0557,-2.0426,-2.0198,-1.9733,-1.9708,-1.9895,-2.0307,-2.0238,-2.0074,-1.9823,-1.8771,-1.832,-1.8441,-1.781,-1.7926,-1.8689,-1.848,-1.887,-2.1519,-2.3417,-2.5413,-2.8937,-3.1244,-3.3331,-3.5674,-3.7216,-3.8446,-3.944,-4.0257,-4.0867,-4.1247,-4.2804,-4.4182,-4.4421,-4.5548,-4.6194,-4.563,-4.5722,-4.5811,-4.5811,-4.5811,-4.615,0.0,-4.7205,-4.732,-4.7294,-4.6158,-4.5513,-4.5668,-4.4017,-4.3028,-4.3011,-4.2533,-4.1948,-4.1255,-4.1238,-4.0493,-3.9022,-3.8906,-3.842,-3.7696,-3.7616,-3.7534,-3.7551,-3.7452,-3.6727,-3.5609,-3.5443,-3.4663,-3.3591,-3.3576,-3.3125,-3.2542,-3.2542,-3.2527,-3.2422,-3.1574,-3.1278,-3.1278,-3.1278,-3.1278,-3.1217,-3.0675,-3.0887,-3.1083,-2.9818,-2.9781,-2.9832,-2.8577,-2.7779,-2.7292,-2.724,-2.5908,-2.464,-2.4696,-2.3728,-2.2538,-2.1419,-2.1038,-2.0741,-2.0156,-1.9926,-1.9798,-1.9798,-1.9952,-2.0092,-2.0233,-2.0131,-2.0092,-2.0041,-1.9913,-1.9797,-1.9641,-1.9641,-1.9577,-1.942,-1.942,-1.9433,-1.9445,-1.9445,-1.917,-1.8572,-1.8018,-1.7423,-1.6896,-1.7275,-1.7579,-1.7739,-1.819,-1.8477,-2.1487,-2.3489,-2.5626,-2.8926,-3.0563,-3.1928,-3.3878,-3.467,-3.5384,-3.6722,-3.7116,-3.7551,-3.8637,-4.0118,-4.1626,-4.2822,-4.4523,-4.5687,-4.5513,-4.5775,-4.5925,-4.5704,-4.5811,0.0,0.0,0.0,0.0,-4.7062,-4.5766,-4.4885,-4.4725,-4.3666,-4.2724,-4.2015,-4.1561,-4.1165,-4.081,-4.0002,-3.9076,-3.7984,-3.6961,-3.6578,-3.6716,-3.6668,-3.6837,-3.7253,-3.7203,-3.6933,-3.6522,-3.6328,-3.5307,-3.3893,-3.3679,-3.2775,-3.1575,-3.1575,-3.1575,-3.1545,-3.1367,-3.1234,-3.119,-3.119,-3.088,-3.0554,-3.0834,-3.0391,-2.9817,-2.9859,-2.94,-2.8651,-2.7659,-2.6916,-2.6264,-2.5769,-2.5154,-2.4618,-2.4329,-2.3293,-2.2253,-2.1577,-2.0771,-2.0128,-1.99,-1.9759,-1.9656,-1.9565,-1.9708,-1.9914,-2.0029,-1.9875,-1.972,-1.972,-1.9617,-1.9512,-1.9473,-1.9473,-1.9473,-1.942,-1.942,-1.942,-1.942,-1.9328,-1.8999,-1.8375,-1.8104,-1.771,-1.7224,-1.7002,-1.7132,-1.7536,-1.6999,-1.708,-2.0547,-2.3007,-2.5415,-2.8136,-2.9582,-3.0764,-3.2117,-3.2676,-3.3254,-3.4392,-3.4607,-3.5005,-3.6525,-3.8288,-3.9919,-4.1091,-4.3145,-4.4644,-4.4689,-4.4997,-4.5341,-4.5721,-4.5793,-4.5934,0.0,0.0,0.0,-4.6771,-4.5446,-4.4493,-4.4352,-4.3227,-4.2256,-4.1552,-4.0943,-4.0443,-4.012,-3.9191,-3.8186,-3.7017,-3.5813,-3.5402,-3.5708,-3.566,-3.5811,-3.6158,-3.6057,-3.5906,-3.5684,-3.5117,-3.4086,-3.2881,-3.2548,-3.1739,-3.0719,-3.0719,-3.0572,-3.0381,-3.0954,-3.1058,-3.0984,-3.0749,-3.0381,-2.9969,-2.9761,-2.926,-2.866,-2.8366,-2.7851,-2.7195,-2.6382,-2.59,-2.5456,-2.5028,-2.4529,-2.4083,-2.3674,-2.2574,-2.1502,-2.1095,-2.027,-1.9656,-1.9656,-1.9617,-1.9512,-1.942,-1.9565,-1.9668,-1.9772,-1.9617,-1.9512,-1.9512,-1.9473,-1.9368,-1.9328,-1.9328,-1.9316,-1.9263,-1.9263,-1.9263,-1.9263,-1.9158,-1.8827,-1.8213,-1.8147,-1.7765,-1.6989,-1.6888,-1.6935,-1.7106,-1.6487,-1.6489,-1.8846,-2.2016,-2.4813,-2.6698,-2.833,-2.9639,-3.0382,-3.1243,-3.2007,-3.2524,-3.2679,-3.3174,0.0,0.0,-3.8926,-3.9417,-4.1616,-4.3365,-4.3565,-4.3698,-4.4378,0.0,0.0,0.0,0.0,0.0,0.0,-4.6436,0.0,-4.4334,-4.4581,-4.2732,-4.1622,-4.1596,-4.0754,-3.9929,-3.9163,-3.8689,-3.7703,-3.6152,-3.5388,-3.4961,-3.4899,-3.4529,-3.4415,-3.4382,-3.4103,-3.3716,-3.3182,-3.206,-3.132,-3.08,-3.0253,-3.0068,-3.0011,-3.0011,-2.9486,-2.8993,-3.0192,-3.0616,-3.0513,-2.9973,-2.9753,-2.9444,-2.7689,-2.7474,-2.7442,-2.5599,-2.5398,-2.5539,-2.4901,-2.4728,-2.4742,-2.4742,-2.3897,-2.2993,-2.2706,-2.1479,-2.0321,-2.0042,-1.9681,-1.942,-1.9368,-1.9368,-1.9368,-1.9368,-1.9344,-1.9331,-1.9368,-1.9368,-1.9368,-1.9368,-1.9368,-1.9328,-1.9223,-1.9182,-1.9117,-1.8999,-1.8987,-1.8987,-1.8987,-1.8987,-1.8655,-1.8093,-1.8038,-1.7479,-1.6312,-1.6866,-1.6922,-1.6492,-1.6503,-1.6616,-1.9226,-2.1428,-2.3811,-2.5488,-2.6497,-2.7273,-2.8125,-2.9057,-2.9879,-3.0116,-3.0084,-3.0465,-3.2046,-3.4167,-3.6505,-3.8901,-4.2252,0.0,-4.6155,-4.6109,0.0,-4.7181,-4.6681,-4.6205,-4.6229,-4.6152,0.0,0.0,-4.456,-4.395,-4.4198,-4.3262,-4.2271,-4.1268,-4.0648,-3.9822,-3.8711,-3.7328,-3.619,-3.5212,-3.4341,-3.4133,-3.4561,-3.324,-3.2949,-3.3421,-3.2789,-3.2773,-3.3062,-3.2028,-3.1475,-3.1144,-3.0303,-2.9415,-2.867,-2.867,-2.8154,-2.7484,-2.7755,-2.8167,-2.8419,-2.8064,-2.7813,-2.7418,-2.659,-2.5902,-2.5351,-2.5169,-2.481,-2.4362,-2.3688,-2.3532,-2.3419,-2.3013,-2.263,-2.2314,-2.1821,-2.1211,-2.056,-2.008,-1.9681,-1.9368,-1.9275,-1.9223,-1.9223,-1.9105,-1.8766,-1.8697,-1.9319,-1.9328,-1.9223,-1.9223,-1.9158,-1.9105,-1.9052,-1.9052,-1.9052,-1.8987,-1.8987,-1.8987,-1.8987,-1.8548,-1.8038,-1.7424,-1.7424,-1.7034,-1.6312,-1.6472,-1.6472,-1.6368,-1.5921,-1.57,-2.0254,-2.1294,-2.2682,-2.3999,-2.4829,-2.5466,-2.5894,-2.6846,-2.7588,-2.7664,-2.8104,-2.8989,-3.0561,-3.3234,-3.5905,-3.81,0.0,0.0,-4.6086,-4.5884,-4.5972,-4.7152,-4.6409,-4.5737,-4.5594,-4.5597,-4.5322,0.0,-4.4008,-4.3668,-4.3828,-4.2517,-4.1472,-4.076,-4.0009,-3.8918,-3.7432,-3.6195,-3.5066,-3.4134,-3.3892,-3.3795,-3.386,-3.2805,-3.2676,-3.3321,0.0,-3.2512,-3.3003,-3.1934,-3.1104,-3.0448,-2.9678,-2.8656,-2.7613,-2.7613,-2.6933,-2.606,-2.606,-2.5923,-2.575,-2.6187,-2.6197,-2.5878,-2.4996,-2.4346,-2.3858,-2.3829,-2.354,-2.3174,-2.2774,-2.279,-2.2672,-2.2088,-2.1987,-2.189,-2.122,-2.0759,-2.0245,-1.9668,-1.9356,-1.921,-1.9117,-1.9105,-1.9117,-1.8987,-1.8734,-1.8662,-1.9004,-1.8642,-1.8416,-1.8416,-1.8353,-1.8386,-1.8626,-1.865,-1.8746,-1.8975,-1.8721,-1.8506,-1.8506,-1.7875,-1.7302,-1.6968,-1.6968,-1.6754,-1.6208,-1.6208,-1.6093,-1.5921,-1.5782,-1.5693,-2.1456,-2.151,-2.181,-2.2509,-2.328,-2.3808,-2.3827,-2.4729,-2.5515,-2.5435,-2.6712,-2.8296,-2.9773,-3.291,-3.5772,-3.7235,-3.9964,-4.2673,-4.4862,-4.4439,-4.4578,-4.6506,-4.5612,-4.4754,-4.4687,-4.4382,-4.397,-4.343,-4.3196,-4.3058,-4.3162,-4.1331,-4.0105,-3.9852,-3.872,-3.7376,-3.5813,-3.5055,-3.4143,-3.3047,-3.342,-3.3355,-3.2902,-3.2416,-3.2572,-3.3195,-3.2241,-3.2147,-3.2572,-3.1502,-3.0373,-2.9208,-2.8737,-2.7765,-2.6624,-2.654,-2.5783,-2.4735,-2.4651,-2.3853,-2.307,-2.4399,-2.4831,-2.462,-2.3273,-2.2874,-2.281,-2.223,-2.2091,-2.2091,-2.2091,-2.2214,-2.2218,-2.1677,-2.1677,-2.1579,-2.0801,-2.0258,-1.9747,-1.9093,-1.8934,-1.8934,-1.8893,-1.8881,-1.8881,-1.8881,-1.8821,-1.8667,-1.8454,-1.7942,-1.7494,-1.7422,-1.7482,-1.7685,-1.8068,-1.8163,-1.8402,-1.8857,-1.829,-1.7897,-1.7843,-1.709,-1.6631,-1.6574,-1.6518,-1.6312,-1.5941,-1.5941,-1.5768,-1.5371,-1.5741,-1.5986,-2.1574,-2.2183,-2.2767,-2.1907,-2.171,-2.1865,-2.2407,-2.3313,0.0,-2.4465,-2.6069,-2.7671,-2.8494,-3.0573,-3.3298,-3.6712,-3.8996,-4.1636,-4.5201,-4.4594,-4.4471,-4.6163,-4.52,-4.4157,-4.3541,-4.3704,0.0,0.0,-4.1033,-4.0856,-4.1487,-4.125,-3.9948,-3.7428,-3.6205,-3.5179,-3.4301,-3.351,-3.2994,-3.2788,-3.1718,-3.1422,-3.1823,-3.0386,-3.0101,-3.0783,-2.9864,0.0,-3.049,-2.9606,-2.9,-2.8479,-2.781,-2.6808,-2.5703,-2.5175,-2.4364,-2.3414,-2.2947,-2.2305,-2.1841,-2.2865,-2.33,-2.3245,-2.2069,-2.1863,-2.1979,-2.1643,-2.1568,-2.1568,-2.1568,-2.1588,-2.1532,-2.145,-2.1233,-2.0964,-2.0822,-2.0207,-1.9448,-1.8827,-1.8667,-1.856,-1.8302,-1.8247,-1.8247,-1.8247,-1.7866,-1.7578,-1.7537,-1.802,-1.8125,-1.7496,-1.7728,-1.7843,-1.756,-1.7866,-1.8155,-1.8236,-1.8139,-1.7909,-1.7501,-1.6877,-1.6368,-1.6036,-1.5526,-1.5254,-1.5205,-1.5205,-1.5147,-1.5088,-1.5164,-1.535,-2.2335,-2.279,-2.3252,-2.2586,-2.2106,-2.1686,-2.1351,0.0,0.0,-2.356,-2.5661,-2.7671,-2.8233,-3.0803,-3.3601,-3.5883,-3.8287,-4.082,-4.3578,-4.3286,-4.3352,-4.4826,-4.3686,-4.2701,-4.245,-4.223,-4.1699,-4.0697,-3.99,-3.9834,-4.06,-3.9494,-3.7748,-3.5456,-3.4943,-3.4381,-3.3721,-3.3057,-3.242,-3.17,-3.1149,-3.0847,-3.0751,-2.9927,-2.991,-3.0474,-2.972,-2.9717,-3.0308,-2.9881,-2.9078,-2.7968,-2.7306,-2.6136,-2.471,-2.4026,-2.3255,-2.2558,-2.221,-2.1726,-2.1282,-2.1727,-2.2005,-2.2131,-2.1553,-2.1471,-2.1568,-2.1423,-2.1423,-2.1423,-2.1423,-2.1068,-2.0723,-2.061,-1.9991,-1.9371,-1.9371,-1.9069,-1.8721,-1.8398,-1.8356,-1.8302,-1.8139,-1.8084,-1.8084,-1.8084,-1.7867,-1.7653,-1.7546,-1.787,-1.784,-1.6997,-1.7134,-1.7294,-1.7358,-1.7523,-1.7787,-1.8073,-1.7744,-1.7335,-1.6877,-1.6197,-1.5642,-1.5196,-1.4911,-1.4793,-1.4843,-1.4843,-1.4902,-1.498,-1.5188,-1.539,-2.3408,-2.3407,-2.3555,-2.3415,-2.2609,-2.1635,-2.0596,-2.1618,-2.2886,-2.3056,-2.5388,-2.7573,-2.8135,-3.08,-3.34,0.0,-3.6899,-3.9213,-4.1962,-4.1866,-4.1985,-4.3378,-4.2268,0.0,-4.1179,-4.0545,0.0,-3.9389,-3.8636,-3.8483,-3.9146,-3.7116,-3.5313,-3.3891,-3.3973,-3.3731,-3.3063,-3.2614,-3.1781,-3.0635,-3.0768,-3.0432,-2.9735,-2.9735,-2.9969,-3.0323,-2.9637,-2.9555,-2.9937,-2.9747,-2.8662,-2.7126,-2.6512,-2.536,-2.3906,-2.307,-2.2454,-2.2038,-2.1765,-2.1369,-2.0997,-2.0997,-2.1131,-2.1326,-2.1326,-2.1326,-2.1326,-2.1326,-2.1326,-2.1326,-2.1326,-2.0772,-2.0118,-1.9695,-1.8857,-1.8182,-1.8139,-1.8084,-1.8084,-1.8041,-1.803,-1.7986,-1.792,-1.7931,-1.7931,-1.7931,-1.7931,-1.7877,-1.7656,-1.7601,-1.7355,-1.6757,-1.6667,-1.678,-1.7115,-1.724,-1.7478,-1.7897,-1.7357,-1.6832,-1.6255,-1.5633,-1.5069,-1.4506,-1.4515,-1.4497,-1.4538,-1.4538,-1.4597,-1.4675,-1.4981,-1.5219,-2.4595,-2.3978,-2.3611,-2.3572,-2.2064,-2.0552,-2.0347,-2.1087,-2.221,-2.3466,-2.5162,-2.6674,-2.7531,-2.8269,-2.9962,0.0,0.0,-3.5711,-4.1713,-4.1199,-4.0799,-4.2426,0.0,0.0,-3.9481,-3.8776,-3.8101,-3.7326,-3.6245,-3.5687,-3.5837,-3.4708,-3.3642,-3.2769,-3.2752,-3.2427,-3.1684,-3.1223,-3.0709,-3.0136,-2.9794,-2.9372,-2.8888,-2.8888,-2.8919,-2.8935,-2.814,-2.7829,0.0,-2.6934,-2.6196,-2.5461,-2.4867,-2.4225,-2.3513,-2.2398,-2.1952,-2.1832,-2.1249,-2.1037,-2.0997,-2.0997,-2.1033,-2.1033,-2.1033,-2.1033,-2.1033,-2.1033,-2.1033,-2.1033,-2.1033,-2.061,-1.9978,-1.9032,-1.8715,-1.8525,-1.8182,-1.8084,-1.803,-1.7767,-1.7767,-1.7656,-1.7445,-1.7379,-1.7379,-1.7379,-1.7379,-1.739,-1.7334,-1.7334,-1.7301,-1.7203,-1.7247,-1.7027,-1.6611,-1.6994,-1.7335,-1.7379,-1.7334,-1.6864,-1.5989,-1.5874,-1.542,-1.4515,-1.4515,-1.4387,-1.407,-1.407,-1.3941,-1.3631,-1.37,-1.389,-2.5457,-2.4896,-2.424,-2.3718,-2.235,-2.106,-2.0773,-2.1191,-2.2081,-2.3671,-2.5139,-2.6509,-2.7561,-2.8595,-2.9962,0.0,0.0,0.0,-3.8596,-3.8687,-3.8999,-4.0841,-4.0146,-3.9177,0.0,0.0,-3.6826,-3.5639,-3.49,-3.4248,-3.358,-3.3477,-3.2986,-3.1978,-3.1961,-3.1807,-3.1517,-3.1021,-3.0723,-3.0502,-2.9853,-2.935,-2.9075,-2.8389,-2.7984,-2.7797,-2.7057,-2.6719,0.0,-2.623,-2.5725,-2.5132,-2.4211,-2.3533,-2.2945,-2.172,-2.1319,-2.1228,-2.0941,-2.0799,-2.0799,-2.0799,-2.0799,-2.0848,-2.0947,-2.0997,-2.0997,-2.0997,-2.0997,-2.0997,-2.0997,-2.0308,-1.9307,-1.8255,-1.782,-1.76,-1.7357,-1.7312,-1.7312,-1.7211,-1.7145,-1.7099,-1.7043,-1.6987,-1.6987,-1.6987,-1.6987,-1.6987,-1.6987,-1.6987,-1.6987,-1.6987,-1.7088,-1.7058,-1.6994,-1.6634,-1.6513,-1.6549,-1.614,-1.5565,-1.4923,-1.4864,-1.4579,-1.3881,-1.3881,-1.3821,-1.37,-1.37,-1.3631,-1.3511,-1.3476,-1.3597,-2.5951,-2.5624,-2.5139,-2.4387,-2.3041,-2.169,-2.1101,-2.1319,-2.2152,-2.372,-2.5122,-2.6434,-2.7653,-2.8828,-2.9951,0.0,0.0,-3.3633,-3.6344,-3.6948,-3.7702,-3.93,0.0,-3.8135,-3.7218,-3.6415,-3.5454,-3.4243,-3.3912,-3.3303,-3.2283,-3.2441,-3.2223,-3.144,-3.1402,-3.13,-3.1079,-3.0757,-3.0329,-2.9814,-2.9205,-2.8713,-2.8292,-2.7503,-2.7011,-2.6794,-2.6123,-2.5788,0.0,-2.5455,-2.5047,-2.4479,-2.3482,-2.2754,-2.2191,-2.1219,-2.0838,-2.0788,-2.0662,-2.0495,-2.0302,-2.0302,-2.0234,-2.009,-2.0237,-2.0571,-2.0858,-2.0637,-2.0584,-2.0424,-2.0114,-1.9519,-1.8697,-1.7567,-1.7134,-1.6909,-1.6807,-1.6818,-1.6818,-1.6818,-1.6818,-1.6818,-1.6818,-1.6701,-1.6648,-1.6797,-1.669,-1.6648,-1.6797,-1.6637,-1.6524,-1.6524,-1.6436,-1.6492,-1.6864,-1.6104,-1.5623,-1.5718,-1.5196,-1.4678,-1.4213,-1.4213,-1.3974,-1.3502,-1.3511,-1.345,-1.3338,-1.3338,-1.3338,-1.3216,-1.3252,-1.3252,-2.6046,-2.5928,-2.6182,-2.5695,-2.4027,-2.2174,-2.1066,-2.1432,-2.2356,-2.3654,-2.5014,-2.6375,-2.7595,-2.8299,-2.9246,-3.0925,-3.1198,0.0,-3.5826,-3.6643,-3.7184,-3.7946,-3.8546,-3.8148,-3.6289,-3.4921,-3.3856,-3.3158,-3.3104,0.0,-3.2144,-3.1409,-3.1063,-3.1213,-3.119,-3.0852,-3.0125,-3.0125,-2.9243,-2.7524,-2.7524,-2.702,-2.6032,-2.6032,-2.6032,-2.6001,-2.5317,-2.4984,0.0,-2.4126,-2.3553,-2.3053,-2.2388,-2.1827,-2.1388,-2.0898,-2.0612,-2.0511,-2.0511,-2.0036,-1.94,-1.94,-1.9076,-1.8613,-1.8613,-1.959,-2.0531,-1.9846,-1.9545,-1.9143,-1.8017,-1.8137,-1.8201,-1.7088,-1.6818,-1.6818,-1.6818,-1.6818,-1.6818,-1.6818,-1.6818,-1.6818,-1.6818,-1.6424,-1.6265,-1.6743,-1.6414,-1.6286,-1.6754,-1.6285,-1.5931,-1.5931,-1.5206,-1.5031,-1.5874,-1.5332,-1.4904,-1.4904,-1.4904,-1.4678,-1.4213,-1.4213,-1.3974,-1.3502,-1.3511,-1.3338,-1.2989,-1.2989,-1.2867,-1.2621,-1.2621,-1.2621,-2.5774,-2.5865,-2.595,-2.535,-2.4309,-2.324,-2.2358,-2.2051,-2.2498,-2.4499,-2.5415,-2.6286,-2.7743,-2.8784,-2.9805,-3.0884,-3.2019,0.0,0.0,-3.6199,-3.683,-3.6585,-3.5957,-3.5259,0.0,0.0,-3.2823,-3.2179,-3.2156,-3.1639,-3.0471,-3.0176,-3.0109,-3.0236,-2.9748,-2.9379,-2.9143,-2.9143,-2.8858,-2.8301,-2.7656,-2.7185,-2.6871,-2.5782,-2.5288,-2.5153,-2.4487,-2.39,-2.3438,-2.3606,-2.3313,-2.2799,-2.2581,-2.1967,-2.1112,-2.0576,-1.986,-1.9188,-1.9188,-1.9072,-1.887,-1.887,-1.8742,-1.8601,-1.8601,-1.8905,-1.9274,-1.9433,-1.9117,-1.8647,-1.7954,-1.7873,-1.7632,-1.6502,-1.6451,-1.6637,-1.6545,-1.6294,-1.6064,-1.6064,-1.5813,-1.5593,-1.5593,-1.5468,-1.5415,-1.5572,-1.5457,-1.5426,-1.5572,-1.5295,-1.4966,-1.477,-1.393,-1.3798,-1.4772,-1.4286,-1.3859,-1.3767,-1.3476,-1.3268,-1.3094,-1.3094,-1.3042,-1.292,-1.2858,-1.2858,-1.2744,-1.2744,-1.2683,-1.2621,-1.2621,-1.2621,0.0,-2.5712,-2.6,-2.4577,-2.3867,-2.3424,-2.281,-2.2446,-2.2811,-2.4851,-2.5552,-2.6361,-2.8191,-2.9269,-3.0087,-3.0858,-3.2155,-3.3367,-3.4225,-3.5642,-3.6539,-3.6383,-3.4947,0.0,0.0,-3.305,-3.2254,-3.1667,-3.1613,-3.1052,-2.9791,-2.9362,-2.9111,-2.9005,-2.8816,-2.8582,-2.8297,-2.8297,-2.8035,-2.7549,-2.6981,-2.651,-2.6141,-2.5145,-2.4589,-2.4282,-2.3578,-2.3026,0.0,-2.2691,-2.2429,-2.1894,-2.1932,-2.129,-2.0329,-1.9946,-1.9271,-1.8508,-1.8508,-1.8367,-1.8155,-1.8155,-1.8002,-1.7823,-1.7823,-1.8022,-1.8265,-1.8396,-1.809,-1.7642,-1.69,-1.6976,-1.6939,-1.5838,-1.5928,-1.6165,-1.5953,-1.5708,-1.5571,-1.5571,-1.5334,-1.5139,-1.5139,-1.4851,-1.4738,-1.4914,-1.4738,-1.4583,-1.4536,-1.4247,-1.3857,-1.3422,-1.2634,-1.2379,-1.2946,-1.2864,-1.272,-1.2605,-1.2474,-1.2436,-1.2436,-1.2436,-1.2436,-1.2436,-1.2436,-1.2436,-1.2436,-1.2428,-1.2421,-1.2421,-1.2428,-1.2382,0.0,-2.5342,-2.6035,-2.351,-2.2915,-2.2902,-2.2739,0.0,0.0,-2.491,-2.565,-2.6673,-2.8925,-2.9755,-3.0303,-3.0976,-3.1974,-3.2894,-3.3587,-3.506,-3.6248,-3.6869,-3.5137,-3.3862,-3.3743,-3.2855,-3.198,-3.1278,-3.1225,-3.0741,-2.961,-2.8667,-2.7928,-2.7448,-2.8028,-2.8076,-2.749,-2.749,-2.6906,-2.5738,-2.5652,-2.5128,-2.4266,-2.4194,-2.383,0.0,-2.2678,-2.2298,0.0,-2.1621,-2.1097,-2.0584,-2.0626,-2.0045,-1.9239,-1.9194,-1.8819,-1.83,-1.8266,-1.7831,-1.7325,-1.7325,-1.6961,-1.6479,-1.6479,-1.6973,-1.7435,-1.6983,-1.6708,-1.6338,-1.5304,-1.576,-1.6191,-1.5154,-1.5297,-1.5535,-1.5132,-1.5178,-1.5345,-1.5375,-1.5355,-1.5334,-1.5334,-1.4643,-1.4236,-1.4663,-1.4225,-1.3838,-1.3723,-1.3168,-1.2604,-1.1989,-1.1391,-1.0931,-1.0586,-1.1207,-1.1606,-1.1583,-1.192,-1.2127,-1.2127,-1.2127,-1.2127,-1.2127,-1.2127,-1.2127,-1.2127,-1.2097,-1.2089,-1.2089,-1.212,-1.2073,-2.4158,0.0,-2.3912,-2.2846,-2.2529,-2.2849,0.0,0.0,0.0,0.0,0.0,-2.8319,-2.9528,-3.0839,-3.181,-3.2019,-3.3824,-3.502,-3.4639,-3.5119,-3.5459,-3.5418,-3.3943,-3.2498,-3.1421,-3.1084,-3.03,-2.8722,-2.8556,-2.7792,-2.6147,-2.5846,-2.5456,-2.4896,-2.5063,-2.5612,-2.6524,-2.6379,-2.6244,-2.6079,-2.5037,-2.434,-2.3904,-2.286,-2.2209,-2.1884,-2.1721,0.0,-2.0858,-2.1252,-2.1009,-2.0494,-2.0895,-2.0438,-1.9475,-1.9055,-1.8302,-1.7433,-1.6999,-1.6748,-1.6604,-1.6516,-1.6386,-1.6275,-1.6275,-1.6492,-1.6854,-1.7147,-1.6883,-1.6396,-1.582,-1.5808,-1.5642,-1.4562,-1.4655,-1.5055,-1.5192,-1.4996,-1.4871,-1.5169,-1.4958,-1.4727,-1.4727,-1.4546,-1.4278,-1.3932,-1.3542,-1.3167,-1.2905,-1.2215,-1.1668,-1.149,-1.0919,-1.0415,-1.0038,-1.0963,-1.1506,-1.1238,-1.179,-1.2127,-1.2127,-1.2127,-1.2127,-1.2127,-1.2127,-1.2127,-1.2127,-1.2097,-1.2097,-1.212,-1.2081,-1.2081,-2.5023,-2.4339,-2.3453,-2.3163,-2.3374,-2.3926,-2.5056,0.0,0.0,0.0,0.0,-2.8974,-3.0239,-3.1828,-3.3086,-3.3478,-3.5072,-3.6083,-3.5661,-3.5046,-3.4621,-3.4504,-3.2991,-3.1609,0.0,-3.0219,-2.9302,-2.7777,-2.7297,-2.6493,-2.5149,-2.4936,-2.4684,-2.4382,-2.4193,-2.4381,-2.4968,-2.4846,-2.4846,-2.4968,-2.4227,-2.3711,-2.3364,-2.2485,-2.187,-2.1475,-2.102,0.0,-2.0284,-2.0314,-2.0123,-1.9806,-2.0118,-1.9623,-1.8726,-1.8385,-1.7657,-1.6778,-1.6448,-1.6318,-1.6318,-1.6244,-1.62,-1.62,-1.62,-1.6088,-1.6081,-1.6455,-1.6109,-1.5568,-1.5148,-1.4936,-1.4694,-1.3889,-1.4185,-1.4682,-1.4669,-1.4703,-1.4839,-1.5079,-1.4875,-1.4607,-1.4315,-1.4105,-1.3755,-1.3123,-1.2833,-1.2511,-1.2108,-1.1691,-1.1303,-1.1021,-1.0568,-1.026,-1.0184,-1.0778,-1.1068,-1.0887,-1.1503,-1.1872,-1.1872,-1.1872,-1.1872,-1.1872,-1.1872,-1.1872,-1.1872,-1.1864,-1.1864,-1.1872,-1.1887,-1.1887,-2.5986,-2.4949,-2.3802,-2.3788,-2.4716,-2.5685,-2.6044,0.0,0.0,0.0,0.0,0.0,-3.0854,-3.2491,-3.3899,-3.4825,-3.5947,-3.6676,-3.6611,-3.5174,-3.4057,-3.3862,-3.2199,0.0,-3.055,-2.9601,-2.8525,-2.7379,-2.6551,-2.5771,-2.495,-2.4648,-2.4476,-2.4401,-2.4042,-2.3603,-2.3174,-2.3419,-2.3533,-2.3499,-2.3367,-2.3095,-2.2706,-2.2259,-2.1804,-2.1227,0.0,0.0,-1.986,-1.9257,-1.9026,-1.9064,-1.9026,-1.8592,-1.7908,-1.7707,-1.7173,-1.6522,-1.6275,-1.6156,-1.6156,-1.6156,-1.6156,-1.6156,-1.6156,-1.5812,-1.549,-1.5513,-1.513,-1.4617,-1.4107,-1.3976,-1.379,-1.3308,-1.3852,-1.4375,-1.4032,-1.4506,-1.4982,-1.5041,-1.5051,-1.4827,-1.4184,-1.3784,-1.3332,-1.2526,-1.2251,-1.1962,-1.1516,-1.1316,-1.1107,-1.071,-1.0368,-1.0287,-1.0565,-1.0631,-1.066,-1.066,-1.1291,-1.1622,-1.1622,-1.1622,-1.1622,-1.1622,-1.1622,-1.156,-1.156,-1.1553,-1.156,-1.1498,-1.1498,-1.1498,-2.5743,-2.4389,-2.3801,-2.3802,-2.5618,-2.7903,-2.9835,0.0,0.0,0.0,0.0,0.0,0.0,-3.2293,-3.3592,-3.5092,-3.6591,-3.7618,-3.7581,-3.6176,-3.4641,-3.3235,0.0,-3.0236,-2.9284,-2.8171,-2.7056,-2.5977,-2.497,-2.4031,-2.3224,-2.3136,-2.2942,-2.2604,-2.2587,-2.227,-2.1633,-2.2997,-2.3601,-2.3499,-2.273,-2.2202,-2.1859,-2.1089,-2.0391,-1.9812,0.0,-1.9217,-1.8965,-1.8701,-1.8697,-1.8822,-1.8659,-1.8606,-1.8539,-1.768,-1.7271,-1.7063,-1.6281,-1.5957,-1.5881,-1.5881,-1.5881,-1.5881,-1.5881,-1.5792,-1.5736,-1.5748,-1.5266,-1.4617,-1.4107,-1.3973,-1.3836,-1.3268,-1.3502,-1.3898,-1.4037,-1.4488,-1.4949,-1.5244,-1.5322,-1.5139,-1.4554,-1.4381,-1.3915,-1.2647,-1.2233,-1.1925,-1.1615,-1.1041,-1.0805,-1.1027,-1.0711,-1.0536,-1.0587,-1.0836,-1.1004,-1.1004,-1.1417,-1.1622,-1.1622,-1.1622,-1.1622,-1.1622,-1.1622,-1.1498,-1.1365,-1.1351,-1.1288,-1.1185,-1.1185,-1.1185,-2.8121,-2.6004,-2.5199,-2.9012,-3.0617,-3.1345,-3.1727,0.0,0.0,0.0,0.0,0.0,0.0,0.0,-3.5252,-3.7323,-3.7835,-3.778,-3.7264,-3.5358,-3.3568,0.0,0.0,-2.9521,-2.8863,-2.7578,-2.6405,-2.5561,-2.4295,-2.3336,-2.2781,-2.2712,-2.2615,-2.2436,-2.2027,-2.1606,-2.1127,-2.1319,-2.1598,-2.2048,-2.1611,-2.1318,-2.1133,-2.0531,-1.996,-1.9493,0.0,-1.8936,-1.862,-1.8556,-1.8542,-1.862,-1.8556,-1.8411,-1.8147,-1.7201,-1.671,-1.6454,-1.6044,-1.5836,-1.5792,-1.5792,-1.5792,-1.5792,-1.5792,-1.5614,-1.5379,-1.5051,-1.4766,-1.4433,-1.4201,-1.393,-1.3628,-1.3125,-1.3667,-1.4243,-1.415,-1.4658,-1.5176,-1.5371,-1.5118,-1.4706,-1.4043,-1.3614,-1.3009,-1.1973,-1.1667,-1.1446,-1.1351,-1.1052,-1.0931,-1.1074,-1.0809,-1.0687,-1.0859,-1.0852,-1.097,-1.1204,-1.1348,-1.1435,-1.131,-1.131,-1.131,-1.131,-1.131,-1.131,-1.1185,-1.1185,-1.1185,-1.1122,-1.1073,-1.1073,-3.03,-2.7603,-2.6284,-3.2411,0.0,-3.3703,-3.3405,-3.2519,0.0,0.0,0.0,0.0,0.0,-3.5224,-3.6589,-3.8539,-3.8319,-3.7561,-3.6659,-3.4228,-3.2273,-3.1506,-3.0109,-2.902,-2.8534,-2.7191,-2.6072,-2.5331,-2.3957,-2.3045,-2.2764,-2.2487,-2.2348,-2.2321,-2.1559,-2.0994,-2.0723,-1.9913,-1.9857,-2.0606,-2.0492,-2.0503,-2.0644,-2.0323,-1.9995,-1.9639,-1.9273,-1.8912,-1.8542,-1.8439,-1.84,-1.8439,-1.84,-1.8016,-1.7475,-1.668,-1.6088,-1.5703,-1.5659,-1.5659,-1.5659,-1.5659,-1.5659,-1.5614,-1.5501,-1.5232,-1.4869,-1.4351,-1.4193,-1.4153,-1.401,-1.3707,-1.3377,-1.3056,-1.3873,-1.4586,-1.4192,-1.4648,-1.505,-1.505,-1.4579,-1.3923,-1.326,-1.2634,-1.2027,-1.1365,-1.1185,-1.1122,-1.1122,-1.1122,-1.1122,-1.1122,-1.0849,-1.08,-1.1108,-1.0842,-1.0868,-1.1163,-1.124,-1.1185,-1.1122,-1.1122,-1.1122,-1.1122,-1.1122,-1.1059,-1.1059,-1.101,-1.101,-1.0996,-1.0954,-1.0954,-3.0567,-2.7918,-2.596,-2.9353,-3.1374,0.0,-3.5781,-3.4182,0.0,-3.5186,0.0,0.0,0.0,-3.4965,-3.6272,-3.659,-3.6994,-3.6979,-3.6168,0.0,-3.1556,-3.0672,-2.9758,-2.8839,-2.7934,-2.6854,-2.5855,-2.5008,-2.3797,-2.3045,-2.2876,-2.2065,-2.1558,-2.1481,-2.0763,-2.0204,-1.9889,-1.9796,-1.9849,-2.0061,-1.9752,-1.9903,-2.0527,-2.0494,-2.0308,-2.003,-1.9427,-1.9035,-1.8745,-1.8189,-1.8043,-1.8202,-1.8003,-1.7543,-1.6876,-1.6262,-1.5824,-1.5468,-1.5244,-1.5153,-1.5153,-1.5153,-1.5153,-1.5096,-1.4698,-1.4549,-1.4468,-1.4107,-1.3938,-1.3731,-1.3164,-1.3143,-1.3292,-1.3263,-1.3819,-1.4336,-1.4298,-1.4157,-1.4085,-1.4085,-1.3545,-1.2887,-1.2197,-1.2074,-1.1834,-1.1178,-1.1122,-1.1122,-1.1122,-1.1122,-1.1122,-1.1122,-1.1108,-1.1101,-1.1122,-1.1108,-1.0975,-1.087,-1.0996,-1.1122,-1.1122,-1.1122,-1.1122,-1.1122,-1.1122,-1.0996,-1.0807,-1.0807,-1.0744,-1.0624,-1.0624,-1.0624,-3.0625,-2.9473,-2.885,-3.1172,-3.1497,0.0,0.0,-3.5299,-3.5198,-3.6169,-3.6198,0.0,0.0,0.0,-3.5741,-3.5729,-3.5829,-3.5534,-3.4525,-3.2966,-3.139,-2.9935,-2.8916,-2.8,-2.7148,-2.6155,-2.5357,-2.4823,-2.3504,-2.2564,-2.2163,-2.1337,-2.0818,-2.0679,-1.983,-1.935,-1.9309,-1.8601,-1.8765,-1.9743,-1.9714,-1.9735,-1.982,-2.0206,-2.0185,-1.9818,-1.9347,-1.8936,-1.8592,-1.8109,-1.7922,-1.8003,-1.7922,-1.7378,-1.6607,-1.6411,-1.5844,-1.5244,-1.5153,-1.5108,-1.5108,-1.5108,-1.4949,-1.4698,-1.4549,-1.4376,-1.4097,-1.3637,-1.3667,-1.3771,-1.3521,-1.3717,-1.386,-1.3603,-1.4183,-1.4542,-1.3853,-1.3875,-1.3906,-1.3485,-1.2818,-1.232,-1.2012,-1.1593,-1.117,-1.0926,-1.0807,-1.0807,-1.0807,-1.0807,-1.0807,-1.0807,-1.0807,-1.0807,-1.0807,-1.0807,-1.0751,-1.0681,-1.0807,-1.087,-1.0807,-1.0807,-1.0548,-1.0098,-1.0098,-0.9888,-0.9354,-0.9378,-0.9314,-0.9291,-0.9314,-0.9262,-3.0664,-3.0221,-3.0402,-3.2872,0.0,0.0,-3.4711,-3.5782,-3.6407,-3.6944,-3.6426,-3.571,-3.5114,0.0,0.0,0.0,-3.44,-3.393,-3.2918,-3.1637,-3.0238,-2.8695,-2.7883,-2.7093,-2.62,-2.533,-2.4581,-2.4091,-2.2805,-2.1882,-2.1528,-2.0611,-2.0026,-1.9877,-1.8961,-1.8508,-1.8595,-1.7823,-1.7913,-1.8915,-1.9344,-1.9657,-1.9857,-2.0156,-2.0166,-1.9869,-1.9325,-1.8936,-1.863,-1.8069,-1.7693,-1.7464,-1.7103,-1.6528,-1.5899,-1.558,-1.5069,-1.4538,-1.4449,-1.4518,-1.4654,-1.4654,-1.4563,-1.4422,-1.419,-1.3909,-1.3637,-1.3025,-1.3135,-1.3496,-1.3633,-1.3959,-1.4157,-1.3885,-1.4354,-1.4591,-1.3579,-1.3424,-1.3304,-1.2642,-1.2027,-1.1593,-1.1593,-1.1108,-1.0744,-1.0744,-1.0681,-1.0624,-1.0624,-1.0624,-1.0624,-1.0624,-1.0364,-1.0231,-1.0231,-1.004,-0.9913,-0.9849,-0.9907,-1.0168,-1.0561,-1.0364,-1.004,-0.9518,-0.9518,-0.918,-0.8516,-0.8458,-0.8458,-0.8516,-0.842,-0.8431,-3.0759,-2.9894,-2.9916,0.0,0.0,0.0,-3.533,-3.5596,-3.5984,-3.7641,-3.5957,-3.4147,-3.4101,-3.3429,0.0,-3.2947,-3.269,-3.2213,-3.146,-2.9578,-2.7923,-2.6896,-2.6726,-2.6252,-2.5172,-2.4348,-2.3547,-2.2763,-2.1631,-2.1022,-2.1084,-1.9878,-1.9195,-1.919,-1.8212,-1.771,-1.771,-1.771,-1.7595,-1.7417,-1.847,-1.9617,-2.0778,-2.046,-2.0304,-2.027,-1.9472,-1.9101,-1.9026,-1.8069,-1.7304,-1.6598,-1.5376,-1.4826,-1.458,-1.3662,-1.3305,-1.3264,-1.3026,-1.3281,-1.3707,-1.3707,-1.4013,-1.4233,-1.3457,-1.3218,-1.3025,-1.2314,-1.2411,-1.2816,-1.3186,-1.37,-1.4119,-1.4119,-1.4329,-1.4318,-1.364,-1.2948,-1.2328,-1.1608,-1.0996,-1.0624,-1.0624,-1.0624,-1.0624,-1.0624,-1.0624,-1.0624,-1.0561,-1.0624,-1.0624,-1.0561,-0.9907,-0.9518,-0.9518,-0.8877,-0.8425,-0.8236,-0.8166,-0.8877,-1.0498,-0.9843,-0.9454,-0.9454,-0.9454,-0.9134,-0.849,-0.8243,-0.8313,-0.849,-0.8247,-0.8312,-3.3431,-3.1823,0.0,-3.2539,0.0,0.0,0.0,-3.597,0.0,0.0,-3.4434,-3.2398,-3.2943,-3.1891,0.0,-3.0887,-3.0333,-2.9768,-2.9339,-2.8233,-2.7065,-2.6004,-2.5239,-2.4419,-2.3499,-2.2558,-2.1896,-2.1662,-2.0809,-2.0245,-2.0121,-1.9219,-1.8572,-1.8273,-1.7957,-1.7726,-1.7635,-1.7589,-1.785,-1.8391,-1.8227,-1.854,-1.9279,-1.9875,-2.015,-2.0115,-1.9545,-1.9139,-1.8822,-1.7922,-1.7423,-1.7183,-1.6441,-1.5936,-1.555,-1.4815,-1.437,-1.4082,-1.3992,-1.4045,-1.4176,-1.4176,-1.3882,-1.3505,-1.3266,-1.2832,-1.2363,-1.2175,-1.2411,-1.2816,-1.3186,-1.3309,-1.3438,-1.42,-1.4423,-1.4198,-1.307,-1.2634,-1.2205,-1.1052,-1.0751,-1.0624,-1.0624,-1.0624,-1.0561,-1.0428,-1.0371,-1.0371,-1.0174,-1.0301,-1.0308,-1.018,-0.9582,-0.9122,-0.9122,-0.8544,-0.8096,-0.8096,-0.7577,-0.7707,-0.8737,-0.8544,-0.8221,-0.7702,-0.7702,-0.7316,-0.6671,-0.6593,-0.6593,-0.6671,-0.6609,-0.6609,-3.4641,-3.3283,0.0,-3.3306,-3.3286,-3.3188,-3.4908,0.0,0.0,0.0,-3.3391,-3.1385,-3.1832,-3.0826,0.0,-2.9953,-2.9204,-2.8348,-2.766,-2.6983,-2.6171,-2.5153,-2.4448,-2.3725,-2.2827,-2.1812,-2.1079,-2.0797,-1.9872,-1.931,-1.9268,-1.8711,-1.8287,-1.8078,-1.7966,-1.7856,-1.7681,-1.7652,-1.7997,-1.875,-1.8219,-1.8223,-1.8738,-1.9379,-1.9649,-1.963,-1.9317,-1.8769,-1.8044,-1.7192,-1.6651,-1.6256,-1.5464,-1.5092,-1.4868,-1.4205,-1.3758,-1.3543,-1.374,-1.3805,-1.3793,-1.3887,-1.37,-1.3372,-1.3084,-1.2706,-1.2332,-1.2126,-1.225,-1.2525,-1.2663,-1.2613,-1.2794,-1.3841,-1.3881,-1.339,-1.2336,-1.2089,-1.1779,-1.0807,-1.0624,-1.0561,-1.0498,-1.0498,-1.0428,-1.0238,-0.9977,-0.9709,-0.9646,-0.9454,-0.9326,-0.9198,-0.8608,-0.8151,-0.8151,-0.7572,-0.712,-0.7051,-0.6662,-0.6531,-0.6924,-0.7377,-0.7381,-0.6924,-0.6924,-0.6601,-0.5888,-0.5822,-0.5822,-0.5888,-0.5822,-0.5822,-3.473,-3.4361,-3.3429,-3.5309,-3.4883,0.0,-3.4381,-3.3765,-3.3414,-3.4432,0.0,-3.094,-3.0791,-3.0114,-2.9589,-2.9715,-2.8857,-2.7698,-2.6408,-2.585,-2.5226,-2.4301,-2.4118,-2.3657,-2.2683,-2.1616,-2.0705,-2.0028,-1.8955,-1.841,-1.8585,-1.8351,-1.8229,-1.827,-1.8159,-1.8027,-1.7811,-1.7789,-1.8068,-1.8684,-1.8257,-1.8319,-1.8786,-1.8964,-1.9004,-1.8967,-1.8717,-1.8021,-1.7013,-1.6147,-1.5343,-1.454,-1.339,-1.3156,-1.3366,-1.2564,-1.2272,-1.2342,-1.2737,-1.2922,-1.2989,-1.3125,-1.3432,-1.3631,-1.2958,-1.2725,-1.2578,-1.2175,-1.2076,-1.2059,-1.1931,-1.1824,-1.2044,-1.3017,-1.2838,-1.2289,-1.16,-1.1483,-1.1303,-1.0688,-1.0561,-1.0491,-1.0238,-1.0174,-1.011,-0.9849,-0.9256,-0.886,-0.886,-0.8345,-0.7962,-0.7962,-0.7312,-0.6859,-0.6859,-0.621,-0.5756,-0.5617,-0.555,-0.5554,-0.5428,-0.6276,-0.6798,-0.6798,-0.6798,-0.6474,-0.5826,-0.562,-0.555,-0.5756,-0.5484,-0.5484,-3.4757,-3.543,0.0,-3.5566,-3.5232,-3.4051,-3.0999,-2.9451,-2.943,-3.2086,-3.1674,-3.0602,-2.9807,-2.9446,-2.9089,-2.8494,-2.7676,-2.6747,-2.5745,-2.506,-2.4321,-2.3382,-2.3125,-2.2465,-2.106,-1.9993,-1.9327,-1.9165,-1.8768,-1.8547,-1.8585,-1.8391,-1.8246,-1.8138,-1.8113,-1.8031,-1.7883,-1.7635,-1.7861,0.0,-1.7468,-1.7316,-1.7991,-1.8843,-1.9055,-1.8687,-1.7582,-1.6951,-1.6633,-1.5885,-1.5459,-1.5201,-1.4196,-1.3902,-1.3918,-1.3011,-1.2691,-1.2748,-1.2857,-1.3193,-1.3554,-1.3564,-1.3443,-1.3314,-1.3132,-1.2696,-1.2224,-1.2126,-1.2076,-1.2009,-1.1765,-1.1321,-1.0981,-1.1211,-1.1742,-1.2007,-1.1494,-1.1428,-1.1296,-1.0491,-1.0371,-1.0104,-0.9384,-0.9256,-0.9058,-0.8291,-0.8096,-0.7897,-0.7772,-0.7772,-0.7707,-0.7512,-0.6924,-0.6531,-0.6531,-0.5881,-0.5495,-0.5425,-0.5425,-0.5425,-0.5428,-0.5624,-0.5752,-0.5752,-0.5752,-0.5624,-0.5495,-0.4888,-0.4616,-0.4607,-0.4015,-0.3749,-3.2844,0.0,0.0,-3.5474,0.0,-3.1523,-2.9383,-2.6981,-2.5474,-2.6443,-2.6859,-2.7474,-2.8866,-2.9052,-2.8698,-2.7809,-2.6857,-2.5882,-2.4866,-2.4116,-2.3492,-2.3015,-2.2776,-2.2114,-2.0779,-2.0423,-1.9956,-1.9144,-1.8878,-1.8695,-1.8545,-1.845,-1.833,-1.8215,-1.8201,-1.8121,-1.7988,-1.7816,-1.8188,-1.9074,-1.7664,-1.7157,-1.7512,-1.7946,-1.815,-1.8056,-1.7145,-1.6507,-1.6075,-1.5452,-1.4984,-1.453,-1.3879,-1.3656,-1.3584,-1.2927,-1.2563,-1.2451,-1.2688,-1.2785,-1.2807,-1.2642,-1.26,-1.2567,-1.213,-1.1853,-1.1728,-1.1728,-1.1728,-1.1563,-1.0913,-1.0491,-1.0178,-0.9914,-1.0412,-1.0909,-1.0739,-1.0737,-1.0674,-1.0238,-1.018,-0.9913,-0.8994,-0.8538,-0.8091,-0.7642,-0.7316,-0.7055,-0.6924,-0.6732,-0.6535,-0.6474,-0.6145,-0.5947,-0.5947,-0.5624,-0.5428,-0.5428,-0.5428,-0.5226,-0.4891,-0.4891,-0.5024,-0.5362,-0.5428,-0.5226,-0.4891,-0.4486,-0.4087,-0.3749,-0.3347,-0.3215,-3.0863,0.0,-3.5283,-3.5088,-3.1786,0.0,-2.7829,-2.4905,-2.1844,-2.0162,-2.1689,-2.4113,-2.6719,-2.7377,-2.7108,-2.5828,-2.5217,-2.4483,-2.3297,-2.2958,-2.2777,-2.2502,-2.2225,-2.1671,-2.0701,-2.1073,-2.0785,-1.9408,-1.9093,-1.8877,-1.8654,-1.8526,-1.841,-1.8339,-1.8304,-1.8243,-1.8134,-1.8091,-1.8511,-1.9386,-1.8087,-1.7336,-1.7109,-1.6862,-1.6952,-1.7305,-1.6776,-1.617,-1.5445,-1.4938,-1.4317,-1.3648,-1.322,-1.3083,-1.3012,-1.2621,-1.2224,-1.1948,-1.2263,-1.2148,-1.1825,-1.1499,-1.1644,-1.1854,-1.1066,-1.1057,-1.1326,-1.1326,-1.1217,-1.0956,-1.002,-0.971,-0.9556,-0.9068,-0.9273,-0.9598,-0.9914,-0.9989,-0.9983,-0.9989,-0.9722,-0.9332,-0.8608,-0.7707,-0.706,-0.706,-0.6601,-0.6203,-0.6203,-0.5752,-0.5359,-0.5226,-0.5226,-0.516,-0.5024,-0.5024,-0.5024,-0.5024,-0.5024,-0.4755,-0.4151,-0.4087,-0.4422,-0.5093,-0.509,-0.4688,-0.4087,-0.3951,-0.362,-0.3023,-0.288,-0.2813,-3.1301,0.0,-3.388,0.0,-3.0979,-2.6835,0.0,0.0,-1.9114,0.0,-2.0557,-2.3712,-2.0933,-2.15,-2.1594,-1.9195,-2.0627,-2.1461,-1.9818,-2.135,-2.2199,-2.0978,-2.0213,-1.9721,-1.9454,-1.9545,-1.9529,-1.9312,-1.9273,-1.9219,-1.92,-1.8592,-1.8301,-1.8483,-1.8301,-1.8236,-1.8256,-1.7983,-1.8101,-1.8634,-1.7974,-1.7216,-1.644,-1.6218,-1.6293,-1.6583,-1.5655,-1.5182,-1.5034,-1.44,-1.4033,-1.3868,-1.3195,-1.2945,-1.2829,-1.2169,-1.1875,-1.1775,-1.1497,-1.1616,-1.1863,-1.144,-1.163,-1.1901,-1.1396,-1.1252,-1.1326,-1.1326,-1.0998,-1.0517,-0.9814,-0.9347,-0.9025,-0.878,-0.8764,-0.8992,-0.9686,-0.9926,-0.9989,-0.9868,-0.8689,-0.7712,-0.7582,-0.6539,-0.569,-0.569,-0.5624,-0.5557,-0.5557,-0.5425,-0.516,-0.4489,-0.4422,-0.422,-0.3551,-0.3482,-0.3482,-0.3482,-0.3482,-0.3418,-0.3351,-0.3351,-0.3551,-0.4092,-0.3687,-0.3418,-0.3351,-0.2681,-0.2347,-0.2214,-0.1678,-0.1411,-3.0243,-3.1054,-3.2047,0.0,-2.9657,-2.5535,-2.2952,-1.998,-1.6763,-1.3213,-1.4618,-1.705,-1.8779,-1.6698,-1.5325,-1.71,-1.7278,-1.7198,-1.7225,-1.7679,-1.8413,-1.9535,-1.9502,-1.9354,-1.9201,-1.9191,-1.9447,-2.0092,-1.9595,-1.9597,-2.039,-1.9408,-1.8951,-1.9217,-1.8612,-1.8263,-1.8304,-1.8031,-1.7895,-1.7823,-1.7882,-1.7357,-1.6301,-1.6219,-1.6106,-1.595,-1.54,-1.5088,-1.4907,-1.4388,-1.4065,-1.3888,-1.3378,-1.3,-1.2673,-1.221,-1.1847,-1.1553,-1.1174,-1.1169,-1.1287,-1.0884,-1.0852,-1.0943,-1.0676,-1.0539,-1.0499,-1.0485,-1.0426,-1.0196,-0.9449,-0.9261,-0.916,-0.8979,-0.8896,-0.8938,-0.9064,-0.9139,-0.9011,-0.856,-0.7577,-0.6859,-0.6859,-0.6013,-0.5428,-0.5428,-0.5428,-0.5428,-0.5428,-0.5428,-0.5292,-0.4957,-0.4891,-0.4758,-0.4428,-0.4428,-0.4092,-0.3284,-0.3215,-0.3218,-0.3222,-0.3222,-0.2954,-0.2354,-0.3155,-0.3489,-0.3222,-0.2887,-0.2284,-0.1547,-0.121,-0.1076,-2.9326,0.0,-3.0138,-3.1795,-2.7803,-2.3425,0.0,0.0,-1.4474,0.0,-1.0251,-1.1492,-1.5978,-1.2755,-1.0727,-1.4609,-1.4288,-1.3814,-1.4562,-1.4616,-1.5347,-1.7413,-1.7839,-1.7891,-1.7754,-1.8821,-1.9854,-2.0703,-2.0515,-2.0662,-2.1347,-2.0404,-1.9807,-1.9655,-1.8803,-1.8351,-1.831,-1.8014,-1.7681,-1.7272,-1.7604,-1.7274,-1.6355,-1.6301,-1.608,-1.5726,-1.5477,-1.5224,-1.4966,-1.4479,-1.4189,-1.3947,-1.3527,-1.3104,-1.2708,-1.2318,-1.1957,-1.159,-1.1061,-1.0891,-1.0843,-1.0438,-1.0245,-1.0155,-1.0054,-0.9966,-0.9896,-0.9826,-0.9901,-0.9885,-0.9163,-0.9105,-0.916,-0.8882,-0.8819,-0.8765,-0.8564,-0.8361,-0.8037,-0.7517,-0.6859,-0.64,-0.64,-0.5815,-0.5428,-0.5428,-0.5226,-0.516,-0.5365,-0.5163,-0.5096,-0.5372,-0.5376,-0.5243,-0.4846,-0.4436,-0.3692,-0.2616,-0.2482,-0.2484,-0.2488,-0.2488,-0.2087,-0.1146,-0.2014,-0.2482,-0.2488,-0.2488,-0.1951,-0.0944,-0.1077,-0.1076,-2.923,-2.8529,0.0,-3.1203,-2.5139,-1.9738,0.0,0.0,-1.2165,-1.087,-1.0608,-1.0528,-1.0499,-0.9827,-0.935,-0.9602,-1.1434,-1.2496,-1.1492,-1.3493,-1.4807,-1.4061,-1.3994,-1.3934,-1.3803,-1.792,-2.064,-2.0697,-2.247,-2.2991,-2.1661,-2.1453,-2.0725,-1.9289,-1.8801,-1.8489,-1.831,-1.7844,-1.7479,-1.7216,-1.6975,-1.6743,-1.6474,-1.6289,-1.6194,-1.6166,-1.5755,-1.5477,-1.5222,-1.4588,-1.43,-1.4189,-1.3493,-1.3198,-1.3082,-1.2365,-1.2077,-1.1968,-1.1174,-1.0891,-1.0843,-1.0438,-1.0245,-1.0155,-1.0054,-0.9966,-0.9896,-0.9826,-0.9742,-0.9549,-0.9108,-0.8871,-0.8622,-0.827,-0.814,-0.8204,-0.8436,-0.7972,-0.7451,-0.7386,-0.6859,-0.64,-0.64,-0.5815,-0.5428,-0.5428,-0.4821,-0.4625,-0.5309,-0.4567,-0.437,-0.5272,-0.541,-0.48,-0.3448,-0.1754,-0.0741,-0.0674,-0.0674,-0.0674,-0.0674,-0.0674,-0.0809,-0.1079,0.0471,0.0672,-0.0674,-0.0674,-0.0607,-0.0539,-0.0944,-0.1078,-2.8578,0.0,0.0,-3.0061,-2.7519,-2.4255,-2.2735,-1.9247,-1.5202,-1.1209,-0.9779,-0.9319,-0.9482,-0.95,-0.9411,-0.9239,-0.9771,-1.0025,-0.932,-0.995,-1.1015,-1.2497,-1.0885,-1.09,-1.4098,-1.5496,-1.6392,-1.6814,-2.0244,-2.1542,-1.9758,-2.1779,-2.2433,-2.1219,-2.0094,-1.9078,-1.8191,-1.791,-1.7572,-1.7126,-1.7093,-1.6841,-1.6436,-1.6371,-1.6262,-1.6139,-1.5769,-1.5477,-1.5253,-1.4588,-1.4222,-1.4078,-1.3581,-1.3138,-1.2756,-1.2294,-1.1932,-1.1638,-1.1099,-1.0891,-1.0881,-1.0728,-1.0456,-1.024,-1.0419,-1.0208,-0.9847,-0.9526,-0.9475,-0.9446,-0.8726,-0.8777,-0.881,-0.8312,-0.7466,-0.6841,-0.6837,-0.6334,-0.5943,-0.5943,-0.569,-0.5502,-0.5502,-0.5442,-0.5382,-0.5382,-0.5179,-0.4773,-0.4092,-0.3485,-0.3284,-0.3625,-0.3694,-0.3902,-0.4529,-0.2084,0.0403,0.2426,0.1681,0.1142,0.1142,0.1142,0.1074,0.094,0.1612,0.2151,0.2563,0.1614,0.1276,0.1411,0.1278,0.0875,-2.8594,0.0,0.0,0.0,-2.8675,-2.7025,-2.4209,-1.9401,-1.4932,-1.2774,-1.0485,-0.9039,-0.9456,-0.9348,-0.9048,-0.8677,-0.8569,-0.8423,-0.8092,-0.8007,-0.8693,-1.0563,-0.8947,-0.8952,-1.2226,-1.288,-1.329,-1.3729,-1.7404,0.0,-1.7761,-2.1581,-2.3262,-2.2076,-2.0942,-1.9832,-1.8738,-1.8487,-1.7997,-1.7311,-1.7199,-1.6917,-1.649,-1.6409,-1.6219,-1.5968,-1.5667,-1.5448,-1.5253,-1.4479,-1.4078,-1.3934,-1.3467,-1.3069,-1.272,-1.221,-1.1884,-1.1627,-1.1099,-1.0805,-1.069,-1.069,-1.028,-0.99,-1.033,-1.0023,-0.9463,-0.9247,-0.9321,-0.9218,-0.8397,-0.8322,-0.8324,-0.7792,-0.6798,-0.5881,-0.5613,-0.5282,-0.509,-0.5024,-0.497,-0.4979,-0.4982,-0.5122,-0.5119,-0.4573,-0.4509,-0.3964,-0.2477,-0.1674,-0.1205,-0.107,-0.1012,-0.1487,-0.2755,-0.0878,0.1491,0.4121,0.3364,0.2822,0.2822,0.2822,0.2822,0.2822,0.282,0.3295,0.4319,0.3295,0.2956,0.3092,0.3096,0.2762,0.0,0.0,0.0,0.0,0.0,0.0,-2.8911,0.0,-1.1186,-1.5296,-1.2753,-0.979,-0.9992,-0.9105,-0.8167,-0.7548,-0.7757,-0.7888,-0.7758,-0.7925,-0.8143,-0.8168,-0.8168,-0.8115,-0.7901,-1.0231,-1.1779,-1.1779,-1.4184,-1.5644,-1.5659,-2.0684,-2.2908,-2.1462,-2.1164,-2.0705,-2.004,-1.9545,-1.8783,-1.7726,-1.7231,-1.6917,-1.6696,-1.6421,-1.612,-1.5811,-1.5536,-1.5344,-1.5238,-1.4292,-1.3901,-1.3835,-1.316,-1.2978,-1.299,-1.221,-1.1993,-1.1968,-1.1174,-1.0641,-1.0322,-1.0283,-0.9695,-0.9129,-0.9748,-0.939,-0.8864,-0.908,-0.9039,-0.8769,-0.8061,-0.7488,-0.6998,-0.6759,-0.6137,-0.5408,-0.4894,-0.4954,-0.502,-0.4831,-0.4764,-0.4767,-0.4846,-0.4779,-0.4233,-0.2744,-0.2547,-0.2012,-0.0603,0.0805,0.1814,0.2147,0.2406,0.242,0.2218,0.22,0.2764,0.4185,0.4314,0.4314,0.4314,0.4314,0.4314,0.4314,0.4303,0.4367,0.4367,0.4308,0.4314,0.4314,0.4317,0.4319,-2.9162,0.0,0.0,0.0,0.0,0.0,-2.3279,0.0,-2.078,-1.4175,-1.1518,-1.0039,-0.8927,-0.8149,-0.73,-0.6156,-0.6733,-0.7606,-0.8391,-0.7111,-0.6602,-0.8039,-0.7735,-0.7557,-0.7842,-0.8568,-0.8996,0.0,-0.9686,-1.0107,-1.0105,-1.5173,-1.8511,-1.9444,-1.9162,-1.9563,-2.0705,-1.9678,-1.8904,-1.8411,-1.7664,-1.7167,-1.6917,-1.6633,-1.649,-1.634,-1.5638,-1.5329,-1.5239,-1.4497,-1.398,-1.3669,-1.348,-1.3069,-1.2556,-1.233,-1.192,-1.1404,-1.1191,-1.085,-1.0467,-1.0166,-0.9848,-0.9495,-0.9068,-0.8805,-0.8602,-0.8056,-0.7992,-0.7911,-0.7412,-0.6597,-0.5988,-0.6181,-0.5453,-0.4659,-0.4469,-0.4704,-0.486,-0.4755,-0.4582,-0.377,-0.1742,0.0335,0.1543,0.087,0.0804,0.0938,0.134,0.2621,0.3569,0.3701,0.3729,0.3869,0.3976,0.3792,0.3859,0.4306,0.4306,0.4306,0.4306,0.4306,0.45,0.502,0.5017,0.5282,0.5811,0.4831,0.4306,0.4306,0.5021,0.5508,-2.934,-2.8621,-2.7998,-2.8283,0.0,0.0,-2.3267,-2.379,-2.3217,0.0,-1.3054,-1.0641,-1.0701,-0.8832,-0.6964,-0.6041,-0.6161,-0.6583,-0.7252,-0.6049,-0.5712,-0.7198,-0.7241,-0.7289,-0.7515,-0.7788,-0.7901,-0.7901,-0.7901,-0.8544,-1.0031,-1.1678,-1.4098,-1.7433,-1.8379,-1.9194,-1.9942,-2.0196,-1.9912,-1.9166,-1.835,-1.7721,-1.7287,-1.6926,-1.6633,-1.6363,-1.5866,-1.5419,-1.5058,-1.4669,-1.4111,-1.3547,-1.3459,-1.3035,-1.252,-1.2186,-1.1811,-1.1367,-1.0878,-1.0418,-0.9991,-0.9607,-0.9275,-0.8929,-0.842,-0.824,-0.8134,-0.7546,-0.7205,-0.6942,-0.6784,-0.603,-0.5416,-0.5605,-0.5171,-0.4429,-0.3598,-0.3988,-0.437,-0.3744,-0.3498,-0.3029,-0.1947,-0.0403,0.121,0.2758,0.3027,0.3025,0.3021,0.3766,0.4308,0.4308,0.4619,0.4698,0.4517,0.4953,0.5084,0.4761,0.502,0.5153,0.5153,0.5153,0.5382,0.5907,0.5841,0.6067,0.6724,0.5679,0.5153,0.5226,0.5967,0.6525,-2.9576,-2.8295,-2.713,-2.7964,-2.7267,0.0,-2.5985,-2.3633,-2.1582,0.0,-1.6886,-1.2699,-1.3394,-1.0216,-0.728,-0.6697,-0.5852,-0.5311,-0.5295,-0.505,-0.5155,-0.5905,-0.6681,-0.7128,-0.7085,-0.7521,-0.7848,-0.7901,-0.7901,-0.9279,-1.2444,-0.9624,-1.0205,-1.5304,-1.765,-1.875,-1.86,-2.0571,-2.0989,-1.9873,-1.9127,-1.8407,-1.771,-1.7256,-1.6732,-1.6196,-1.6114,-1.5622,-1.4825,-1.4808,-1.4273,-1.3493,-1.3232,-1.299,-1.2697,-1.1945,-1.1689,-1.1627,-1.0505,-0.9765,-0.9279,-0.8878,-0.8431,-0.7991,-0.7802,-0.7609,-0.744,-0.7242,-0.6576,-0.5991,-0.6067,-0.5592,-0.5057,-0.5005,-0.4837,-0.4114,-0.1967,-0.2436,-0.298,-0.1859,-0.1472,-0.1879,-0.3303,-0.3439,-0.1613,0.3507,0.4392,0.4384,0.4434,0.4498,0.4564,0.4564,0.52,0.529,0.4573,0.5812,0.6233,0.5481,0.6067,0.6461,0.6527,0.6548,0.6706,0.7082,0.6972,0.7143,0.7666,0.6924,0.6593,0.6728,0.7223,0.7635,-2.9509,-2.85,-2.7483,-2.7049,-2.6401,0.0,-2.3378,-2.3538,-2.3543,0.0,-2.292,-2.1235,-1.102,-0.9552,-0.921,-0.7058,-0.5923,-0.5293,-0.5316,-0.5097,-0.4878,-0.4812,-0.5487,-0.6213,-0.7031,-0.7192,-0.7413,-0.7848,-0.7901,-0.8208,-0.8898,-0.8254,-0.9366,-1.2589,-1.3067,-1.5209,-1.9266,-1.895,-1.9337,-2.0428,-1.9476,-1.8631,-1.7944,-1.7462,-1.706,-1.6732,-1.6235,-1.5636,-1.5013,-1.4825,-1.4241,-1.348,-1.3459,-1.3151,-1.2662,-1.2186,-1.1811,-1.1479,-1.0916,-1.0215,-0.9469,-0.9088,-0.8651,-0.8126,-0.6953,-0.6736,-0.6736,-0.594,-0.5681,-0.555,-0.4926,-0.4589,-0.4345,-0.4206,-0.3264,-0.1563,0.1779,0.2551,0.2384,0.1481,0.2249,0.2557,0.1073,0.1809,0.3017,0.4102,0.4761,0.5087,0.508,0.5609,0.6005,0.6005,0.6098,0.6172,0.6009,0.63,0.6432,0.6457,0.6588,0.6785,0.7172,0.746,0.8038,0.8963,0.9706,1.0339,1.0738,0.8609,0.7941,0.8479,0.9383,1.0025,-2.9388,-2.8082,-2.6716,-2.7001,-2.6029,0.0,0.0,-2.3873,-2.4194,-2.3073,-2.4202,-2.2836,-1.4392,-1.0879,-0.8982,-0.8228,-0.6324,-0.4918,-0.4925,-0.478,-0.4677,-0.4501,-0.4831,-0.5487,-0.6534,-0.6972,-0.7295,-0.7568,-0.7806,-0.7753,-0.7348,-0.7699,-0.8355,-0.9343,-1.0887,-1.283,-1.5196,-1.6244,-1.7667,-1.9444,-1.8365,-1.8139,-1.8667,-1.7832,-1.7224,-1.6825,-1.6549,-1.5907,-1.5104,-1.4951,-1.4356,-1.348,-1.348,-1.3254,-1.2815,-1.2294,-1.1847,-1.1394,-1.0781,-1.0011,-0.9239,-0.8814,-0.8242,-0.753,-0.6586,-0.622,-0.6059,-0.5579,-0.5329,-0.5144,-0.4615,-0.4185,-0.3548,-0.2274,-0.1432,-0.0057,0.2918,0.4397,0.4986,0.4342,0.5003,0.5382,0.4434,0.4834,0.5435,0.5638,0.5962,0.6086,0.587,0.6199,0.64,0.64,0.7107,0.7423,0.7093,0.806,0.8575,0.8372,0.8639,0.9022,0.948,0.9676,1.0079,1.087,1.1737,1.2253,1.2374,1.1413,1.0767,1.0375,1.1289,1.2074,-2.865,-2.7162,-2.5722,-2.6598,-2.5519,-2.4178,0.0,0.0,0.0,-2.3951,-2.3538,-2.2334,-1.9476,-1.458,0.0,-0.9373,0.0,0.0,0.0,-0.4791,0.0,-0.4494,-0.4498,-0.4941,-0.5986,-0.6703,-0.7182,-0.7419,-0.7495,-0.7209,-0.6392,-0.7203,-0.7382,-0.6858,-0.9476,-1.0919,-1.0944,-1.3519,-1.5993,-1.8261,-1.7152,-1.76,-1.9312,-1.8178,-1.7361,-1.6866,-1.6815,-1.6172,-1.512,-1.5059,-1.4438,-1.348,-1.348,-1.3254,-1.285,-1.2222,-1.1737,-1.1244,-1.0379,-0.9619,-0.8935,-0.8537,-0.7697,-0.6768,-0.6246,-0.5804,-0.5426,-0.532,-0.5074,-0.4739,-0.4418,-0.3635,-0.24,-0.0447,0.0223,0.1066,0.323,0.5092,0.6332,0.6399,0.6994,0.7236,0.6668,0.6448,0.6564,0.703,0.7227,0.7218,0.6924,0.6981,0.7111,0.7172,0.8329,0.8832,0.8366,0.9977,1.0808,1.0398,1.0864,1.1437,1.1961,1.2158,1.25,1.3066,1.3671,1.3899,1.3796,1.4351,1.3813,1.2267,1.3157,1.412,0.0,0.0,0.0,0.0,-2.3973,-2.3473,-2.3631,0.0,-2.3725,-2.1804,0.0,-2.3468,-2.316,0.0,0.0,0.0,0.0,0.0,-0.7514,-0.5777,-0.4515,-0.4516,-0.4498,-0.4823,-0.562,-0.6146,-0.688,-0.7769,-0.6944,-0.591,-0.4819,-0.6009,-0.682,-0.7052,-0.7675,-0.8982,-1.1069,-1.1956,-1.4357,-1.8197,-1.7237,-1.7629,-1.9178,-1.8217,-1.7502,-1.7052,-1.6809,-1.6157,-1.5256,-1.5029,-1.4374,-1.348,-1.348,-1.2953,-1.215,-1.1737,-1.133,-1.0829,-0.9972,-0.939,-0.8935,-0.8537,-0.7482,-0.6246,-0.5465,-0.5112,-0.4865,-0.4203,-0.4263,-0.4418,-0.3863,-0.2062,-0.0334,-0.0056,0.1112,0.2554,0.42,0.6058,0.723,0.6667,0.7788,0.8431,0.7236,0.6688,0.6601,0.712,0.7702,0.8215,0.8667,0.9244,0.9691,1.0002,1.0192,1.0382,1.0627,1.0885,1.119,1.1727,1.1851,1.2312,1.3224,1.4179,1.502,1.577,1.59,1.5907,1.5851,1.6556,1.6033,1.4285,1.5052,1.6011,0.0,0.0,0.0,0.0,0.0,0.0,-2.3225,0.0,-2.2957,-2.2591,0.0,0.0,0.0,0.0,0.0,0.0,-1.7136,-1.7133,0.0,0.0,-1.2858,-0.6253,0.0,0.0,-0.5772,-0.6578,-0.7012,-0.6926,-0.6633,-0.5882,-0.4562,-0.5354,-0.5923,-0.6041,-0.6966,-0.7731,-0.8349,-0.9399,-1.217,-1.6612,-1.5326,-1.6509,-1.9784,-1.8381,-1.7479,-1.701,-1.6367,-1.565,-1.4957,-1.45,-1.3635,-1.2607,-1.3078,-1.2766,-1.2018,-1.1799,-1.1319,-1.0715,-1.0089,-0.9332,-0.8415,-0.7217,-0.6416,-0.5847,-0.5375,-0.5072,-0.4832,-0.4535,-0.4471,-0.4027,-0.2009,-0.0781,0.0446,0.2282,0.3226,0.4113,0.5601,0.7146,0.8346,0.8615,1.01,1.1057,1.0566,0.9336,0.8597,0.879,0.9424,0.9933,1.0129,1.0808,1.1301,1.1487,1.2035,1.2403,1.2525,1.2967,1.3501,1.4022,1.4584,1.4925,1.5032,1.5936,1.6486,1.6567,1.7252,1.7614,1.7657,1.838,1.8473,1.7946,1.7989,1.8185,-2.5799,0.0,0.0,0.0,0.0,0.0,0.0,0.0,0.0,0.0,-2.0059,0.0,0.0,0.0,-2.2099,-2.2746,0.0,-2.3398,0.0,-2.31,-1.8843,-0.7959,0.0,0.0,0.0,-0.6606,-0.666,-0.5909,-0.6028,-0.574,-0.4758,-0.5097,-0.5324,-0.5324,-0.6298,-0.6686,-0.6436,-0.7616,-1.0317,-1.4443,-1.3633,-1.5354,-1.9231,-1.8262,-1.7572,-1.7101,-1.6305,-1.5649,-1.5083,-1.4242,-1.321,-1.2191,-1.2642,-1.2293,-1.1525,-1.1634,-1.1159,-1.036,-0.9884,-0.8924,-0.7668,-0.6198,-0.5604,-0.5479,-0.5075,-0.4805,-0.4496,-0.4088,-0.3638,-0.2788,-0.0557,0.0669,0.1893,0.4181,0.5014,0.5555,0.6578,0.8287,0.9845,1.0556,1.2274,1.3696,1.3696,1.2271,1.1141,1.1265,1.1759,1.2119,1.2249,1.2789,1.3202,1.3271,1.3936,1.4368,1.4259,1.4836,1.5399,1.6016,1.7101,1.7415,1.6931,1.7885,1.8301,1.7843,1.8964,1.9397,1.9208,2.0062,2.0319,2.0182,1.9997,1.9973,0.0,0.0,0.0,-2.3822,0.0,0.0,0.0,0.0,-2.1815,0.0,0.0,0.0,-1.882,-2.0065,-2.0756,-2.0469,-2.1484,0.0,0.0,-2.2356,-1.8725,-0.9013,-0.6693,0.0,0.0,-0.5858,-0.5478,-0.4967,-0.4956,-0.5069,-0.5242,-0.5297,-0.5297,-0.5297,-0.537,-0.5742,-0.6588,-0.7343,-0.912,-1.1832,-1.2889,-1.4521,-1.6667,-1.7704,-1.7927,-1.7451,-1.7035,-1.6554,-1.594,-1.45,-1.3443,-1.2727,-1.2282,-1.1421,-1.0425,-1.0851,-1.0514,-0.9737,-0.8999,-0.7938,-0.6823,-0.5959,-0.5427,-0.4985,-0.4333,-0.3986,-0.3539,-0.2094,-0.0975,-0.0111,-0.0,0.2334,0.4636,0.4688,0.5714,0.674,0.6794,0.9473,1.1906,1.1961,1.3904,1.5625,1.5625,1.4638,1.4037,1.4492,1.4657,1.4946,1.5511,1.5568,1.5693,1.6064,1.6074,1.6038,1.5736,1.5746,1.6168,1.7158,1.8725,1.9307,1.8622,2.0261,2.0854,2.0205,2.1289,2.1416,2.043,2.1524,2.1222,1.9667,2.0129,2.0985,0.0,0.0,-2.4148,-2.3541,0.0,0.0,0.0,0.0,0.0,0.0,0.0,0.0,0.0,-2.104,-2.0013,-1.9574,-1.9459,-1.9409,0.0,-2.0289,-2.0005,-1.7401,-1.2768,-0.9436,0.0,0.0,-0.7674,-0.5078,-0.4897,-0.5014,-0.5297,-0.5297,-0.5297,-0.5297,-0.5311,-0.5579,-0.6213,-0.7289,-0.905,-1.1444,-1.188,-1.3684,-1.6624,-1.6705,-1.7021,-1.7425,-1.6154,-1.5655,-1.5593,-1.3467,-1.2361,-1.1973,-1.1692,-1.0978,-1.0129,-1.0372,-1.0011,-0.9199,-0.7818,-0.6658,-0.5696,-0.4778,-0.447,-0.4306,-0.3954,-0.3161,-0.2286,-0.179,-0.0108,0.1829,0.3003,0.4728,0.6173,0.6258,0.7281,0.8515,0.9571,1.1783,1.388,1.4974,1.6662,1.8069,1.8541,1.8909,1.8306,1.5756,1.576,1.6269,1.6774,1.7301,1.7824,1.8242,1.8401,1.8584,1.8951,1.925,1.938,1.927,2.0499,2.0998,2.043,2.1648,2.212,2.1562,2.3007,2.3629,2.3293,2.4433,2.4446,2.3437,2.362,2.3137,-2.3437,-2.3656,0.0,-2.3033,-2.2887,0.0,-2.2334,0.0,-2.1846,0.0,0.0,0.0,0.0,0.0,-1.9751,-1.8603,-1.7854,-1.7356,0.0,-1.8483,-1.9773,-2.0598,-1.7808,-1.4824,-1.23,-1.0968,-0.8742,-0.516,-0.4879,-0.5014,0.0,-0.5297,-0.5297,-0.5297,-0.5273,-0.5429,-0.5769,-0.7015,-0.8391,-0.9976,-1.1098,-1.2698,-1.4703,-1.5816,-1.6498,-1.6744,-1.5992,-1.566,-1.5413,-1.3198,-1.2104,-1.1706,-1.1058,-1.0461,-0.996,-0.978,-0.9067,-0.7941,-0.6379,-0.546,-0.4822,-0.3949,-0.3378,-0.2978,-0.2926,-0.1805,-0.0524,-0.0263,0.1291,0.3252,0.4923,0.6411,0.7522,0.7917,0.9109,1.0513,1.1683,1.3906,1.598,1.7178,1.9035,2.0523,2.0973,2.1614,2.1152,1.8283,1.8412,1.8958,1.9269,1.9737,2.0189,2.0548,2.0647,2.0743,2.0797,2.1498,2.1603,2.0978,2.2178,2.2786,2.24,2.3737,2.4131,2.3296,2.4832,2.5455,2.5005,2.6012,2.6144,2.5453,2.5431,2.4607]},{"header":{"parameterUnit":"m.s-1","parameterCategory":1,"la1":30.6,"la2":29.2853,"lo1":-89.7004,"lo2":-87.6739,"dy":0.0162,"dx":0.0183,"nx":112,"ny":82,"refTime":"2023-08-17T06:00:00:Z","depth":0,"parameterNumber":3,"parameterNumberName":"V-component_of_WINDS"},"data":[0.0,0.0,0.0,0.0,0.0,0.0,0.0,0.0,0.0,0.0,0.0,0.0,0.0,0.0,0.0,0.0,0.0,0.0,0.0,0.0,0.0,0.0,0.0,0.0,0.0,0.0,0.0,0.0,0.0,0.0,0.0,0.0,0.0,0.0,0.0,0.0,0.0,0.0,0.0,0.0,0.0,0.0,0.0,0.0,0.0,0.0,0.0,0.0,0.0,0.0,0.0,0.0,0.0,0.0,0.0,0.0,0.0,0.0,0.0,0.0,0.0,0.0,0.0,0.0,0.0,0.0,0.0,0.0,0.0,0.0,0.0,0.0,0.0,0.0,0.0,0.0,0.0,0.0,0.0,0.0,0.0,0.0,0.0,0.0,0.0,0.0,0.0,0.0,0.0,0.0,-1.4584,-1.5176,-1.7054,-1.8769,-1.9983,-2.2686,-2.4182,-2.3929,0.0,0.0,0.0,0.0,0.0,0.0,0.0,0.0,0.0,0.0,0.0,0.0,0.0,0.0,0.0,0.0,0.0,0.0,0.0,0.0,0.0,0.0,0.0,0.0,0.0,0.0,0.0,0.0,0.0,0.0,0.0,0.0,0.0,0.0,0.0,0.0,0.0,0.0,0.0,0.0,0.0,0.0,0.0,0.0,0.0,0.0,0.0,0.0,0.0,0.0,0.0,0.0,0.0,0.0,0.0,0.0,0.0,0.0,0.0,0.0,0.0,0.0,0.0,0.0,0.0,0.0,0.0,0.0,0.0,0.0,0.0,0.0,0.0,0.0,0.0,0.0,0.0,0.0,0.0,0.0,0.0,0.0,0.0,0.0,0.0,0.0,0.0,0.0,0.0,0.0,0.0,0.0,0.0,0.0,0.0,0.0,0.0,0.0,0.0,0.0,0.0,0.0,0.0,0.0,-1.4555,-1.6229,-1.7371,-1.8684,-2.0331,-2.213,-2.3166,-2.3187,0.0,0.0,0.0,0.0,0.0,0.0,0.0,0.0,0.0,0.0,0.0,0.0,0.0,0.0,0.0,0.0,0.0,0.0,0.0,0.0,0.0,0.0,0.0,0.0,0.0,0.0,0.0,0.0,0.0,0.0,0.0,0.0,0.0,0.0,0.0,0.0,0.0,0.0,0.0,0.0,0.0,0.0,0.0,0.0,0.0,0.0,0.0,0.0,0.0,0.0,0.0,0.0,0.0,0.0,0.0,0.0,0.0,0.0,0.0,0.0,0.0,0.0,0.0,0.0,0.0,0.0,0.0,0.0,0.0,0.0,0.0,0.0,0.0,0.0,0.0,0.0,0.0,0.0,0.0,0.0,0.0,0.0,0.0,0.0,0.0,0.0,0.0,0.0,0.0,0.0,0.0,0.0,0.0,0.0,0.0,0.0,0.0,0.0,0.0,0.0,0.0,0.0,0.0,-1.5215,-1.5185,-1.6195,-1.7246,-1.859,-2.0383,-2.1815,-2.2713,-2.3172,-2.569,0.0,0.0,0.0,0.0,0.0,0.0,0.0,0.0,0.0,0.0,0.0,0.0,0.0,0.0,0.0,0.0,0.0,0.0,0.0,0.0,0.0,0.0,0.0,0.0,0.0,0.0,0.0,0.0,0.0,0.0,0.0,0.0,0.0,0.0,0.0,0.0,0.0,0.0,0.0,0.0,0.0,0.0,0.0,0.0,0.0,0.0,0.0,0.0,0.0,0.0,0.0,0.0,0.0,0.0,0.0,0.0,0.0,0.0,0.0,0.0,0.0,0.0,0.0,0.0,0.0,0.0,0.0,0.0,0.0,0.0,0.0,0.0,0.0,0.0,0.0,0.0,0.0,0.0,0.0,0.0,0.0,0.0,0.0,0.0,0.0,0.0,0.0,0.0,0.0,0.0,0.0,0.0,0.0,0.0,0.0,0.0,0.0,0.0,0.0,0.0,0.0,0.0,-1.5383,-1.598,-1.6084,-1.7017,-1.8403,-2.031,-2.1389,-2.2334,-2.3199,-2.5128,0.0,0.0,0.0,0.0,0.0,0.0,0.0,0.0,0.0,0.0,0.0,0.0,0.0,0.0,0.0,0.0,0.0,0.0,0.0,0.0,0.0,0.0,0.0,0.0,0.0,0.0,0.0,0.0,0.0,0.0,0.0,0.0,0.0,0.0,0.0,0.0,0.0,0.0,0.0,0.0,0.0,0.0,0.0,0.0,0.0,0.0,0.0,0.0,0.0,0.0,0.0,0.0,0.0,0.0,0.0,0.0,0.0,0.0,0.0,0.0,0.0,0.0,0.0,0.0,0.0,0.0,0.0,0.0,0.0,0.0,0.0,0.0,0.0,0.0,0.0,0.0,0.0,0.0,0.0,0.0,0.0,0.0,0.0,0.0,0.0,0.0,0.0,0.0,0.0,0.0,0.0,0.0,0.0,0.0,0.0,0.0,0.0,0.0,0.0,0.0,0.0,0.0,-1.5521,-1.6405,-1.6269,-1.6946,-1.825,-2.031,-2.0821,-2.1637,-2.2987,-2.4165,0.0,0.0,0.0,0.0,0.0,0.0,0.0,0.0,0.0,0.0,0.0,0.0,0.0,0.0,0.0,0.0,0.0,0.0,0.0,0.0,0.0,0.0,0.0,0.0,0.0,0.0,0.0,0.0,0.0,0.0,0.0,0.0,0.0,0.0,0.0,0.0,0.0,0.0,0.0,0.0,0.0,0.0,0.0,0.0,0.0,0.0,0.0,0.0,0.0,0.0,0.0,0.0,0.0,0.0,0.0,0.0,0.0,0.0,0.0,0.0,0.0,0.0,0.0,0.0,0.0,0.0,0.0,0.0,0.0,0.0,0.0,0.0,0.0,0.0,0.0,0.0,0.0,0.0,0.0,0.0,0.0,0.0,0.0,0.0,0.0,0.0,0.0,0.0,0.0,0.0,0.0,0.0,0.0,0.0,0.0,0.0,0.0,0.0,0.0,0.0,0.0,0.0,-1.5386,-1.6218,-1.6884,-1.7333,-1.862,-2.1278,-2.1662,-2.2244,-2.3212,0.0,0.0,0.0,0.0,0.0,0.0,0.0,0.0,0.0,0.0,0.0,0.0,0.0,0.0,0.0,0.0,0.0,0.0,0.0,0.0,0.0,0.0,0.0,0.0,0.0,0.0,0.0,0.0,0.0,0.0,0.0,0.0,0.0,0.0,0.0,0.0,0.0,0.0,0.0,0.0,0.0,0.0,0.0,0.0,0.0,0.0,0.0,0.0,0.0,0.0,0.0,0.0,0.0,0.0,0.0,0.0,0.0,0.0,0.0,0.0,0.0,0.0,0.0,0.0,0.0,0.0,0.0,0.0,0.0,0.0,0.0,0.0,0.0,0.0,0.0,0.0,0.0,0.0,0.0,0.0,0.0,0.0,0.0,0.0,0.0,0.0,0.0,0.0,0.0,0.0,0.0,0.0,0.0,0.0,0.0,0.0,0.0,0.0,0.0,0.0,0.0,0.0,-1.521,-1.5665,-1.643,-1.7327,-1.7943,-1.9256,-2.1907,-2.1999,-2.2397,-2.3616,0.0,0.0,0.0,0.0,0.0,0.0,0.0,0.0,0.0,0.0,0.0,0.0,0.0,0.0,0.0,0.0,0.0,0.0,0.0,0.0,0.0,0.0,0.0,0.0,0.0,0.0,0.0,0.0,0.0,0.0,0.0,0.0,0.0,0.0,0.0,0.0,0.0,0.0,0.0,0.0,0.0,0.0,0.0,0.0,0.0,0.0,0.0,0.0,0.0,0.0,0.0,0.0,0.0,0.0,0.0,0.0,0.0,0.0,0.0,0.0,0.0,0.0,0.0,0.0,0.0,0.0,0.0,0.0,0.0,0.0,0.0,0.0,0.0,0.0,0.0,0.0,0.0,0.0,0.0,0.0,0.0,0.0,0.0,0.0,0.0,0.0,0.0,0.0,0.0,0.0,0.0,0.0,0.0,0.0,0.0,0.0,0.0,0.0,0.0,0.0,0.0,0.0,-1.5477,-1.6501,-1.7384,-1.7766,-1.8702,-2.0041,-2.1983,-2.1415,-2.1967,0.0,0.0,0.0,0.0,0.0,0.0,0.0,0.0,0.0,0.0,0.0,0.0,0.0,0.0,0.0,0.0,0.0,0.0,0.0,0.0,0.0,0.0,0.0,0.0,0.0,0.0,0.0,0.0,0.0,0.0,0.0,0.0,0.0,0.0,0.0,0.0,0.0,0.0,0.0,0.0,0.0,0.0,0.0,0.0,0.0,0.0,0.0,0.0,0.0,0.0,0.0,0.0,0.0,0.0,0.0,0.0,0.0,0.0,0.0,0.0,0.0,0.0,0.0,0.0,0.0,0.0,0.0,0.0,0.0,0.0,0.0,0.0,0.0,0.0,0.0,0.0,0.0,0.0,0.0,0.0,0.0,0.0,0.0,0.0,0.0,0.0,0.0,0.0,0.0,0.0,0.0,0.0,0.0,0.0,0.0,0.0,0.0,0.0,0.0,0.0,0.0,0.0,0.0,-1.6682,-1.73,-1.809,-1.9042,-1.964,-2.0663,-2.2606,-2.2193,-2.252,-2.4108,0.0,0.0,0.0,0.0,0.0,0.0,0.0,0.0,0.0,0.0,0.0,0.0,0.0,0.0,0.0,0.0,0.0,0.0,0.0,0.0,0.0,0.0,0.0,0.0,0.0,0.0,0.0,0.0,0.0,0.0,0.0,0.0,0.0,0.0,0.0,0.0,0.0,0.0,0.0,0.0,0.0,0.0,0.0,0.0,0.0,0.0,0.0,0.0,0.0,0.0,0.0,0.0,0.0,0.0,0.0,0.0,0.0,0.0,0.0,0.0,0.0,0.0,0.0,0.0,0.0,0.0,0.0,0.0,0.0,0.0,0.0,0.0,0.0,0.0,0.0,0.0,0.0,0.0,0.0,0.0,0.0,0.0,0.0,0.0,0.0,0.0,0.0,0.0,0.0,0.0,0.0,0.0,0.0,0.0,0.0,0.0,0.0,0.0,0.0,0.0,0.0,0.0,-1.7905,-1.8334,-1.9046,-2.0078,-2.0731,-2.1603,-2.2916,-2.2728,-2.2994,-2.4048,0.0,0.0,0.0,0.0,0.0,0.0,0.0,0.0,0.0,0.0,0.0,0.0,0.0,0.0,0.0,0.0,0.0,0.0,0.0,0.0,0.0,0.0,0.0,0.0,0.0,0.0,0.0,0.0,0.0,0.0,0.0,0.0,0.0,0.0,0.0,0.0,0.0,0.0,0.0,0.0,0.0,0.0,0.0,0.0,0.0,0.0,0.0,0.0,0.0,0.0,0.0,0.0,0.0,0.0,0.0,0.0,0.0,0.0,0.0,0.0,0.0,0.0,0.0,0.0,0.0,0.0,0.0,0.0,0.0,0.0,0.0,0.0,0.0,0.0,0.0,0.0,0.0,0.0,0.0,0.0,0.0,0.0,0.0,0.0,0.0,0.0,0.0,0.0,0.0,0.0,0.0,0.0,0.0,0.0,0.0,0.0,0.0,0.0,0.0,0.0,0.0,0.0,-1.8998,-1.9434,-2.0025,-2.0859,-2.1859,-2.2553,-2.3065,-2.3119,-2.3532,-2.4191,0.0,0.0,0.0,0.0,0.0,0.0,0.0,0.0,0.0,0.0,0.0,0.0,0.0,0.0,0.0,0.0,0.0,0.0,0.0,0.0,0.0,0.0,0.0,0.0,0.0,0.0,0.0,0.0,0.0,0.0,0.0,0.0,0.0,0.0,0.0,0.0,0.0,0.0,0.0,0.0,0.0,0.0,0.0,0.0,0.0,0.0,0.0,0.0,0.0,0.0,0.0,0.0,0.0,0.0,0.0,0.0,0.0,0.0,0.0,0.0,-2.1505,0.0,0.0,0.0,0.0,0.0,0.0,0.0,0.0,0.0,0.0,0.0,0.0,0.0,0.0,0.0,0.0,0.0,0.0,0.0,0.0,0.0,0.0,0.0,0.0,0.0,0.0,0.0,0.0,0.0,0.0,0.0,0.0,0.0,0.0,0.0,0.0,0.0,0.0,0.0,0.0,0.0,-2.0285,-2.0613,-2.0997,-2.1535,-2.2048,-2.2756,-2.3537,-2.3828,-2.4396,-2.5415,-2.4656,0.0,0.0,0.0,0.0,0.0,0.0,0.0,0.0,0.0,0.0,0.0,0.0,0.0,0.0,0.0,0.0,0.0,0.0,0.0,0.0,0.0,0.0,0.0,0.0,0.0,0.0,0.0,0.0,0.0,0.0,0.0,0.0,0.0,0.0,0.0,0.0,0.0,0.0,0.0,0.0,0.0,0.0,0.0,0.0,0.0,0.0,0.0,0.0,0.0,0.0,0.0,0.0,0.0,0.0,0.0,0.0,0.0,0.0,0.0,0.0,-2.2309,0.0,0.0,0.0,0.0,0.0,0.0,0.0,0.0,0.0,0.0,0.0,0.0,0.0,0.0,0.0,0.0,0.0,0.0,0.0,0.0,0.0,0.0,0.0,0.0,0.0,0.0,0.0,0.0,0.0,0.0,0.0,0.0,0.0,0.0,0.0,0.0,0.0,0.0,0.0,0.0,-2.168,-2.1679,-2.1881,-2.236,-2.2979,-2.3548,-2.4047,-2.4828,-2.5327,-2.5467,-2.528,0.0,0.0,0.0,0.0,0.0,0.0,0.0,0.0,0.0,0.0,0.0,0.0,0.0,0.0,0.0,0.0,0.0,0.0,0.0,0.0,0.0,0.0,0.0,0.0,0.0,0.0,0.0,0.0,0.0,0.0,0.0,0.0,0.0,0.0,0.0,0.0,0.0,0.0,0.0,0.0,0.0,0.0,0.0,0.0,0.0,0.0,0.0,0.0,0.0,0.0,0.0,0.0,0.0,-2.3074,-2.3477,-2.4093,-2.4506,-2.4896,-2.5351,-2.4552,-2.4308,-2.428,-2.3198,0.0,0.0,0.0,0.0,0.0,0.0,0.0,0.0,0.0,0.0,0.0,0.0,0.0,0.0,0.0,0.0,0.0,0.0,0.0,0.0,0.0,0.0,0.0,0.0,-2.7971,-2.7702,-2.5135,0.0,0.0,0.0,0.0,0.0,0.0,0.0,0.0,0.0,0.0,0.0,-2.2737,-2.2573,-2.2626,-2.3095,-2.3913,-2.448,-2.4755,-2.5807,-2.619,-2.5435,-2.6103,-2.6021,0.0,0.0,0.0,0.0,0.0,0.0,0.0,0.0,0.0,0.0,0.0,0.0,0.0,0.0,0.0,0.0,0.0,0.0,0.0,0.0,0.0,0.0,0.0,0.0,0.0,0.0,0.0,0.0,0.0,0.0,0.0,0.0,-1.7172,-1.7048,0.0,0.0,0.0,0.0,0.0,0.0,0.0,0.0,0.0,0.0,0.0,0.0,0.0,-2.1708,-2.2529,-2.3401,-2.4033,-2.453,-2.5181,-2.5549,-2.5643,-2.6215,-2.6583,-2.6733,-2.7082,0.0,-2.517,-2.4666,0.0,0.0,0.0,0.0,0.0,0.0,0.0,0.0,0.0,0.0,0.0,0.0,0.0,0.0,0.0,0.0,0.0,0.0,0.0,0.0,0.0,0.0,-2.8116,-2.8722,-2.9066,-2.8998,0.0,-2.7003,-2.589,-2.551,-2.4744,0.0,0.0,0.0,0.0,0.0,0.0,0.0,-2.2793,-2.2871,-2.3136,-2.361,-2.412,-2.4898,-2.6214,-2.6607,-2.6791,-2.6927,-2.6987,-2.6747,-2.6073,-2.6328,0.0,0.0,0.0,0.0,0.0,0.0,0.0,0.0,0.0,0.0,0.0,0.0,0.0,0.0,0.0,0.0,0.0,0.0,0.0,0.0,0.0,0.0,0.0,0.0,0.0,0.0,0.0,0.0,0.0,-1.6477,-1.6397,-1.5989,-1.6124,-1.5827,0.0,0.0,0.0,0.0,0.0,0.0,0.0,0.0,0.0,-2.1965,-2.2584,-2.3255,-2.4352,-2.4734,-2.5163,-2.5763,-2.6088,-2.6362,-2.6568,-2.6941,-2.7186,-2.7177,-2.7637,-2.7558,-2.7273,-2.6617,-2.6725,-2.7295,0.0,0.0,0.0,0.0,-2.8004,-2.7911,-2.906,-2.9141,-2.8812,-2.9235,0.0,0.0,0.0,0.0,0.0,0.0,0.0,0.0,0.0,0.0,-2.8834,-2.9388,-2.9901,-3.0036,-2.9237,-2.8521,-2.7703,0.0,-2.5972,-2.5362,-2.4412,0.0,0.0,0.0,0.0,-2.3712,-2.3976,-2.3858,-2.3883,-2.4413,-2.5095,-2.5777,-2.646,-2.7165,-2.7468,-2.723,-2.7481,-2.7399,-2.6883,-2.7032,-2.7592,0.0,0.0,0.0,0.0,0.0,0.0,0.0,0.0,0.0,0.0,0.0,0.0,0.0,0.0,0.0,0.0,0.0,0.0,0.0,0.0,0.0,0.0,0.0,0.0,0.0,0.0,0.0,0.0,-1.6137,-1.632,-1.5518,-1.6632,-1.6974,0.0,0.0,0.0,0.0,0.0,0.0,-2.0908,-2.2047,-2.3004,-2.3859,-2.4158,-2.4701,-2.5643,-2.5754,-2.6037,-2.6491,-2.6491,-2.6593,-2.6893,-2.719,-2.7301,-2.74,-2.8008,-2.863,-2.9154,-2.8172,-2.8533,-2.9718,-2.8959,-2.9137,-2.9837,-2.9723,-2.9491,-2.9369,-3.0613,-3.0625,-3.0197,-3.0548,-2.9936,-2.8999,-2.8323,0.0,0.0,0.0,0.0,-2.7691,-2.8857,-2.9166,-2.9273,-2.9677,-3.0228,-3.0422,-2.9496,-2.9304,-2.8865,0.0,-2.7097,-2.6516,-2.5218,0.0,0.0,0.0,-2.4436,-2.4802,-2.5276,-2.4969,-2.4847,-2.5264,-2.6049,-2.6505,-2.6617,-2.7447,-2.769,-2.7173,-2.7553,-2.7698,-2.7338,-2.7504,-2.791,-2.8792,0.0,0.0,0.0,0.0,0.0,0.0,0.0,0.0,0.0,0.0,0.0,0.0,0.0,0.0,0.0,0.0,0.0,0.0,0.0,0.0,0.0,0.0,0.0,0.0,0.0,0.0,0.0,0.0,0.0,-1.6612,-1.8639,0.0,0.0,0.0,0.0,-1.9906,-2.1247,-2.2417,-2.2963,-2.3391,-2.4119,-2.5223,-2.5626,-2.602,-2.6431,-2.6799,-2.6816,-2.6491,-2.6491,-2.642,-2.6441,-2.6778,-2.7009,-2.7344,-2.8756,-2.9709,-3.0329,-2.8797,-2.9176,-3.0645,-3.0253,-3.0466,-3.0939,-3.1182,-3.0938,-3.0508,-3.0859,-3.096,-3.0937,-3.0937,-3.0406,-2.9606,-2.9306,-2.9208,0.0,0.0,-2.9032,-2.9641,-2.9689,-2.9725,-2.9737,-2.9748,-2.9941,-2.9977,-2.9412,-2.9128,-2.8879,0.0,-2.7987,-2.7382,-2.6633,0.0,-2.578,-2.5734,-2.573,-2.5894,-2.6296,-2.6076,-2.5997,-2.618,-2.6557,-2.6907,-2.7166,-2.7244,-2.7159,-2.7018,-2.72,-2.7353,-2.7504,-2.7614,-2.7925,-2.8495,-2.8658,0.0,0.0,0.0,0.0,0.0,0.0,0.0,0.0,0.0,0.0,0.0,0.0,0.0,0.0,0.0,0.0,0.0,0.0,0.0,0.0,0.0,0.0,0.0,0.0,0.0,0.0,0.0,0.0,-1.829,-2.0005,0.0,-1.9692,-2.0991,-2.1883,-2.1649,-2.3091,-2.3926,-2.3836,-2.4889,-2.5455,-2.5378,-2.5968,-2.6242,-2.6131,-2.6277,-2.6385,-2.6472,-2.6472,-2.651,-2.6601,-2.6697,-2.6807,-2.6911,-2.7438,-2.8189,-2.908,-2.9237,-3.0554,-3.2329,-3.192,-3.1905,-3.2167,-3.1786,-3.1515,-3.1351,-3.1841,-3.1615,-3.1169,-3.1013,-3.073,-3.0349,-2.9569,-2.9304,-2.9256,-2.9076,-2.897,-2.9162,-2.9738,-2.9762,-2.951,-2.9415,-2.9234,-2.8931,-2.8402,-2.7939,-2.7639,-2.7459,-2.7663,-2.7565,-2.6612,-2.6229,-2.6027,-2.5819,-2.5824,-2.6158,-2.7124,-2.6492,-2.6096,-2.6587,-2.6546,-2.6594,-2.6696,-2.69,-2.7045,-2.699,-2.7269,-2.7449,-2.7504,-2.7614,-2.7886,-2.8231,-2.848,-2.8795,0.0,0.0,0.0,0.0,0.0,0.0,0.0,0.0,0.0,0.0,0.0,0.0,0.0,0.0,0.0,0.0,0.0,0.0,0.0,0.0,0.0,0.0,0.0,0.0,0.0,-1.9161,-2.038,-1.9571,-2.1514,-2.2461,-2.1229,-2.2485,-2.3314,-2.3314,-2.4367,-2.4889,-2.4633,-2.5686,-2.6071,-2.5574,-2.6045,-2.6182,-2.5934,-2.605,-2.6097,-2.6197,-2.6311,-2.6469,-2.6554,-2.652,-2.6514,-2.6727,-2.7001,-2.7716,-2.886,-3.012,-3.16,-3.3093,-3.2736,-3.2792,-3.2955,-3.2101,-3.1804,-3.1849,-3.189,-3.162,-3.1137,-3.0783,-3.0603,-3.0446,-2.9569,-2.9424,-2.9532,-2.9352,-2.9172,-2.916,-2.9689,-2.9436,-2.8991,-2.8811,-2.8366,-2.7885,-2.7536,-2.7327,-2.7285,-2.7285,-2.7411,-2.7316,-2.6415,-2.6411,-2.653,-2.6377,-2.6569,-2.7031,-2.8078,-2.7225,-2.662,-2.6889,-2.671,-2.6496,-2.6287,-2.675,-2.6946,-2.6844,-2.7049,-2.7259,-2.7559,-2.7465,-2.7559,-2.7979,-2.8381,-2.9014,-2.9715,0.0,0.0,0.0,0.0,0.0,0.0,0.0,0.0,0.0,0.0,0.0,0.0,0.0,0.0,0.0,0.0,0.0,0.0,0.0,0.0,0.0,0.0,0.0,-1.8651,-2.0856,-2.211,-2.0418,-2.3252,-2.4778,-2.3314,-2.417,-2.4821,-2.4821,-2.5163,-2.536,-2.5352,-2.5729,-2.5925,-2.59,-2.5917,-2.5917,-2.59,-2.6238,-2.6162,-2.5804,-2.6151,-2.6172,-2.6109,-2.6109,-2.6218,-2.6654,-2.7669,-2.8714,-2.987,-3.1316,-3.2284,-3.2889,-3.2913,-3.3095,-3.3159,-3.2379,-3.2067,-3.1979,-3.1117,-3.0855,-3.0771,-3.0254,-3.0086,-2.9989,-2.946,-2.9653,-2.9953,-2.9424,-2.9641,-2.9917,-2.9388,-2.8871,-2.8354,-2.7825,-2.7296,-2.6911,-2.6899,-2.7459,-2.7936,-2.8009,-2.7373,-2.6781,-2.6263,-2.6744,-2.7322,-2.7482,-2.8038,0.0,-2.9044,-2.8326,-2.7645,-2.7248,-2.7,-2.6624,-2.6196,-2.6691,-2.6873,-2.65,-2.651,-2.6866,-2.7654,-2.7142,-2.7099,-2.7723,-2.8377,-2.9484,-3.0878,0.0,0.0,0.0,0.0,0.0,0.0,0.0,0.0,0.0,0.0,0.0,0.0,0.0,0.0,0.0,0.0,0.0,0.0,0.0,0.0,0.0,-2.2575,-2.3179,-2.1852,-2.3063,-2.4025,-2.3871,-2.4513,-2.4812,-2.4393,-2.4633,-2.4821,-2.4821,-2.5163,-2.5258,-2.4984,-2.5583,-2.5792,-2.5449,-2.5718,-2.5848,-2.5793,-2.5887,-2.5954,-2.6068,-2.6068,-2.6082,-2.6016,-2.6016,-2.5968,-2.5702,-2.5999,-2.6797,-2.8004,-2.9199,-3.0526,-3.1746,-3.275,-3.3076,-3.2948,-3.234,-3.1693,-3.1117,-3.053,-3.0302,-3.0278,-3.0134,-3.0086,-2.9989,-2.946,-2.94,-2.9412,-2.8871,-2.8835,-2.8823,-2.8294,-2.8041,-2.7801,-2.7272,-2.6731,-2.6469,-2.6978,-2.6943,-2.7006,-2.7546,-2.7477,-2.7416,-2.7659,-2.785,-2.7939,-2.7611,-2.8106,0.0,-2.82,-2.8046,-2.7879,-2.7792,-2.7414,-2.7086,-2.6971,-2.7224,-2.7107,-2.6553,-2.6645,-2.7002,-2.7654,-2.7563,-2.7803,-2.8532,-2.9348,-3.0163,0.0,0.0,0.0,0.0,0.0,0.0,0.0,0.0,0.0,0.0,0.0,0.0,0.0,0.0,0.0,0.0,0.0,0.0,0.0,0.0,0.0,0.0,-2.4134,-2.496,-2.4588,-2.4993,-2.5406,-2.545,-2.5395,-2.5327,-2.5162,-2.5145,-2.5145,-2.5145,-2.5344,-2.537,-2.5154,-2.5561,-2.57,-2.5467,-2.5678,-2.5696,-2.5688,-2.5637,-2.5666,-2.5883,-2.5819,-2.5834,-2.5711,-2.5711,-2.5592,-2.5372,-2.5476,-2.6461,-2.7935,-2.8823,-3.0174,0.0,0.0,0.0,0.0,0.0,-3.0985,-3.047,-2.9941,-2.9617,-2.9388,-2.9241,-2.9093,-2.8863,-2.8627,-2.8542,-2.847,-2.8167,-2.807,-2.8009,-2.7694,-2.7451,-2.7197,-2.6893,-2.6396,-2.6139,-2.6565,-2.6835,-2.7139,-2.7289,-2.7575,0.0,-2.8211,-2.8117,-2.7839,-2.7406,-2.7879,-2.8219,-2.8022,-2.7826,-2.7712,-2.7698,-2.7199,-2.6869,-2.6978,-2.7032,0.0,0.0,0.0,-2.7123,-2.7817,-2.8032,0.0,0.0,0.0,-3.0735,-3.147,0.0,0.0,0.0,-3.4677,-3.5049,0.0,0.0,0.0,0.0,0.0,0.0,0.0,0.0,0.0,0.0,0.0,0.0,0.0,0.0,0.0,0.0,-2.5267,-2.6238,-2.6452,-2.6316,-2.6109,-2.5824,-2.6007,-2.6078,-2.5714,-2.5688,-2.5688,-2.5688,-2.5688,-2.5661,-2.5626,0.0,0.0,0.0,0.0,-2.5664,-2.5664,-2.5541,-2.5477,-2.5477,-2.5441,-2.5353,-2.5298,-2.5356,-2.5338,-2.5328,-2.5451,-2.6709,-2.8691,-2.9127,-3.0397,-3.192,-3.1979,-3.1771,-3.136,-3.0362,-3.0001,-2.9917,-2.9328,0.0,0.0,-2.8009,-2.7588,-2.7285,-2.7446,-2.752,-2.752,-2.752,-2.752,-2.7508,-2.7447,-2.7078,-2.6697,-2.6635,-2.6218,-2.5812,-2.5881,-2.6873,-2.751,-2.7006,-2.7542,-2.8098,-2.8024,-2.7769,-2.74,-2.7028,-2.7575,-2.801,-2.8011,-2.7625,-2.7324,-2.7324,0.0,0.0,-2.6625,-2.6679,-2.6703,-2.6846,-2.6905,-2.7249,-2.7993,-2.8554,-2.9079,-2.948,-3.0366,-3.1341,-3.2307,-3.3336,-3.4551,-3.5992,-3.4706,-3.5075,0.0,0.0,0.0,0.0,0.0,0.0,0.0,0.0,0.0,0.0,0.0,0.0,0.0,0.0,0.0,-2.4374,-2.5367,-2.6032,-2.5687,-2.5569,-2.5718,-2.5954,-2.586,-2.5767,-2.5697,-2.5688,-2.5688,-2.5688,-2.5688,-2.5546,-2.5235,-2.5227,-2.5183,-2.5065,-2.5047,-2.5162,-2.5496,-2.5414,-2.5386,-2.5386,0.0,0.0,-2.4886,-2.4738,-2.4672,-2.4634,-2.4284,-2.5117,-2.6806,-2.7232,-2.8643,-3.0505,-3.0925,-3.0855,-3.0314,-2.9689,-2.9448,-2.9316,-2.8366,-2.8035,-2.7985,-2.7527,-2.7371,-2.7446,-2.752,-2.752,0.0,-2.752,-2.752,-2.7422,-2.698,-2.6795,-2.6599,-2.6168,-2.5652,-2.5382,-2.5937,-2.5961,-2.5996,-2.6405,-2.7053,-2.7294,-2.6858,-2.7086,-2.7339,-2.7244,-2.7769,-2.7783,-2.6771,-2.715,-2.7449,-2.7449,-2.7443,-2.7426,-2.748,-2.7574,-2.7462,-2.698,-2.7524,-2.79,-2.8086,-2.9252,-2.9953,-3.0038,-3.1164,-3.2158,-3.2935,-3.3524,-3.4551,-3.6009,-3.6055,-3.6555,0.0,0.0,0.0,0.0,0.0,0.0,0.0,0.0,0.0,0.0,0.0,-2.4079,-2.4167,0.0,-2.5879,-2.5522,-2.5562,-2.5439,-2.5023,-2.4499,-2.4545,-2.5593,-2.5647,-2.5613,-2.5802,-2.52,-2.5048,-2.5811,-2.5191,-2.4898,-2.5252,-2.5252,-2.5258,-2.5154,-2.5145,-2.5258,-2.5372,-2.5255,-2.5154,-2.4951,-2.4857,-2.465,-2.4259,-2.4131,-2.4134,-2.4106,-2.3965,-2.4624,-2.5982,-2.7436,-2.8773,-2.9878,-3.0228,-3.0084,-2.9593,-2.8799,-2.8578,-2.8536,-2.7738,-2.7442,-2.7311,-2.7127,-2.7015,-2.6865,-2.6996,-2.6996,-2.6996,-2.6996,-2.6996,-2.6934,-2.6661,-2.6586,-2.6524,-2.6251,-2.5754,-2.5411,-2.5785,-2.5653,-2.568,-2.6015,-2.6136,-2.613,-2.6087,-2.5797,-2.5895,-2.678,-2.7164,-2.7135,-2.664,-2.6895,-2.7151,-2.7151,-2.7205,-2.7258,-2.7312,-2.7164,-2.6799,-2.6117,-2.6777,-2.7314,-2.7758,-2.8662,-2.9506,-3.0247,-3.0656,-3.1621,-3.3048,-3.3179,-3.4005,-3.5446,-3.5597,-3.6202,0.0,0.0,0.0,0.0,0.0,0.0,0.0,-2.7079,-2.6348,-2.619,-2.5777,-2.5492,-2.5644,-2.6229,-2.6545,-2.6193,-2.5367,-2.4557,-2.4052,-2.3199,-2.3216,-2.4503,-2.4846,-2.5062,-2.5369,-2.4236,-2.4078,-2.5263,-2.4448,-2.4237,-2.5036,-2.5347,-2.5413,-2.5339,-2.5339,-2.5302,-2.5219,-2.5079,-2.4697,-2.4296,-2.4268,-2.4042,-2.371,-2.3625,-2.3727,-2.3794,-2.3958,-2.4665,-2.58,-2.7757,-2.8988,-2.9528,-2.9702,-2.948,-2.8964,-2.8108,-2.7936,-2.7992,-2.7346,-2.6932,-2.6769,-2.6825,-2.6561,-2.627,-2.6465,-2.6533,-2.6533,-2.6533,-2.6533,-2.6496,-2.6395,-2.6302,-2.6264,-2.6163,-2.5699,-2.535,-2.5469,-2.5472,-2.5445,-2.5441,-2.5227,-2.5148,-2.5437,-2.4726,-2.4625,-2.5992,-2.6202,-2.6269,-2.6416,-2.6416,-2.6402,-2.6454,-2.6454,-2.652,-2.6674,-2.6276,-2.5845,-2.5328,-2.5785,-2.6352,-2.7036,-2.7637,-2.8544,-2.97,-2.9669,-3.0522,-3.24,-3.2323,-3.2945,-3.427,-3.4409,-3.5169,-3.0192,-2.9134,-2.9001,-2.9622,-2.9619,-2.9686,0.0,-2.9937,-2.9048,-2.8734,-2.7907,-2.7149,-2.6502,-2.6241,-2.5752,-2.4588,-2.4041,-2.3349,-2.2197,-2.1943,-2.1943,-2.2045,-2.2716,-2.3224,-2.3266,-2.3126,-2.3011,-2.3266,-2.3965,-2.4322,-2.4088,-2.4997,-2.5352,-2.4984,-2.4975,-2.4805,-2.4447,-2.439,-2.4164,-2.3758,-2.3805,-2.3758,-2.3701,-2.3496,-2.3597,-2.3923,-2.4014,-2.482,-2.6107,-2.6557,-2.7696,-2.9138,-2.9138,-2.8856,-2.8415,-2.8292,-2.8243,-2.8096,-2.7078,-2.6843,-2.6863,-2.6462,-2.6389,-2.6465,-2.6465,-2.6533,-2.6533,-2.6533,-2.6533,-2.6408,-2.5824,-2.5686,-2.5573,-2.5109,-2.4582,-2.4355,-2.4874,-2.4601,-2.4247,-2.4215,-2.4692,-2.493,-2.4382,-2.4702,-2.5039,-2.4974,-2.5017,-2.5096,-2.5096,-2.5067,-2.5052,-2.5214,-2.5214,-2.5297,-2.5586,-2.5512,-2.5485,-2.5568,-2.5627,-2.5717,-2.5777,-2.6871,-2.7581,-2.7736,-2.8487,-2.9335,-3.0271,-3.058,-3.1189,-3.1973,-3.3159,-3.4446,-3.0176,-2.9417,-2.9333,-3.0158,-3.061,-3.0684,-2.9999,-2.9654,-2.9164,-2.8177,-2.7697,-2.7146,-2.6466,-2.6064,-2.55,0.0,-2.3613,-2.273,-2.1953,-2.1303,-2.0901,-2.0901,-2.0955,-2.1394,-2.2435,-2.1756,-2.1619,-2.246,-2.2166,-2.2306,-2.3158,-2.3638,-2.3947,-2.424,-2.4231,-2.4146,-2.3975,-2.4041,-2.3801,-2.3162,-2.3242,-2.3082,-2.2621,-2.294,-2.3359,-2.393,-2.3929,-2.4588,-2.5579,-2.5819,-2.6723,-2.8083,-2.8161,-2.8231,-2.8151,-2.7927,-2.773,-2.7434,-2.6667,-2.6536,-2.6639,-2.6483,-2.6396,-2.6533,-2.6533,-2.6533,-2.6533,-2.6533,-2.6214,-2.598,-2.5807,-2.5504,-2.5214,-2.5115,-2.4633,-2.4289,-2.4584,-2.4145,-2.3867,-2.4164,-2.4128,-2.4042,-2.4139,-2.4136,-2.4055,-2.3948,-2.4513,-2.4961,-2.5058,-2.4995,-2.4995,-2.5091,-2.5188,-2.5121,-2.4815,-2.4893,-2.476,-2.4462,-2.4448,-2.4627,-2.5016,-2.5576,-2.6214,-2.6854,-2.7148,-2.7978,-2.9398,-2.9345,-2.9904,-3.0948,-3.1087,-3.1858,-2.9689,-2.9346,-2.9421,-3.0332,-3.1076,-3.1135,-2.9661,-2.9523,-2.9284,-2.7906,-2.7297,-2.6941,-2.6367,-2.5693,-2.5008,-2.44,-2.3243,-2.2189,-2.1717,-2.0866,-2.0277,-2.0277,-1.9984,-2.0319,-2.1737,-2.0845,-2.0592,-2.157,-2.0846,-2.0841,-2.1978,-2.2549,-2.3044,-2.3514,-2.3794,-2.3839,-2.3725,-2.3881,-2.3538,-2.2717,-2.2882,-2.2673,-2.1977,-2.2542,-2.3018,-2.3478,-2.3468,-2.4136,-2.5211,-2.5426,-2.6348,-2.7529,-2.7669,-2.7816,-2.7871,-2.7519,-2.7271,-2.7005,-2.6527,-2.6396,-2.6589,-2.6589,-2.6589,-2.6496,-2.6332,-2.6395,-2.6458,-2.6156,-2.5946,-2.5734,-2.5509,-2.5078,-2.4658,-2.4783,-2.4343,-2.3961,-2.4294,-2.404,-2.385,-2.4277,-2.3921,-2.3681,-2.3952,-2.3674,-2.3392,-2.3392,-2.4086,-2.4611,-2.4658,-2.4611,-2.4611,-2.4705,-2.4815,-2.4714,-2.4283,-2.4343,-2.4177,-2.3726,-2.3696,-2.3921,-2.4417,-2.455,-2.5011,-2.5951,-2.5955,-2.6655,-2.8127,-2.8092,-2.8549,-2.9477,-2.9147,-2.9478,-2.8171,-2.8156,-2.8473,-2.9834,-3.0569,-3.0811,-3.0738,-3.0542,-3.0037,-2.8786,-2.7668,-2.6793,-2.6277,-2.4962,-2.374,-2.3247,-2.2585,-2.1787,-2.0915,-2.0476,-2.0277,-2.0277,-2.0277,-2.0427,0.0,-2.0403,-2.0086,-2.0197,-2.0793,-2.0982,-2.0452,-2.2066,-2.2999,-2.299,-2.3942,-2.4219,-2.3818,-2.3809,-2.3379,-2.2529,-2.2689,-2.2631,-2.2205,-2.2379,-2.2553,-2.2563,-2.2727,-2.3737,-2.5283,-2.5515,-2.6598,-2.8061,-2.8049,-2.7795,-2.7306,-2.7306,-2.7293,-2.7205,-2.6848,-2.6714,-2.6714,-2.6714,-2.6714,-2.6544,-2.5854,-2.6148,-2.643,-2.5355,-2.5548,-2.5818,-2.4732,-2.4042,-2.362,-2.368,-2.3124,-2.2977,-2.4163,-2.4357,-2.4275,-2.4209,-2.4309,-2.4178,-2.3599,-2.3538,-2.3595,-2.3595,-2.3568,-2.3525,-2.3378,-2.3466,-2.3525,-2.3569,-2.3626,-2.3698,-2.3827,-2.3827,-2.3855,-2.3982,-2.3982,-2.3997,-2.4013,-2.4013,-2.4208,-2.4645,-2.5029,-2.547,-2.5893,-2.6602,-2.694,-2.6928,-2.7613,-2.7916,-2.7256,-2.7993,-2.9093,-2.9954,-3.0563,-3.0564,-2.9321,-2.8963,-2.8399,-2.668,-2.5271,-2.4154,-2.3561,-2.2698,-2.2017,-2.2173,-2.1836,-2.1304,-2.0982,-2.0261,-1.9969,-2.0468,-2.0277,0.0,0.0,0.0,0.0,-2.0585,-2.0377,-2.0337,-2.05,-2.0828,-2.1069,-2.1177,-2.2098,-2.2584,-2.2621,-2.2979,-2.2903,-2.2486,-2.199,-2.187,-2.217,-2.225,-2.2574,-2.2941,-2.3022,-2.3416,-2.3945,-2.4274,-2.5068,-2.6125,-2.6431,-2.6779,-2.7087,-2.7087,-2.7087,-2.7062,-2.679,-2.6794,-2.6875,-2.6875,-2.6608,-2.6327,-2.6451,-2.6187,-2.5806,-2.5728,-2.5333,-2.4796,-2.415,-2.3605,-2.3134,-2.2898,-2.2648,-2.2657,-2.3392,-2.3497,-2.3552,-2.3858,-2.3894,-2.3776,-2.3611,-2.3653,-2.3739,-2.3839,-2.3696,-2.3523,-2.3451,-2.3581,-2.3711,-2.3711,-2.3797,-2.3882,-2.394,-2.394,-2.394,-2.3982,-2.3982,-2.3982,-2.3982,-2.4082,-2.4317,-2.4719,-2.4918,-2.5176,-2.5535,-2.6057,-2.6508,-2.6875,-2.6941,-2.7466,-2.7143,-2.7786,-2.8601,-2.952,-2.9582,-2.9067,-2.8042,-2.754,-2.6809,-2.5333,-2.3785,-2.2516,-2.173,-2.1006,-2.056,-2.0712,-2.0695,-2.0581,-2.0484,-1.9799,-1.9597,-2.0237,-2.0269,-2.0813,0.0,0.0,0.0,-2.1191,-2.0472,-2.016,-2.0329,-2.0157,-2.0155,-2.0266,-2.1427,-2.2073,-2.2011,-2.2627,-2.2719,-2.2352,-2.1625,-2.1588,-2.2097,-2.2175,-2.2486,-2.2924,-2.3082,-2.3317,-2.3619,-2.3799,-2.4425,-2.523,-2.5658,-2.6164,-2.6704,-2.6704,-2.6575,-2.6526,-2.679,-2.6998,-2.7053,-2.6848,-2.6526,-2.6167,-2.5871,-2.5435,-2.5024,-2.4767,-2.4317,-2.385,-2.3443,-2.3015,-2.2721,-2.2437,-2.2378,-2.2458,-2.2861,-2.2972,-2.3159,-2.3635,-2.3733,-2.3739,-2.3739,-2.3797,-2.3882,-2.3982,-2.3839,-2.3754,-2.3668,-2.3797,-2.3882,-2.3882,-2.394,-2.4024,-2.4082,-2.4082,-2.4067,-2.4109,-2.4109,-2.4109,-2.4109,-2.4193,-2.4426,-2.4839,-2.4863,-2.5137,-2.5668,-2.5758,-2.6077,-2.6595,-2.6385,-2.6776,-2.755,-2.7309,-2.696,-2.8381,-2.7598,-2.657,-2.6998,-2.6332,-2.546,-2.4732,-2.3202,-2.175,0.0,0.0,-1.9408,-1.8801,-1.9406,-1.9763,-1.951,-1.9114,-1.9066,0.0,0.0,0.0,0.0,0.0,0.0,-2.1777,0.0,-2.0555,-1.9965,-2.0154,-2.03,-2.0175,-2.1784,-2.2476,-2.2045,-2.279,-2.2766,-2.2046,-2.1686,-2.1634,-2.1807,-2.2209,-2.2349,-2.2435,-2.2787,-2.339,-2.4108,-2.405,-2.447,-2.5277,-2.5838,-2.6023,-2.6089,-2.6089,-2.5859,-2.5651,-2.683,-2.7206,-2.7115,-2.6518,-2.6324,-2.5936,-2.4176,-2.4094,-2.4279,-2.2648,-2.2669,-2.3096,-2.252,-2.2363,-2.2376,-2.2376,-2.2285,-2.2301,-2.2509,-2.2833,-2.3172,-2.3466,-2.3769,-2.3982,-2.4024,-2.4024,-2.4024,-2.4024,-2.3994,-2.3979,-2.4024,-2.4024,-2.4024,-2.4024,-2.4024,-2.4082,-2.4166,-2.4223,-2.425,-2.4317,-2.4302,-2.4302,-2.4302,-2.4302,-2.4533,-2.4902,-2.4942,-2.5313,-2.6104,-2.5726,-2.5689,-2.6013,-2.603,-2.5957,-2.5056,-2.5312,-2.5759,-2.605,-2.5588,-2.4992,-2.4448,-2.4166,-2.3555,-2.2082,-2.0676,-1.9502,-1.8595,-1.8072,-1.8002,-1.8973,-1.9144,0.0,-1.983,-1.8981,0.0,-1.9302,-1.9336,-1.9613,-2.0101,-2.1276,0.0,0.0,-2.1493,-2.1318,-2.0845,-2.0404,-1.9711,-1.8807,-1.9935,-2.062,-2.08,-2.2098,-2.2395,-2.1896,-2.1668,-2.185,-2.2231,-2.1897,-2.1912,-2.2226,-2.2012,-2.221,-2.2723,-2.2635,-2.3397,-2.4662,-2.4649,-2.5345,-2.6271,-2.6271,-2.6025,-2.5741,-2.6109,-2.5924,-2.5589,-2.5603,-2.5153,-2.4687,-2.458,-2.3944,-2.3332,-2.347,-2.3339,-2.3017,-2.2479,-2.2331,-2.2224,-2.1743,-2.1664,-2.1738,-2.2205,-2.2548,-2.2934,-2.3407,-2.3769,-2.4024,-2.4124,-2.4166,-2.4166,-2.4234,-2.3805,-2.3611,-2.3964,-2.4082,-2.4166,-2.4166,-2.4193,-2.4234,-2.4276,-2.4276,-2.4276,-2.4302,-2.4302,-2.4302,-2.4302,-2.4614,-2.4942,-2.5351,-2.5351,-2.5615,-2.6104,-2.598,-2.598,-2.6068,-2.6367,-2.6521,-2.4461,-2.4604,-2.4753,-2.4529,-2.4082,-2.3437,-2.2609,-2.2426,-2.2043,-2.047,-1.9315,-1.8291,-1.7378,-1.7117,-1.7318,-1.8071,0.0,0.0,-1.9444,-1.8655,-1.8225,-1.8693,-1.8868,-1.9062,-1.9353,-2.042,-2.1255,0.0,-2.1822,-2.1891,-2.1613,-2.0737,-1.9892,-1.9115,-1.973,-2.0368,-2.1178,-2.1748,-2.2018,-2.1956,-2.2115,-2.2262,-2.2305,-2.2127,-2.2353,-2.2794,0.0,-2.2659,-2.3217,-2.3201,-2.3759,-2.4657,-2.4793,-2.5353,-2.6089,-2.6089,-2.567,-2.5057,-2.5057,-2.4493,-2.3907,-2.4526,-2.4429,-2.4027,-2.3824,-2.3204,-2.264,-2.2812,-2.2634,-2.2282,-2.1993,-2.2201,-2.2377,-2.1801,-2.1987,-2.2275,-2.2459,-2.2754,-2.3187,-2.3754,-2.4009,-2.4151,-2.425,-2.4234,-2.425,-2.4302,-2.3979,-2.3887,-2.4214,-2.3754,-2.336,-2.336,-2.3385,-2.3533,-2.384,-2.3871,-2.3994,-2.4287,-2.4508,-2.467,-2.467,-2.5059,-2.5411,-2.5635,-2.5635,-2.5799,-2.6191,-2.6191,-2.6262,-2.6367,-2.6927,-2.7182,-2.4359,-2.4206,-2.3698,-2.3308,-2.2678,-2.2008,-2.1173,-2.1028,-2.0662,-1.9341,-1.8444,-1.7595,-1.6588,-1.6678,-1.6871,-1.6871,-1.7898,-1.8776,-1.8927,-1.8521,-1.8237,-1.8202,-1.8544,-1.8882,-1.8739,-1.9644,-2.0504,-2.1182,-2.1655,-2.2058,-2.2111,-2.1059,-2.0324,-1.987,-2.0156,-2.0718,-2.1625,-2.1482,-2.1543,-2.1977,-2.2542,-2.2604,-2.2193,-2.2488,-2.2913,-2.3352,-2.321,-2.3571,-2.4213,-2.4172,-2.4377,-2.4836,-2.5202,-2.5554,-2.5823,-2.5741,-2.5007,-2.4096,-2.4014,-2.3237,-2.2474,-2.3459,-2.3771,-2.3568,-2.2573,-2.2283,-2.2124,-2.1656,-2.152,-2.152,-2.152,-2.2118,-2.2609,-2.2155,-2.2644,-2.314,-2.29,-2.3201,-2.3638,-2.4219,-2.4343,-2.4343,-2.44,-2.4385,-2.4385,-2.4385,-2.4307,-2.4327,-2.4489,-2.3382,-2.2593,-2.2501,-2.2578,-2.284,-2.3335,-2.3458,-2.3767,-2.4354,-2.4831,-2.5091,-2.513,-2.5577,-2.5855,-2.5892,-2.5928,-2.6104,-2.64,-2.64,-2.6504,-2.6759,-2.7402,-2.7689,-2.1763,-2.1704,-2.1605,-2.1063,-2.0874,-2.0569,-1.9564,-1.9648,0.0,-1.7531,-1.7091,-1.6709,-1.5713,-1.5326,-1.5615,-1.7119,-1.7669,-1.832,-1.9771,-1.9159,-1.8648,-1.9004,-1.8262,-1.7505,-1.7042,-1.8103,0.0,0.0,-1.9903,-2.1042,-2.1482,-2.1131,-2.0245,-1.8865,-1.9149,-1.92,-1.9014,-2.0036,-2.0617,-2.0688,-2.1294,-2.1798,-2.2076,-2.1674,-2.177,-2.216,-2.1897,0.0,-2.2561,-2.2309,-2.2965,-2.4216,-2.3857,-2.4458,-2.5479,-2.4957,-2.447,-2.4035,-2.3454,-2.2797,-2.2323,-2.2765,-2.2797,-2.2546,-2.2263,-2.2055,-2.1883,-2.2024,-2.2044,-2.2044,-2.2044,-2.2161,-2.2297,-2.2212,-2.2473,-2.2778,-2.2723,-2.3246,-2.3909,-2.4426,-2.4549,-2.463,-2.4846,-2.4886,-2.4886,-2.4886,-2.4367,-2.3973,-2.4027,-2.4131,-2.4053,-2.3645,-2.4178,-2.4335,-2.384,-2.4367,-2.476,-2.4871,-2.4966,-2.5107,-2.5346,-2.5742,-2.6068,-2.6297,-2.6624,-2.6825,-2.6876,-2.6876,-2.6909,-2.6942,-2.7078,-2.7131,-2.101,-2.1067,-2.0936,-2.0158,-1.9991,-1.9698,-1.8397,0.0,0.0,-1.6883,-1.6427,-1.6056,-1.517,-1.4858,-1.5048,-1.6164,-1.7247,-1.8281,-1.9288,-1.9272,-1.9075,-1.8912,-1.8095,-1.7252,-1.6722,-1.7062,-1.7379,-1.759,-1.8183,-1.9107,-2.0687,-2.0232,-1.9442,-1.8261,-1.819,-1.8377,-1.8692,-1.9765,-2.0357,-2.0685,-2.1609,-2.2105,-2.2138,-2.1843,-2.2031,-2.255,-2.2092,-2.2292,-2.2838,-2.2722,-2.3338,-2.442,-2.3842,-2.4266,-2.5145,-2.4556,-2.4081,-2.3667,-2.3405,-2.2895,-2.2427,-2.2597,-2.249,-2.2228,-2.2222,-2.2137,-2.2044,-2.2184,-2.2184,-2.2184,-2.2184,-2.2495,-2.2814,-2.2889,-2.3406,-2.3921,-2.3921,-2.4188,-2.4508,-2.4751,-2.4806,-2.4846,-2.4966,-2.5005,-2.5005,-2.5005,-2.4705,-2.4522,-2.4598,-2.4823,-2.4555,-2.3502,-2.3692,-2.3913,-2.3891,-2.423,-2.4594,-2.4989,-2.5224,-2.546,-2.5742,-2.6175,-2.6556,-2.6859,-2.704,-2.7105,-2.7055,-2.7055,-2.7023,-2.7024,-2.74,-2.7623,-2.0259,-2.0527,-2.0566,-1.9648,-1.9481,-1.9141,-1.7747,-1.79,-1.7881,-1.6446,-1.6019,-1.56,-1.4646,-1.4362,-1.4436,0.0,-1.6428,-1.7664,-1.8355,-1.8859,-1.9023,-1.8525,-1.7942,0.0,-1.6847,-1.6279,0.0,-1.6923,-1.6599,-1.7335,-1.9624,-1.9219,-1.8579,-1.7926,-1.7685,-1.7935,-1.8706,-1.9403,-2.0052,-2.0664,-2.1744,-2.2212,-2.2104,-2.2104,-2.2379,-2.285,-2.2333,-2.2474,-2.2971,-2.2929,-2.3417,-2.4105,-2.3767,-2.4065,-2.4647,-2.4204,-2.3765,-2.3325,-2.334,-2.3016,-2.2615,-2.2615,-2.2463,-2.2278,-2.2278,-2.2278,-2.2278,-2.2278,-2.2278,-2.2278,-2.2278,-2.2768,-2.3348,-2.3681,-2.4354,-2.491,-2.4966,-2.5005,-2.5005,-2.506,-2.5045,-2.51,-2.5123,-2.5139,-2.5139,-2.5139,-2.5139,-2.5178,-2.5333,-2.5371,-2.49,-2.3601,-2.3474,-2.3633,-2.3994,-2.4169,-2.4503,-2.5091,-2.5492,-2.5795,-2.6139,-2.6539,-2.6908,-2.7282,-2.7299,-2.7264,-2.7198,-2.7198,-2.7166,-2.7169,-2.7736,-2.8029,-1.8116,-1.8988,-1.99,-1.9089,-1.9095,-1.8998,-1.7766,-1.7773,-1.7509,-1.568,-1.5571,-1.54,-1.4028,-1.3182,-1.3184,0.0,0.0,-1.5343,-1.7599,-1.7807,-1.7846,-1.8118,0.0,0.0,-1.6657,-1.5963,-1.5394,-1.5175,-1.5385,-1.6358,-1.8161,-1.8552,-1.8552,-1.8071,-1.8062,-1.7882,-1.7653,-1.83,-1.9003,-1.9758,-2.0477,-2.1145,-2.1769,-2.1769,-2.1792,-2.1804,-2.1398,-2.1258,0.0,-2.1138,-2.1403,-2.2035,-2.2587,-2.319,-2.3719,-2.3603,-2.354,-2.3412,-2.2887,-2.2658,-2.2615,-2.2615,-2.2555,-2.2555,-2.2555,-2.2555,-2.2555,-2.2555,-2.2555,-2.2555,-2.2555,-2.2889,-2.3391,-2.4142,-2.4389,-2.4583,-2.491,-2.5005,-2.5045,-2.5256,-2.5256,-2.5333,-2.5502,-2.5524,-2.5524,-2.5524,-2.5524,-2.554,-2.5578,-2.5578,-2.553,-2.5384,-2.533,-2.5125,-2.4511,-2.5077,-2.546,-2.5524,-2.5578,-2.5844,-2.6349,-2.6418,-2.6708,-2.7299,-2.7299,-2.7345,-2.7465,-2.7465,-2.7509,-2.7642,-2.763,-2.7557,-1.8158,-1.9017,-1.9629,-1.8782,-1.8424,-1.7987,-1.6897,-1.6781,-1.6489,-1.5153,-1.4661,-1.4169,-1.3442,-1.2508,-1.2182,0.0,0.0,0.0,-1.5888,-1.6922,-1.7568,-1.7652,-1.7874,-1.7648,0.0,0.0,-1.516,-1.4399,-1.4904,-1.5608,-1.656,-1.7242,-1.7631,-1.7726,-1.7716,-1.7631,-1.747,-1.8182,-1.8643,-1.8967,-2.0042,-2.0839,-2.1221,-2.1295,-2.1473,-2.162,-2.1139,-2.0969,0.0,-2.0958,-2.13,-2.1847,-2.2089,-2.2528,-2.3045,-2.3089,-2.3062,-2.3066,-2.2853,-2.2797,-2.2797,-2.2797,-2.2797,-2.2752,-2.2661,-2.2615,-2.2615,-2.2615,-2.2615,-2.2615,-2.2615,-2.3157,-2.3948,-2.4784,-2.5098,-2.5253,-2.5492,-2.5546,-2.5546,-2.5637,-2.5659,-2.5712,-2.5749,-2.5787,-2.5787,-2.5787,-2.5787,-2.5787,-2.5787,-2.5787,-2.5787,-2.5787,-2.5696,-2.5529,-2.5195,-2.5737,-2.6046,-2.5977,-2.621,-2.6556,-2.6922,-2.6954,-2.7132,-2.7539,-2.7539,-2.7569,-2.763,-2.763,-2.7642,-2.7701,-2.7631,-2.7572,-1.734,-1.8362,-1.9116,-1.846,-1.784,-1.7253,-1.6486,-1.6138,-1.5728,-1.4966,-1.4141,-1.3469,-1.3116,-1.2163,-1.1572,0.0,0.0,-1.3418,-1.4316,-1.5779,-1.6786,-1.6885,0.0,-1.758,-1.6766,-1.5928,-1.5049,-1.4097,-1.4482,-1.509,-1.5745,-1.6175,-1.6774,-1.7608,-1.7676,-1.7619,-1.7494,-1.7937,-1.8314,-1.863,-1.9606,-2.0387,-2.0935,-2.1009,-2.1198,-2.1409,-2.0872,-2.0697,0.0,-2.0613,-2.0924,-2.1467,-2.1612,-2.207,-2.2582,-2.2755,-2.2841,-2.2886,-2.2947,-2.2862,-2.2746,-2.2746,-2.2571,-2.2411,-2.2279,-2.2449,-2.2663,-2.2521,-2.2464,-2.2584,-2.2834,-2.3573,-2.4477,-2.5323,-2.5642,-2.5791,-2.5881,-2.5897,-2.5897,-2.5897,-2.5897,-2.5897,-2.5897,-2.5717,-2.5635,-2.5864,-2.5701,-2.5635,-2.5864,-2.599,-2.6063,-2.6063,-2.6049,-2.6013,-2.5844,-2.6279,-2.6522,-2.642,-2.6723,-2.7034,-2.7303,-2.7303,-2.7426,-2.7683,-2.7701,-2.773,-2.7806,-2.7806,-2.7806,-2.7864,-2.7783,-2.7783,-1.4886,-1.6518,-1.8248,-1.816,-1.7537,-1.7014,-1.6907,-1.615,-1.5437,-1.5142,-1.4369,-1.3584,-1.3236,-1.2158,-1.1447,-1.1871,-1.1976,0.0,-1.3039,-1.425,-1.5212,-1.5621,-1.6461,-1.6984,-1.6826,-1.5731,-1.4809,-1.416,-1.4137,0.0,-1.5939,-1.5575,-1.617,-1.793,-1.8008,-1.7812,-1.7393,-1.7393,-1.792,-1.8917,-1.8917,-1.9631,-2.0986,-2.0986,-2.0986,-2.0962,-2.041,-2.0232,0.0,-1.98,-1.9939,-2.0485,-2.1153,-2.1732,-2.2245,-2.2706,-2.2992,-2.3082,-2.3082,-2.2746,-2.2317,-2.2317,-2.1848,-2.1318,-2.1318,-2.2046,-2.2802,-2.2236,-2.2189,-2.2512,-2.3374,-2.4068,-2.4823,-2.5696,-2.5897,-2.5897,-2.5897,-2.5897,-2.5897,-2.5897,-2.5897,-2.5897,-2.5897,-2.5291,-2.5045,-2.5783,-2.5275,-2.5078,-2.5799,-2.6189,-2.6383,-2.6383,-2.674,-2.6839,-2.6418,-2.6691,-2.6888,-2.6888,-2.6888,-2.7034,-2.7303,-2.7303,-2.7426,-2.7683,-2.7701,-2.7806,-2.8014,-2.8014,-2.8071,-2.8182,-2.8182,-2.8182,-1.4213,-1.5618,-1.6772,-1.6938,-1.6629,-1.6047,-1.5366,-1.4526,-1.3787,-1.3371,-1.2671,-1.2258,-1.2643,-1.2218,-1.1891,-1.2244,-1.2613,0.0,0.0,-1.4259,-1.4787,-1.4504,-1.5263,-1.5883,0.0,0.0,-1.4872,-1.4159,-1.4065,-1.4502,-1.5442,-1.5375,-1.6094,-1.7899,-1.7611,-1.7392,-1.7252,-1.7252,-1.7425,-1.7771,-1.8654,-1.9301,-1.9703,-2.0234,-2.0477,-2.0551,-2.0007,-1.9614,-1.9407,-1.9633,-1.9648,-1.9559,-2.0601,-2.1029,-2.1204,-2.1778,-2.1961,-2.188,-2.188,-2.1748,-2.1613,-2.1613,-2.1465,-2.1304,-2.1304,-2.1557,-2.1882,-2.2159,-2.2483,-2.2823,-2.3398,-2.4265,-2.5064,-2.517,-2.5576,-2.599,-2.6096,-2.57,-2.5337,-2.5337,-2.4941,-2.4595,-2.4595,-2.4397,-2.4314,-2.4562,-2.438,-2.4331,-2.4562,-2.533,-2.5662,-2.5075,-2.6061,-2.6506,-2.5976,-2.6868,-2.72,-2.6588,-2.7327,-2.7818,-2.7922,-2.7922,-2.7968,-2.8025,-2.8053,-2.8053,-2.8126,-2.8126,-2.8154,-2.8182,-2.8182,-2.8182,0.0,-1.4326,-1.5392,-1.5657,-1.5425,-1.4923,-1.4322,-1.342,-1.271,-1.2662,-1.1983,-1.1668,-1.2552,-1.2274,-1.208,-1.2467,-1.2747,-1.2976,-1.3138,-1.386,-1.4301,-1.4057,-1.4744,0.0,0.0,-1.5499,-1.5126,-1.4348,-1.4324,-1.4562,-1.5098,-1.5122,-1.5806,-1.7256,-1.7229,-1.7089,-1.6918,-1.6918,-1.7012,-1.7131,-1.7943,-1.8563,-1.908,-1.9557,-1.9912,-2.0195,-1.9697,-1.9321,0.0,-1.9294,-1.9241,-1.9201,-1.9921,-2.0381,-2.0687,-2.1111,-2.1309,-2.1385,-2.1385,-2.1222,-2.107,-2.107,-2.0892,-2.0685,-2.0685,-2.0823,-2.1104,-2.1634,-2.2043,-2.2378,-2.2944,-2.4021,-2.4878,-2.4623,-2.5122,-2.562,-2.5407,-2.526,-2.5162,-2.5162,-2.478,-2.4464,-2.4464,-2.3999,-2.3701,-2.3983,-2.3816,-2.3797,-2.4191,-2.4927,-2.5257,-2.4849,-2.576,-2.61,-2.5408,-2.6669,-2.7278,-2.6727,-2.7691,-2.8264,-2.8264,-2.8264,-2.8264,-2.8264,-2.8264,-2.8264,-2.8264,-2.8246,-2.8228,-2.8228,-2.8246,-2.8309,0.0,-1.2773,-1.4062,-1.4266,-1.4042,-1.3761,-1.373,0.0,0.0,-1.2761,-1.2097,-1.1736,-1.2727,-1.2325,-1.2013,-1.2436,-1.2514,-1.2627,-1.2893,-1.3196,-1.3643,-1.4153,-1.4644,-1.4988,-1.5112,-1.5408,-1.5339,-1.4585,-1.456,-1.458,-1.4763,-1.4765,-1.5242,-1.6168,-1.6758,-1.6869,-1.6517,-1.6517,-1.665,-1.6955,-1.6978,-1.7677,-1.8874,-1.8903,-1.9297,0.0,-1.9369,-1.9213,0.0,-1.8712,-1.8747,-1.9194,-1.9234,-1.9784,-2.0542,-2.0584,-2.0901,-2.1332,-2.1386,-2.1063,-2.0647,-2.0647,-2.0213,-1.9726,-1.9726,-2.005,-2.0504,-2.0879,-2.11,-2.1388,-2.2163,-2.3365,-2.4346,-2.4017,-2.4481,-2.4862,-2.4216,-2.4647,-2.5163,-2.5213,-2.518,-2.5146,-2.5146,-2.4012,-2.3345,-2.4046,-2.3558,-2.3493,-2.4505,-2.4896,-2.5143,-2.542,-2.5736,-2.5596,-2.4787,-2.6242,-2.7176,-2.7122,-2.7913,-2.8398,-2.8398,-2.8398,-2.8398,-2.8398,-2.8398,-2.8398,-2.8398,-2.8326,-2.8308,-2.8308,-2.838,-2.8442,-0.9334,0.0,-1.2052,-1.2729,-1.3204,-1.3392,0.0,0.0,0.0,0.0,0.0,-1.1658,-1.2005,-1.2304,-1.245,-1.2452,-1.2984,-1.3355,-1.3037,-1.2696,-1.2731,-1.3242,-1.2945,-1.3048,-1.3989,-1.4166,-1.4049,-1.3777,-1.3851,-1.3857,-1.3684,-1.367,-1.4183,-1.5257,-1.5359,-1.5695,-1.6413,-1.6644,-1.6639,-1.6534,-1.6809,-1.7202,-1.7769,-1.8103,-1.8471,-1.8856,-1.8716,0.0,-1.8131,-1.8392,-1.8344,-1.8131,-1.865,-1.8892,-1.9055,-1.9475,-1.9627,-1.9704,-2.008,-2.0137,-2.0053,-2.0125,-2.0056,-1.9919,-1.9919,-1.9918,-1.9997,-2.0618,-2.1036,-2.1368,-2.1774,-2.2788,-2.3632,-2.3305,-2.3799,-2.4447,-2.4913,-2.4712,-2.4628,-2.5246,-2.4895,-2.451,-2.451,-2.4208,-2.4118,-2.4499,-2.3935,-2.3876,-2.4923,-2.4769,-2.46,-2.464,-2.4962,-2.4838,-2.4086,-2.5985,-2.6943,-2.6314,-2.7607,-2.8398,-2.8398,-2.8398,-2.8398,-2.8398,-2.8398,-2.8398,-2.8398,-2.8326,-2.8326,-2.838,-2.846,-2.846,-0.8555,-0.9833,-1.1124,-1.2058,-1.2494,-1.2788,-1.2905,0.0,0.0,0.0,0.0,-1.1706,-1.1911,-1.2297,-1.2618,-1.2684,-1.2939,-1.3133,-1.2979,-1.2496,-1.2175,-1.2388,-1.2089,-1.2213,0.0,-1.3375,-1.3508,-1.3623,-1.3536,-1.3353,-1.3022,-1.3259,-1.3683,-1.4291,-1.4609,-1.5161,-1.606,-1.6213,-1.6213,-1.606,-1.6264,-1.6602,-1.7053,-1.741,-1.7869,-1.8342,-1.8272,0.0,-1.7867,-1.7893,-1.7725,-1.7523,-1.7878,-1.8219,-1.8563,-1.8873,-1.9185,-1.9472,-1.9777,-1.9884,-1.9884,-1.997,-2.0005,-2.0005,-2.0005,-2.0045,-2.0126,-2.0502,-2.0899,-2.1232,-2.1534,-2.246,-2.3176,-2.2665,-2.3376,-2.4195,-2.4293,-2.4592,-2.4943,-2.5346,-2.5126,-2.4922,-2.5045,-2.4805,-2.4688,-2.4942,-2.4653,-2.4687,-2.5385,-2.5214,-2.5091,-2.5195,-2.5049,-2.4924,-2.4892,-2.602,-2.6555,-2.6123,-2.7601,-2.8484,-2.8484,-2.8484,-2.8484,-2.8484,-2.8484,-2.8484,-2.8484,-2.8466,-2.8466,-2.8484,-2.8521,-2.8521,-0.8256,-0.9452,-1.0597,-1.1731,-1.1922,-1.2114,-1.2985,0.0,0.0,0.0,0.0,0.0,-1.1999,-1.2148,-1.2338,-1.2761,-1.2641,-1.2628,-1.2875,-1.2369,-1.1893,-1.1742,-1.164,0.0,-1.2343,-1.2641,-1.3,-1.3502,-1.3238,-1.2919,-1.2508,-1.2968,-1.329,-1.3387,-1.4021,-1.4749,-1.5484,-1.5574,-1.565,-1.5701,-1.5687,-1.5947,-1.6497,-1.6773,-1.7266,-1.797,0.0,0.0,-1.7961,-1.7492,-1.7282,-1.724,-1.7282,-1.772,-1.8383,-1.8577,-1.9072,-1.969,-1.9919,-2.0041,-2.0041,-2.0041,-2.0041,-2.0041,-2.0041,-2.0239,-2.0462,-2.0494,-2.073,-2.1071,-2.1415,-2.2151,-2.2725,-2.2149,-2.3053,-2.3924,-2.3469,-2.4505,-2.5562,-2.5663,-2.568,-2.581,-2.6124,-2.5652,-2.534,-2.5682,-2.5685,-2.5799,-2.6172,-2.6025,-2.6009,-2.6343,-2.566,-2.5461,-2.6149,-2.6312,-2.6385,-2.6385,-2.7773,-2.8587,-2.8587,-2.8587,-2.8587,-2.8587,-2.8587,-2.8612,-2.8612,-2.8594,-2.8612,-2.8637,-2.8637,-2.8637,-0.8117,-0.8998,-0.9859,-1.1162,-1.1607,-1.1844,-1.213,0.0,0.0,0.0,0.0,0.0,0.0,-1.1198,-1.1077,-1.1827,-1.2332,-1.2587,-1.2757,-1.228,-1.1759,-1.1282,0.0,-1.0633,-1.1022,-1.1453,-1.1835,-1.2182,-1.2382,-1.2377,-1.2025,-1.2108,-1.2391,-1.2919,-1.2909,-1.3448,-1.4591,-1.515,-1.5547,-1.5701,-1.5549,-1.5691,-1.6101,-1.5892,-1.6219,-1.6921,0.0,-1.7303,-1.7608,-1.7747,-1.7666,-1.7475,-1.7706,-1.7733,-1.7747,-1.8549,-1.893,-1.9118,-1.9839,-2.015,-2.0235,-2.0235,-2.0235,-2.0235,-2.0235,-2.0304,-2.0323,-2.0339,-2.063,-2.1071,-2.1415,-2.162,-2.1823,-2.2082,-2.2807,-2.3594,-2.4191,-2.4968,-2.5762,-2.6404,-2.6539,-2.6622,-2.6946,-2.6905,-2.7018,-2.7591,-2.7157,-2.7102,-2.8041,-2.6989,-2.641,-2.7121,-2.6512,-2.6077,-2.6204,-2.6819,-2.7236,-2.7236,-2.808,-2.8587,-2.8587,-2.8587,-2.8587,-2.8587,-2.8587,-2.8637,-2.8669,-2.8633,-2.8658,-2.8761,-2.8761,-2.8761,-0.7338,-0.8262,-0.9172,-0.999,-1.0842,-1.1642,-1.2179,0.0,0.0,0.0,0.0,0.0,0.0,0.0,-1.0275,-1.1055,-1.1657,-1.2093,-1.2288,-1.1831,-1.1395,0.0,0.0,-1.0309,-1.0863,-1.0724,-1.1073,-1.2056,-1.185,-1.1762,-1.1986,-1.2076,-1.2215,-1.2501,-1.2272,-1.2537,-1.333,-1.3647,-1.4363,-1.5367,-1.5344,-1.5417,-1.5637,-1.5754,-1.6163,-1.6723,0.0,-1.7352,-1.7747,-1.7842,-1.7828,-1.7747,-1.7842,-1.7935,-1.8147,-1.902,-1.9479,-1.9696,-2.008,-2.027,-2.0304,-2.0304,-2.0304,-2.0304,-2.0304,-2.0441,-2.0595,-2.0811,-2.0991,-2.1197,-2.1354,-2.1972,-2.2458,-2.2281,-2.3435,-2.4546,-2.4509,-2.5389,-2.6285,-2.6623,-2.6858,-2.7085,-2.7413,-2.7607,-2.7897,-2.8378,-2.8167,-2.8153,-2.8633,-2.8058,-2.7749,-2.8112,-2.744,-2.7131,-2.7567,-2.7549,-2.7671,-2.8082,-2.8445,-2.8662,-2.8712,-2.8712,-2.8712,-2.8712,-2.8712,-2.8712,-2.8761,-2.8761,-2.8761,-2.8785,-2.8846,-2.8846,-0.644,-0.7461,-0.835,-0.876,0.0,-1.1114,-1.1747,-1.096,0.0,0.0,0.0,0.0,0.0,-0.9356,-0.9463,-0.9877,-1.0627,-1.1215,-1.1295,-1.1204,-1.0955,-1.0542,-1.0221,-1.0205,-1.0739,-1.037,-1.06,-1.1812,-1.1427,-1.1427,-1.1977,-1.2083,-1.2134,-1.2183,-1.1827,-1.1878,-1.2268,-1.2323,-1.3206,-1.4834,-1.5025,-1.5241,-1.5345,-1.5736,-1.612,-1.6552,-1.6976,-1.7406,-1.7828,-1.7963,-1.8003,-1.7963,-1.8003,-1.8333,-1.8822,-1.953,-2.0045,-2.0373,-2.0407,-2.0407,-2.0407,-2.0407,-2.0407,-2.0441,-2.0478,-2.0679,-2.0942,-2.1276,-2.1546,-2.1689,-2.1573,-2.2478,-2.3287,-2.2728,-2.415,-2.552,-2.4958,-2.589,-2.6873,-2.6873,-2.7132,-2.7474,-2.78,-2.8047,-2.8334,-2.8669,-2.8761,-2.8785,-2.8785,-2.8785,-2.8785,-2.8785,-2.8263,-2.8135,-2.8749,-2.8244,-2.813,-2.8707,-2.8718,-2.8761,-2.8785,-2.8785,-2.8785,-2.8785,-2.8785,-2.881,-2.881,-2.887,-2.887,-2.8834,-2.8912,-2.8912,-0.5803,-0.6702,-0.7321,-0.7797,-0.8848,0.0,-0.9839,-0.9319,0.0,-0.9346,0.0,0.0,0.0,-0.8637,-0.8374,-0.8028,-0.9052,-0.9822,-0.9607,0.0,-1.0329,-1.0263,-1.0101,-1.0071,-1.0167,-1.0376,-1.0512,-1.0615,-1.1034,-1.1427,-1.1719,-1.167,-1.1705,-1.1846,-1.145,-1.1489,-1.195,-1.1953,-1.2645,-1.3982,-1.4482,-1.4998,-1.5468,-1.5513,-1.5724,-1.6076,-1.674,-1.7214,-1.7557,-1.8189,-1.8361,-1.8202,-1.84,-1.8812,-1.9413,-1.9904,-2.0254,-2.0527,-2.0695,-2.0761,-2.0761,-2.0761,-2.0761,-2.0778,-2.0991,-2.107,-2.115,-2.1415,-2.2198,-2.2852,-2.2348,-2.288,-2.3493,-2.3442,-2.4675,-2.5863,-2.5794,-2.6626,-2.7348,-2.7348,-2.7619,-2.7954,-2.8219,-2.8272,-2.8394,-2.8743,-2.8785,-2.8785,-2.8785,-2.8785,-2.8785,-2.8785,-2.8749,-2.8731,-2.8785,-2.8749,-2.8779,-2.8881,-2.8834,-2.8785,-2.8785,-2.8785,-2.8785,-2.8785,-2.8785,-2.8834,-2.8905,-2.8905,-2.8929,-2.8994,-2.8994,-2.8994,-0.4782,-0.6197,-0.7327,-0.6839,-0.7853,0.0,0.0,-0.7987,-0.7723,-0.7853,-0.7529,0.0,0.0,0.0,-0.7028,-0.7188,-0.7943,-0.8695,-0.917,-0.9531,-0.9822,-0.9943,-1.0027,-0.9984,-0.9814,-0.9909,-1.0181,-1.0601,-1.0403,-1.0582,-1.1354,-1.1166,-1.1186,-1.1521,-1.1277,-1.1172,-1.1204,-1.1287,-1.184,-1.2883,-1.3933,-1.467,-1.514,-1.5504,-1.5913,-1.6337,-1.6892,-1.7352,-1.772,-1.8268,-1.8478,-1.84,-1.8478,-1.8965,-1.9617,-1.9732,-2.0189,-2.0695,-2.0761,-2.0794,-2.0794,-2.0794,-2.0861,-2.0991,-2.107,-2.1213,-2.1399,-2.1718,-2.2412,-2.3033,-2.2841,-2.3879,-2.4876,-2.4415,-2.5456,-2.6507,-2.6191,-2.6797,-2.7439,-2.7648,-2.7964,-2.8166,-2.8298,-2.8515,-2.8725,-2.8839,-2.8905,-2.8905,-2.8905,-2.8905,-2.8905,-2.8905,-2.8905,-2.8905,-2.8905,-2.8905,-2.8947,-2.8952,-2.8905,-2.8881,-2.8905,-2.8905,-2.898,-2.9119,-2.9119,-2.9129,-2.9223,-2.9297,-2.9318,-2.9243,-2.9318,-2.9375,-0.4788,-0.6148,-0.7229,-0.6539,0.0,0.0,-0.6904,-0.6713,-0.6665,-0.6764,-0.6669,-0.6457,-0.635,0.0,0.0,0.0,-0.7155,-0.7755,-0.8207,-0.8848,-0.9317,-0.9462,-0.9669,-0.9794,-0.9731,-0.966,-0.9807,-1.0226,-0.9857,-0.9915,-1.0617,-1.0615,-1.0761,-1.1075,-1.0947,-1.0794,-1.0682,-1.0762,-1.1139,-1.182,-1.3233,-1.4281,-1.4963,-1.5536,-1.5969,-1.6306,-1.6947,-1.7352,-1.7679,-1.8307,-1.8482,-1.8323,-1.8261,-1.86,-1.9116,-1.9326,-1.9727,-2.0194,-2.0257,-2.0448,-2.0639,-2.0639,-2.0895,-2.1181,-2.1337,-2.1521,-2.1718,-2.2113,-2.275,-2.3376,-2.3613,-2.4798,-2.5805,-2.5309,-2.6165,-2.7014,-2.6795,-2.7221,-2.7736,-2.8065,-2.8334,-2.8515,-2.8515,-2.8749,-2.8929,-2.8929,-2.8952,-2.8994,-2.8994,-2.8994,-2.8994,-2.8994,-2.9067,-2.9093,-2.9093,-2.916,-2.9203,-2.9225,-2.9185,-2.9115,-2.9017,-2.9067,-2.916,-2.9293,-2.9293,-2.9339,-2.9458,-2.9495,-2.9495,-2.9458,-2.9607,-2.9645,-0.584,-0.6559,-0.6907,0.0,0.0,0.0,-0.528,-0.5479,-0.6022,-0.6299,-0.6179,-0.6098,-0.6243,-0.612,0.0,-0.5587,-0.6651,-0.7289,-0.6615,-0.7787,-0.8737,-0.8804,-0.9007,-0.9361,-0.9852,-0.9652,-0.9394,-0.9197,-0.9518,-0.9636,-0.9498,-1.0074,-1.0368,-1.0419,-1.0409,-1.038,-1.038,-1.038,-1.0572,-1.0937,-1.24,-1.38,-1.5096,-1.5558,-1.5792,-1.5836,-1.6778,-1.7199,-1.7282,-1.8307,-1.8394,-1.7877,-1.7766,-1.7747,-1.7925,-1.8633,-1.8914,-1.8943,-1.9131,-1.969,-2.0321,-2.0321,-2.0774,-2.1402,-2.1853,-2.1998,-2.2113,-2.2561,-2.3219,-2.3977,-2.4798,-2.5498,-2.6004,-2.6004,-2.6668,-2.7359,-2.7659,-2.7926,-2.8183,-2.8551,-2.8834,-2.8994,-2.8994,-2.8994,-2.8994,-2.8994,-2.8994,-2.8994,-2.9017,-2.8994,-2.8994,-2.9017,-2.9185,-2.9293,-2.9293,-2.9494,-2.9626,-2.9699,-2.9698,-2.9494,-2.904,-2.9206,-2.9314,-2.9314,-2.9314,-2.9415,-2.9608,-2.9474,-2.9475,-2.9608,-2.9737,-2.9719,-0.5295,-0.6402,0.0,-0.5884,0.0,0.0,0.0,-0.5617,0.0,0.0,-0.6693,-0.6518,-0.6777,-0.6561,0.0,-0.6495,-0.6655,-0.6941,-0.7383,-0.7896,-0.8339,-0.8764,-0.9062,-0.9252,-0.9197,-0.9286,-0.9351,-0.9251,-0.9156,-0.9173,-0.9489,-0.9426,-0.9668,-1.0181,-1.0264,-1.039,-1.0544,-1.0621,-1.0831,-1.1105,-1.2236,-1.3225,-1.4136,-1.5389,-1.5957,-1.6001,-1.6693,-1.7157,-1.7475,-1.8397,-1.8684,-1.8507,-1.8021,-1.8495,-1.9375,-1.9134,-1.9688,-2.0586,-2.0647,-2.0823,-2.1017,-2.1017,-2.1376,-2.1823,-2.1969,-2.2226,-2.2535,-2.2659,-2.3219,-2.3977,-2.4798,-2.5704,-2.6516,-2.6847,-2.7126,-2.7421,-2.7869,-2.8047,-2.8237,-2.8791,-2.8947,-2.8994,-2.8994,-2.8994,-2.9017,-2.9044,-2.9085,-2.9085,-2.9134,-2.9089,-2.9108,-2.9152,-2.9272,-2.9378,-2.9378,-2.9551,-2.9697,-2.9697,-2.9834,-2.9801,-2.9495,-2.9551,-2.9643,-2.9782,-2.9782,-2.9899,-3.009,-3.0047,-3.0047,-3.009,-3.0123,-3.0123,-0.5642,-0.647,0.0,-0.5574,-0.6244,-0.713,-0.6391,0.0,0.0,0.0,-0.7479,-0.7318,-0.7716,-0.7472,0.0,-0.726,-0.7281,-0.7397,-0.7476,-0.7865,-0.8189,-0.8477,-0.8838,-0.8989,-0.8877,-0.9147,-0.922,-0.8989,-0.9004,-0.9056,-0.919,-0.9176,-0.9368,-0.9765,-1.001,-1.0205,-1.0467,-1.0554,-1.0814,-1.1266,-1.2002,-1.276,-1.3552,-1.5073,-1.577,-1.5825,-1.6718,-1.7274,-1.7501,-1.7881,-1.7934,-1.7741,-1.7325,-1.7906,-1.8944,-1.8765,-1.9287,-2.0078,-2.037,-2.0467,-2.0546,-2.0882,-2.1401,-2.1928,-2.2101,-2.2343,-2.2596,-2.2685,-2.3039,-2.3557,-2.4455,-2.516,-2.5943,-2.7165,-2.7539,-2.776,-2.8201,-2.8308,-2.8438,-2.8905,-2.8994,-2.9017,-2.904,-2.904,-2.9044,-2.9112,-2.9181,-2.923,-2.9251,-2.9314,-2.9355,-2.9395,-2.9533,-2.9642,-2.9642,-2.9815,-2.9946,-2.9943,-3.0052,-3.008,-2.9992,-2.9864,-2.9883,-2.9992,-2.9992,-3.0085,-3.0292,-3.0305,-3.0305,-3.0292,-3.0305,-3.0305,-0.628,-0.6446,-0.612,-0.5671,-0.6308,0.0,-0.7151,-0.6946,-0.7102,-0.8266,0.0,-0.829,-0.8756,-0.8706,-0.8484,-0.8032,-0.8343,-0.8336,-0.7386,-0.7903,-0.8257,-0.8131,-0.8364,-0.8611,-0.8707,-0.9009,-0.9003,-0.8501,-0.894,-0.9079,-0.8716,-0.9199,-0.9439,-0.9359,-0.9655,-0.9941,-1.0283,-1.0322,-1.0696,-1.1338,-1.18,-1.2414,-1.3215,-1.4684,-1.5389,-1.5496,-1.6779,-1.7327,-1.7237,-1.7015,-1.667,-1.6291,-1.6172,-1.6613,-1.7341,-1.786,-1.8108,-1.8297,-1.8973,-1.9248,-1.9439,-2.0307,-2.1085,-2.1814,-2.222,-2.2377,-2.246,-2.2659,-2.2712,-2.292,-2.3929,-2.4243,-2.4831,-2.7137,-2.7847,-2.8094,-2.8533,-2.8601,-2.8694,-2.897,-2.9017,-2.9021,-2.9112,-2.9134,-2.9156,-2.9225,-2.9357,-2.9438,-2.9438,-2.9588,-2.9713,-2.9713,-2.988,-3.0007,-3.0007,-3.0188,-3.0318,-3.0304,-3.0316,-3.0336,-3.0398,-3.0174,-3.0041,-3.0041,-3.0041,-3.0133,-3.0324,-3.0323,-3.0316,-3.0318,-3.0328,-3.0328,-0.5661,-0.5137,0.0,-0.5157,-0.6133,-0.5622,-0.1015,-0.0386,-0.2445,-0.8074,-0.9008,-0.892,-0.9255,-0.9426,-0.9452,-0.9258,-0.9059,-0.8884,-0.8677,-0.8507,-0.8374,-0.8338,-0.8303,-0.8232,-0.8031,-0.8179,-0.8254,-0.8135,-0.8553,-0.8797,-0.8716,-0.9119,-0.9448,-0.9695,-0.9783,-0.9892,-1.0118,-1.0544,-1.0999,0.0,-1.1894,-1.2351,-1.2952,-1.4393,-1.5294,-1.568,-1.6111,-1.6298,-1.6345,-1.6886,-1.7093,-1.6957,-1.6695,-1.7167,-1.7976,-1.7827,-1.8294,-1.8989,-1.9151,-1.956,-2.0094,-2.03,-2.1101,-2.194,-2.2073,-2.2326,-2.2632,-2.2685,-2.2712,-2.2946,-2.3989,-2.4417,-2.5106,-2.7067,-2.733,-2.745,-2.8449,-2.8644,-2.8676,-2.9021,-2.9085,-2.9138,-2.9316,-2.9357,-2.9398,-2.9644,-2.9697,-2.9731,-2.9784,-2.9784,-2.9801,-2.9851,-2.9992,-3.008,-3.008,-3.0254,-3.0386,-3.0379,-3.0379,-3.0379,-3.0398,-3.0343,-3.0299,-3.0299,-3.0299,-3.0343,-3.0386,-3.043,-3.0433,-3.0375,-3.0498,-3.0532,-0.5129,0.0,0.0,-0.6335,0.0,-0.1583,0.0834,0.3792,0.4779,0.0346,-0.2468,-0.534,-0.9379,-0.9933,-0.9881,-1.0053,-0.9642,-0.9293,-0.9173,-0.8778,-0.8493,-0.8491,-0.8234,-0.794,-0.7666,-0.7891,-0.8012,-0.7881,-0.8258,-0.8618,-0.8846,-0.8999,-0.9239,-0.9634,-0.9576,-0.9686,-0.9971,-1.0235,-1.0875,-1.1861,-1.1636,-1.2069,-1.3077,-1.4021,-1.4829,-1.5489,-1.5779,-1.5802,-1.5659,-1.6355,-1.6496,-1.6352,-1.6323,-1.6939,-1.7863,-1.7792,-1.8194,-1.8811,-1.917,-1.9316,-1.9442,-2.0036,-2.0866,-2.1657,-2.1883,-2.241,-2.2893,-2.2893,-2.2893,-2.3065,-2.3809,-2.4127,-2.4725,-2.6695,-2.7301,-2.7694,-2.8722,-2.891,-2.8934,-2.9112,-2.9152,-2.9203,-2.9418,-2.9533,-2.9678,-2.9817,-2.9899,-2.9962,-2.9992,-3.0056,-3.0099,-3.0133,-3.0202,-3.0241,-3.0241,-3.0343,-3.0398,-3.0398,-3.0398,-3.0414,-3.0449,-3.0449,-3.0428,-3.041,-3.0398,-3.0414,-3.0449,-3.0472,-3.0528,-3.0532,-3.0559,-3.0593,-0.5026,0.0,-0.6619,-0.7859,-0.2851,0.0,0.2129,0.7852,1.2867,1.1523,0.6683,0.0631,-0.6169,-0.7016,-0.6885,-0.7284,-0.777,-0.8014,-0.7682,-0.8073,-0.8403,-0.8413,-0.8034,-0.7727,-0.7483,-0.7774,-0.7875,-0.7645,-0.8055,-0.8454,-0.8798,-0.8886,-0.9079,-0.9395,-0.9377,-0.9496,-0.9744,-0.9823,-1.0633,-1.2172,-1.1523,-1.1914,-1.3188,-1.3533,-1.4224,-1.5043,-1.5372,-1.5278,-1.5046,-1.5604,-1.5624,-1.5359,-1.5755,-1.6447,-1.7267,-1.7531,-1.7786,-1.8137,-1.8794,-1.8706,-1.8473,-1.9521,-2.0476,-2.1276,-2.1718,-2.2422,-2.3095,-2.3095,-2.3126,-2.323,-2.3606,-2.3735,-2.426,-2.6334,-2.7317,-2.8073,-2.8997,-2.9218,-2.92,-2.9218,-2.9267,-2.9373,-2.9533,-2.9801,-2.9981,-2.9981,-3.0085,-3.015,-3.015,-3.0299,-3.039,-3.0414,-3.0414,-3.0425,-3.0428,-3.0428,-3.0428,-3.0428,-3.0428,-3.0451,-3.05,-3.0528,-3.0501,-3.0436,-3.0417,-3.0462,-3.0528,-3.0527,-3.0587,-3.0691,-3.0607,-3.0613,-0.6226,0.0,-0.8056,0.0,-0.3461,0.2525,0.0,0.0,2.023,0.0,1.3671,0.8165,0.655,0.5862,0.5585,0.5686,0.1533,-0.1642,-0.1342,-0.5027,-0.7698,-0.7635,-0.7507,-0.7373,-0.7419,-0.7454,-0.7496,-0.7461,-0.8082,-0.8357,-0.8051,-0.9018,-0.9426,-0.9065,-0.9426,-0.9594,-0.9554,-1.0019,-1.0716,-1.1644,-1.2296,-1.2623,-1.2615,-1.29,-1.3551,-1.4415,-1.4283,-1.4219,-1.4205,-1.4847,-1.5115,-1.5134,-1.5725,-1.6057,-1.6274,-1.6749,-1.6959,-1.7052,-1.7452,-1.7887,-1.8355,-1.876,-1.9942,-2.125,-2.1547,-2.2324,-2.3095,-2.3095,-2.3188,-2.3346,-2.3692,-2.3881,-2.4463,-2.6431,-2.6971,-2.7472,-2.895,-2.924,-2.9218,-2.928,-2.957,-2.982,-2.9853,-3.0118,-3.033,-3.033,-3.0343,-3.0355,-3.0355,-3.0379,-3.0425,-3.0492,-3.0501,-3.051,-3.0576,-3.0564,-3.0564,-3.0564,-3.0564,-3.0591,-3.0598,-3.0598,-3.0576,-3.0567,-3.0579,-3.0591,-3.0598,-3.0645,-3.0672,-3.0701,-3.0735,-3.0768,-0.747,-0.8393,-0.9265,0.0,-0.4896,0.1618,0.7791,1.5124,2.1553,2.485,2.2946,1.8284,1.0517,0.9114,0.8848,0.8065,0.6034,0.4488,0.4135,0.2014,-0.0442,-0.2876,-0.322,-0.4291,-0.7036,-0.7175,-0.7271,-0.7662,-0.7967,-0.8268,-0.8498,-0.8845,-0.9039,-0.9115,-0.9331,-0.9457,-0.9377,-0.9892,-1.0488,-1.1245,-1.2118,-1.2495,-1.2508,-1.2615,-1.3101,-1.3804,-1.3866,-1.3947,-1.4084,-1.4641,-1.4951,-1.509,-1.5595,-1.5911,-1.6148,-1.6501,-1.6763,-1.6968,-1.7289,-1.7617,-1.7889,-1.8114,-1.9083,-2.0261,-2.0953,-2.1849,-2.2774,-2.3275,-2.3835,-2.4316,-2.4616,-2.5104,-2.5867,-2.723,-2.7585,-2.7921,-2.9191,-2.9434,-2.9474,-2.9608,-2.9834,-3.0007,-3.0007,-3.0228,-3.0398,-3.0398,-3.0398,-3.0398,-3.0398,-3.0398,-3.0402,-3.0439,-3.0449,-3.0471,-3.054,-3.054,-3.0567,-3.0605,-3.0593,-3.0613,-3.0651,-3.0651,-3.0678,-3.0769,-3.0658,-3.0622,-3.0651,-3.0685,-3.0735,-3.0801,-3.0796,-3.0801,-0.8617,0.0,-1.0377,-1.1025,-0.5973,0.0767,0.0,0.0,2.1358,0.0,2.9149,2.6118,1.6118,1.448,1.4171,1.2756,1.1622,1.0648,0.9915,0.8396,0.6123,0.2797,0.2309,0.082,-0.2891,-0.4432,-0.5366,-0.5887,-0.7366,-0.8401,-0.8842,-0.8766,-0.8767,-0.9009,-0.912,-0.9199,-0.9279,-0.9883,-1.0467,-1.1057,-1.1762,-1.2208,-1.2437,-1.2508,-1.2791,-1.3254,-1.3573,-1.3828,-1.4078,-1.4606,-1.4887,-1.5088,-1.5492,-1.5826,-1.612,-1.6421,-1.6686,-1.6942,-1.7362,-1.7515,-1.7522,-1.7721,-1.8483,-1.9507,-2.0499,-2.1493,-2.2489,-2.3433,-2.4353,-2.5096,-2.5348,-2.6073,-2.6984,-2.7959,-2.8184,-2.8446,-2.9383,-2.9644,-2.9734,-2.9869,-3.0007,-3.0109,-3.0109,-3.0267,-3.0398,-3.0398,-3.0414,-3.0425,-3.0429,-3.0444,-3.0455,-3.0467,-3.0487,-3.051,-3.0595,-3.0598,-3.0618,-3.067,-3.0681,-3.07,-3.0759,-3.0759,-3.0808,-3.0897,-3.0735,-3.0681,-3.0759,-3.0759,-3.0798,-3.0903,-3.0841,-3.0821,-0.9709,-1.0243,0.0,-1.1744,-0.6385,0.056,0.0,0.0,2.0964,2.7773,2.9145,2.8925,2.8269,2.7558,2.6774,2.5853,2.095,1.7042,1.6488,1.2043,0.8766,0.8491,0.845,0.8208,0.7651,0.2718,-0.045,-0.0497,-0.5864,-0.8941,-0.8533,-0.8941,-0.8958,-0.8538,-0.8668,-0.8918,-0.9279,-1.0147,-1.0764,-1.118,-1.1612,-1.1943,-1.2246,-1.2556,-1.2709,-1.2745,-1.322,-1.3573,-1.3888,-1.4525,-1.4808,-1.4887,-1.5522,-1.5799,-1.587,-1.6409,-1.6623,-1.6701,-1.7289,-1.7515,-1.7522,-1.7721,-1.8483,-1.9507,-2.0499,-2.1493,-2.2489,-2.3433,-2.4417,-2.5205,-2.5368,-2.6133,-2.714,-2.8146,-2.8387,-2.8612,-2.942,-2.9751,-2.9886,-2.9902,-3.0007,-3.0109,-3.0109,-3.0267,-3.0398,-3.0398,-3.0441,-3.0491,-3.0498,-3.0559,-3.0608,-3.0683,-3.0679,-3.0741,-3.0863,-3.0888,-3.087,-3.0871,-3.0871,-3.0891,-3.0891,-3.0891,-3.0888,-3.0899,-3.0836,-3.0813,-3.0891,-3.0891,-3.0892,-3.0894,-3.0903,-3.086,-1.1329,0.0,0.0,-1.2145,-1.022,-0.5377,0.5616,1.002,1.507,2.6729,2.9228,2.9111,2.8544,2.8188,2.7724,2.6833,2.449,2.2517,2.1824,1.9634,1.7043,1.4187,1.3502,1.2,0.8767,0.6778,0.5485,0.506,0.3025,0.0141,-0.3573,-0.3693,-0.5282,-0.8844,-0.8842,-0.8998,-0.9469,-1.003,-1.0611,-1.1282,-1.1367,-1.1737,-1.233,-1.2449,-1.2591,-1.278,-1.3173,-1.3514,-1.3854,-1.4525,-1.4856,-1.4966,-1.5418,-1.5797,-1.6108,-1.6463,-1.6727,-1.6933,-1.7338,-1.7515,-1.7498,-1.7592,-1.8387,-1.9463,-2.0338,-2.1401,-2.2511,-2.3578,-2.4522,-2.5264,-2.5522,-2.6617,-2.7941,-2.8988,-2.9399,-2.9631,-2.9912,-3.0122,-3.0222,-3.0222,-3.033,-3.0424,-3.0424,-3.0475,-3.0525,-3.0525,-3.054,-3.0567,-3.0567,-3.0583,-3.0605,-3.0626,-3.0637,-3.0671,-3.0762,-3.0769,-3.0798,-3.0823,-3.0794,-3.078,-3.078,-3.078,-3.0762,-3.0767,-3.0758,-3.0765,-3.0851,-3.0798,-3.0774,-3.0768,-3.0813,-3.0847,-1.2656,0.0,0.0,0.0,-1.2617,-0.9636,0.2065,0.621,1.0948,2.3044,2.7314,2.8667,2.8059,2.7539,2.7042,2.6507,2.5987,2.5356,2.454,2.393,2.25,1.9556,1.8865,1.7381,1.419,1.2276,1.1053,1.063,0.882,0.0,0.1984,0.0235,-0.3166,-0.8863,-0.8997,-0.909,-0.9342,-0.983,-1.0391,-1.0922,-1.1169,-1.1627,-1.2258,-1.2365,-1.2615,-1.2931,-1.3263,-1.3547,-1.3854,-1.4606,-1.4966,-1.5074,-1.5492,-1.5854,-1.6136,-1.6501,-1.6738,-1.6917,-1.7338,-1.7545,-1.7616,-1.7616,-1.8263,-1.9221,-2.0274,-2.1251,-2.2293,-2.3626,-2.4602,-2.5328,-2.5653,-2.7009,-2.8558,-2.9597,-3.0041,-3.0254,-3.0285,-3.0344,-3.0417,-3.0428,-3.0516,-3.0574,-3.0593,-3.0609,-3.059,-3.0598,-3.0627,-3.0623,-3.0623,-3.0657,-3.066,-3.0645,-3.0901,-3.096,-3.0716,-3.0964,-3.1038,-3.078,-3.0715,-3.071,-3.071,-3.071,-3.071,-3.071,-3.0691,-3.0703,-3.0733,-3.0703,-3.0698,-3.0704,-3.0743,-3.0794,0.0,0.0,0.0,0.0,0.0,0.0,-0.3806,0.0,0.9428,1.7213,2.3612,2.784,2.7831,2.6631,2.5706,2.5895,2.5772,2.5405,2.4607,2.4389,2.4338,2.4412,2.4412,2.443,2.45,1.9445,1.6139,1.6139,1.1032,0.7843,0.768,0.254,-0.2863,-0.8292,-0.8875,-0.9003,-0.8818,-0.9692,-1.0145,-1.0234,-1.1084,-1.1627,-1.1909,-1.2318,-1.2708,-1.3091,-1.3446,-1.3695,-1.3841,-1.4735,-1.5104,-1.5165,-1.5754,-1.5955,-1.597,-1.6501,-1.6659,-1.6701,-1.7289,-1.7622,-1.7789,-1.7811,-1.8138,-1.8821,-2.0322,-2.109,-2.1802,-2.3502,-2.4666,-2.5466,-2.576,-2.7231,-2.8871,-2.987,-3.0163,-3.0283,-3.0469,-3.0419,-3.0409,-3.0499,-3.0509,-3.0528,-3.0595,-3.0606,-3.0607,-3.06,-3.0656,-3.0696,-3.0697,-3.0751,-3.0767,-3.0706,-3.1451,-3.1626,-3.076,-3.1466,-3.1598,-3.0752,-3.0694,-3.0694,-3.0694,-3.0694,-3.0694,-3.0694,-3.0617,-3.0588,-3.0588,-3.0656,-3.0694,-3.0694,-3.0714,-3.0733,-1.5669,0.0,0.0,0.0,0.0,0.0,0.1934,0.0,1.1049,2.336,2.7468,2.8747,2.8313,2.751,2.6777,2.6401,2.5574,2.4879,2.4543,2.4598,2.4639,2.4558,2.4532,2.4526,2.4498,2.307,2.2128,0.0,2.0654,1.7956,1.3782,0.8238,0.2725,-0.2689,-0.3465,-0.561,-0.9436,-1.008,-1.0533,-1.0845,-1.0984,-1.1255,-1.1627,-1.2029,-1.2258,-1.2425,-1.3297,-1.3682,-1.3782,-1.456,-1.5058,-1.5315,-1.5507,-1.5854,-1.6289,-1.6436,-1.6712,-1.7068,-1.7232,-1.7448,-1.7681,-1.7878,-1.8521,-1.936,-2.0014,-2.1256,-2.2556,-2.3233,-2.4059,-2.5091,-2.6502,-2.6958,-2.758,-2.9715,-2.9421,-2.9003,-3.0356,-3.0123,-2.9841,-3.0451,-3.0656,-3.0707,-3.0673,-3.0701,-3.0723,-3.0671,-3.0693,-3.0708,-3.0693,-3.0728,-3.0731,-3.0696,-3.0928,-3.095,-3.072,-3.0881,-3.0873,-3.0636,-3.0636,-3.0636,-3.0636,-3.0636,-3.0569,-3.0409,-3.0389,-3.0344,-3.0248,-3.0499,-3.0636,-3.0636,-3.1259,-3.1237,-1.7111,-1.6441,-1.56,-1.5118,0.0,0.0,-0.327,0.0935,0.536,0.0,1.9911,2.3761,2.3756,2.5113,2.622,2.6167,2.5416,2.4785,2.4679,2.472,2.474,2.4695,2.4642,2.4607,2.458,2.4515,2.45,2.45,2.45,2.1971,1.621,1.2744,0.8429,0.2917,-0.008,-0.304,-0.6049,-0.9045,-1.0476,-1.0298,-1.0755,-1.0966,-1.096,-1.1579,-1.2029,-1.233,-1.2963,-1.3522,-1.398,-1.4415,-1.4935,-1.5448,-1.5551,-1.5883,-1.6316,-1.6543,-1.6789,-1.7093,-1.7408,-1.7687,-1.7932,-1.8163,-1.8705,-1.9369,-1.9957,-2.1189,-2.2501,-2.3054,-2.3939,-2.5032,-2.6469,-2.665,-2.6921,-2.8835,-2.8599,-2.8367,-2.9842,-2.9793,-2.968,-3.0494,-3.07,-3.075,-3.0739,-3.0779,-3.0796,-3.0755,-3.073,-3.0711,-3.0672,-3.0668,-3.0656,-3.0656,-3.0907,-3.0974,-3.0685,-3.0835,-3.0794,-3.049,-3.0409,-3.0386,-3.0386,-3.0386,-3.0525,-3.0746,-3.0401,-3.0157,-3.0018,-3.0273,-3.0386,-3.0414,-3.1431,-3.1718,-1.8124,-1.7853,-1.7284,-1.5661,-1.5584,0.0,-1.2885,-0.785,-0.3322,0.0,0.7829,1.6401,1.7221,2.1419,2.4976,2.5664,2.5349,2.4989,2.4912,2.4823,2.4782,2.4835,2.4718,2.4654,2.4707,2.4599,2.4517,2.45,2.45,2.2265,1.7128,1.6838,1.4241,0.8527,0.3152,-0.0082,-0.1097,-0.6783,-0.9565,-0.9373,-1.0493,-1.0735,-1.0225,-1.1046,-1.1825,-1.2484,-1.259,-1.3225,-1.4254,-1.43,-1.478,-1.5522,-1.577,-1.597,-1.6179,-1.667,-1.685,-1.6917,-1.7658,-1.8078,-1.831,-1.8508,-1.8716,-1.9056,-1.9934,-2.0904,-2.1916,-2.2967,-2.412,-2.5196,-2.6021,-2.6307,-2.6634,-2.7676,-2.7785,-2.7941,-2.9035,-2.9313,-2.9596,-3.0392,-3.0648,-3.0724,-3.078,-3.0785,-3.0778,-3.0777,-3.0762,-3.0704,-3.0579,-3.055,-3.054,-3.054,-3.1072,-3.1195,-3.0598,-3.0983,-3.0981,-3.0309,-3.0157,-3.0075,-3.0061,-3.0157,-3.0562,-3.1299,-3.0502,-3.0041,-2.9912,-2.9992,-3.0047,-3.0037,-3.1286,-3.2112,-1.8529,-1.8332,-1.8104,-1.7482,-1.6901,0.0,-0.7993,-0.5272,-0.2267,0.0,1.1805,1.7196,1.7895,2.2234,2.5829,2.6114,2.5653,2.5172,2.5008,2.5053,2.5097,2.505,2.501,2.4921,2.4723,2.4676,2.4631,2.4517,2.45,2.4007,2.2881,2.2831,2.02,1.4418,1.2897,0.7708,-0.1643,-0.3086,-0.5958,-1.0241,-1.0629,-1.0541,-1.0049,-1.0753,-1.1345,-1.1825,-1.2401,-1.3179,-1.4,-1.4254,-1.4811,-1.5507,-1.5551,-1.5812,-1.6207,-1.6543,-1.6789,-1.7018,-1.7384,-1.7783,-1.8191,-1.8428,-1.8658,-1.8914,-1.95,-2.0278,-2.1365,-2.3177,-2.4366,-2.5297,-2.6261,-2.6024,-2.5967,-2.773,-2.707,-2.6497,-2.8088,-2.844,-2.869,-2.9494,-3.0268,-3.0773,-3.0723,-3.0669,-3.0633,-3.0645,-3.049,-3.0398,-3.0359,-3.0266,-3.019,-3.019,-3.0311,-3.0335,-3.0209,-3.0289,-3.0261,-3.0056,-3.0028,-2.9984,-2.9874,-3.0487,-3.0804,-3.0752,-3.032,-3.0028,-2.9908,-2.9777,-2.9638,-2.957,-3.0932,-3.1797,-1.9544,-1.921,-1.8881,-1.8471,-1.8057,0.0,0.0,-1.0629,-0.9348,-0.5115,0.1639,0.6873,0.7333,1.4837,2.1161,2.1716,2.3601,2.5009,2.5048,2.5175,2.5234,2.5207,2.5146,2.501,2.4818,2.4719,2.4626,2.4564,2.4571,2.4588,2.461,2.4605,2.3272,2.0383,1.7172,1.2719,0.6925,0.3788,-0.054,-0.5944,-0.6234,-0.7653,-1.003,-1.0556,-1.1132,-1.1726,-1.2079,-1.2881,-1.3901,-1.4065,-1.4672,-1.5507,-1.5507,-1.5726,-1.6111,-1.6463,-1.6763,-1.7052,-1.7422,-1.7876,-1.833,-1.8582,-1.8843,-1.9117,-1.9401,-2.0503,-2.2034,-2.3928,-2.4805,-2.5283,-2.5841,-2.5697,-2.5654,-2.6661,-2.623,-2.5937,-2.7188,-2.7759,-2.8275,-2.9052,-2.9897,-3.0525,-3.0579,-3.0518,-3.0436,-3.0419,-3.0318,-3.0253,-3.0196,-3.0131,-3.0109,-3.0109,-2.9889,-2.9772,-2.9832,-2.9565,-2.942,-2.9438,-2.9401,-2.9511,-2.9839,-3.0227,-3.0342,-3.0068,-3.0181,-2.9764,-2.8802,-2.8608,-2.8607,-2.8897,-3.0601,-3.1454,-2.0341,-2.0098,-1.9737,-1.9148,-1.8969,-1.8637,0.0,0.0,0.0,-1.6461,-0.9931,-0.4139,-0.3698,0.6039,0.0,1.5147,0.0,0.0,0.0,2.2783,0.0,2.5168,2.5187,2.5124,2.5177,2.5016,2.4842,2.465,2.4708,2.4732,2.4714,2.4714,2.4722,2.4731,1.9867,1.6733,1.5703,1.0802,0.5004,-0.1477,-0.1803,-0.4798,-1.0107,-1.039,-1.0954,-1.17,-1.1774,-1.2579,-1.3855,-1.3921,-1.4564,-1.5507,-1.5507,-1.5726,-1.6083,-1.6517,-1.6841,-1.715,-1.762,-1.809,-1.8524,-1.8732,-1.9051,-1.938,-1.9513,-2.0929,-2.2821,-2.4247,-2.4938,-2.5262,-2.538,-2.5464,-2.5512,-2.5582,-2.5565,-2.5701,-2.6306,-2.7144,-2.7984,-2.8569,-2.9414,-3.014,-3.039,-3.0338,-3.0233,-3.0148,-3.0102,-3.0064,-2.9992,-2.9939,-2.9908,-2.9874,-2.9532,-2.9344,-2.9419,-2.8975,-2.8717,-2.8764,-2.8675,-2.8851,-2.9419,-2.9718,-2.9809,-2.9694,-3.0172,-2.9637,-2.7975,-2.7716,-2.7857,-2.838,-3.008,-3.0805,0.0,0.0,0.0,0.0,-1.9587,-1.9609,-1.797,0.0,-1.7716,-1.6208,0.0,-0.5743,-0.4607,0.0,0.0,0.0,0.0,0.0,0.9446,1.4033,1.9363,2.4668,2.5187,2.5405,2.6161,2.6102,2.5676,2.4828,2.4828,2.4854,2.479,2.479,2.4802,2.4798,2.3977,2.1033,1.5735,1.4897,0.9015,-0.1752,-0.1736,-0.4765,-1.0359,-1.0359,-1.0725,-1.1394,-1.1715,-1.2567,-1.3676,-1.3954,-1.4627,-1.5507,-1.5507,-1.5924,-1.657,-1.6841,-1.7117,-1.7415,-1.7898,-1.8232,-1.8524,-1.8732,-1.9115,-1.9513,-1.9705,-2.1089,-2.2647,-2.2958,-2.4178,-2.538,-2.547,-2.5483,-2.5525,-2.5586,-2.5464,-2.536,-2.5437,-2.6504,-2.7463,-2.7504,-2.8567,-2.9645,-3.014,-3.0166,-3.0085,-2.9946,-2.9782,-2.9624,-2.9495,-2.9319,-2.9175,-2.9049,-2.8983,-2.8915,-2.8805,-2.873,-2.8591,-2.8312,-2.826,-2.8148,-2.7882,-2.907,-2.9962,-3.0456,-3.0543,-3.0076,-2.9042,-2.8533,-2.8337,-2.8495,-2.9069,-2.9488,0.0,0.0,0.0,0.0,0.0,0.0,-1.9661,0.0,-1.9434,-1.8623,0.0,0.0,0.0,0.0,0.0,0.0,0.3917,0.6321,0.0,0.0,1.258,1.9244,0.0,0.0,2.6308,2.6138,2.5721,2.4975,2.4974,2.4981,2.4918,2.492,2.4911,2.4923,2.47,2.3446,2.1062,2.0743,1.4698,0.3079,0.3328,-0.1553,-1.0798,-1.0506,-1.0764,-1.142,-1.146,-1.2009,-1.2831,-1.3404,-1.3875,-1.4376,-1.5312,-1.605,-1.6617,-1.6773,-1.7101,-1.7486,-1.7832,-1.8217,-1.868,-1.9175,-1.9458,-1.9738,-2.0417,-2.154,-2.2734,-2.3333,-2.4418,-2.5425,-2.5526,-2.5554,-2.5543,-2.5445,-2.5362,-2.5253,-2.5005,-2.5988,-2.6879,-2.6712,-2.7563,-2.8433,-2.864,-2.9167,-2.9495,-2.9438,-2.9221,-2.9052,-2.9005,-2.8717,-2.8506,-2.8431,-2.8182,-2.8022,-2.7968,-2.7809,-2.7836,-2.8124,-2.8935,-2.9134,-2.8572,-2.9972,-3.0364,-2.9583,-2.9732,-2.9314,-2.8257,-2.7769,-2.7778,-2.8306,-2.8649,-2.8408,-2.0338,0.0,0.0,0.0,0.0,0.0,0.0,0.0,0.0,0.0,-1.8869,0.0,0.0,0.0,-0.7448,-0.69,0.0,0.0051,0.0,0.1717,0.6032,1.4969,0.0,0.0,0.0,2.601,2.5754,2.5095,2.5107,2.5114,2.506,2.5053,2.5046,2.5046,2.4799,2.4737,2.4884,2.4528,1.9201,0.9025,0.7871,0.1715,-0.8714,-0.971,-1.0611,-1.1319,-1.1311,-1.1686,-1.2378,-1.305,-1.3443,-1.378,-1.5067,-1.5949,-1.6536,-1.677,-1.7183,-1.7676,-1.7924,-1.8399,-1.8978,-1.9508,-1.9707,-1.9924,-2.0937,-2.1901,-2.2863,-2.3792,-2.4714,-2.5453,-2.5541,-2.5558,-2.5477,-2.5321,-2.5209,-2.5056,-2.4766,-2.5504,-2.6158,-2.5963,-2.6623,-2.7173,-2.7173,-2.7888,-2.8464,-2.8415,-2.8214,-2.804,-2.8005,-2.7741,-2.7525,-2.7513,-2.7204,-2.7023,-2.7103,-2.6903,-2.708,-2.774,-2.8461,-2.8841,-2.8743,-2.9766,-2.9719,-2.8555,-2.8788,-2.8356,-2.7179,-2.7237,-2.746,-2.7778,-2.8295,-2.8001,0.0,0.0,0.0,-2.0346,0.0,0.0,0.0,0.0,-2.0792,0.0,0.0,0.0,-1.9404,-1.7137,-1.5358,-1.5706,-1.4287,0.0,0.0,-0.847,0.0449,1.4012,2.189,0.0,0.0,2.5888,2.6051,2.5258,2.5201,2.5198,2.5203,2.5191,2.5191,2.5191,2.4996,2.4873,2.4804,2.4591,2.1357,1.5145,1.0024,0.4061,-0.264,-0.7378,-1.004,-1.0957,-1.1383,-1.1972,-1.2622,-1.3114,-1.368,-1.4322,-1.4833,-1.5505,-1.6285,-1.7033,-1.7585,-1.8027,-1.845,-1.893,-1.9402,-1.9643,-1.9736,-1.9993,-2.1063,-2.2045,-2.2991,-2.3932,-2.4825,-2.5508,-2.5508,-2.5401,-2.5321,-2.5292,-2.5,-2.4723,-2.4708,-2.5004,-2.5243,-2.5217,-2.5743,-2.6134,-2.6134,-2.6544,-2.6822,-2.6691,-2.6578,-2.6417,-2.6202,-2.6168,-2.6117,-2.5959,-2.5976,-2.6044,-2.6319,-2.6335,-2.6514,-2.6932,-2.5891,-2.5973,-2.7608,-2.7381,-2.7425,-2.781,-2.8124,-2.7535,-2.6149,-2.755,-2.7783,-2.6945,-2.7961,-2.8619,0.0,0.0,-2.1458,-2.0374,0.0,0.0,0.0,0.0,0.0,0.0,0.0,0.0,0.0,-1.8129,-1.7017,-1.7166,-1.6401,-1.5788,0.0,-0.995,-0.3843,0.1179,0.9107,1.5704,0.0,0.0,2.167,2.4957,2.5192,2.5209,2.5191,2.5191,2.5191,2.5191,2.4989,2.491,2.4921,2.4607,2.145,1.5537,1.3194,0.7086,-0.2262,-0.4126,-0.7138,-1.0888,-1.0591,-1.0911,-1.1697,-1.2072,-1.2415,-1.2896,-1.4633,-1.532,-1.5523,-1.7009,-1.7876,-1.8351,-1.8875,-1.9335,-1.9701,-1.9903,-2.0375,-2.0929,-2.1336,-2.2494,-2.3738,-2.4094,-2.4765,-2.5364,-2.537,-2.5205,-2.4991,-2.4869,-2.4385,-2.4045,-2.4296,-2.3762,-2.3446,-2.4198,-2.3907,-2.3654,-2.4055,-2.3666,-2.3965,-2.5965,-2.6099,-2.5785,-2.5342,-2.5056,-2.4759,-2.4429,-2.4309,-2.444,-2.4922,-2.543,-2.5601,-2.5341,-2.5771,-2.6047,-2.6149,-2.6853,-2.7073,-2.6746,-2.6583,-2.6242,-2.5756,-2.5523,-2.6101,-2.7321,-2.6118,-2.4812,-2.0105,-2.0746,0.0,-2.083,-2.1249,0.0,-2.138,0.0,-2.1657,0.0,0.0,0.0,0.0,0.0,-1.8825,-1.9097,-1.8327,-1.7584,0.0,-1.3002,-0.9805,-0.9387,0.0389,0.8775,1.3018,1.5448,1.8227,2.17,2.3981,2.5209,0.0,2.5191,2.5191,2.5191,2.5077,2.5003,2.4987,2.4666,2.2594,1.8763,1.6072,1.0845,0.3428,-0.038,-0.4382,-0.8394,-0.9752,-1.0662,-1.125,-1.1728,-1.1843,-1.1964,-1.3964,-1.4802,-1.512,-1.7199,-1.8286,-1.8823,-1.9346,-1.9687,-1.9893,-2.0084,-2.0742,-2.1533,-2.1856,-2.2937,-2.4037,-2.412,-2.4634,-2.5122,-2.4749,-2.4568,-2.4414,-2.4186,-2.3575,-2.3069,-2.3179,-2.2471,-2.1995,-2.259,-2.2091,-2.1721,-2.2101,-2.1614,-2.1903,-2.4153,-2.4104,-2.3727,-2.3375,-2.3109,-2.282,-2.2523,-2.2433,-2.2637,-2.3403,-2.3876,-2.4098,-2.3921,-2.4631,-2.4976,-2.4878,-2.5454,-2.554,-2.5091,-2.4832,-2.4475,-2.4041,-2.394,-2.4486,-2.5564,-2.4133,-2.2059]}]]